[[{"header":{"parameterUnit":"m.s-1","parameterCategory":1,"la1":30.6,"la2":29.2853,"lo1":-89.7004,"lo2":-87.6739,"dy":0.0162,"dx":0.0183,"nx":112,"ny":82,"refTime":"2023-07-03T18:00:00:Z","depth":0,"parameterNumber":2,"parameterNumberName":"U-component_of_WINDS"},"data":[0.0,0.0,0.0,0.0,0.0,0.0,0.0,0.0,0.0,0.0,0.0,0.0,0.0,0.0,0.0,0.0,0.0,0.0,0.0,0.0,0.0,0.0,0.0,0.0,0.0,0.0,0.0,0.0,0.0,0.0,0.0,0.0,0.0,0.0,0.0,0.0,0.0,0.0,0.0,0.0,0.0,0.0,0.0,0.0,0.0,0.0,0.0,0.0,0.0,0.0,0.0,0.0,0.0,0.0,0.0,0.0,0.0,0.0,0.0,0.0,0.0,0.0,0.0,0.0,0.0,0.0,0.0,0.0,0.0,0.0,0.0,0.0,0.0,0.0,0.0,0.0,0.0,0.0,0.0,0.0,0.0,0.0,0.0,0.0,0.0,0.0,0.0,0.0,0.0,0.0,1.5455,1.4889,1.4552,1.4365,1.4365,1.4651,1.504,1.5618,0.0,0.0,0.0,0.0,0.0,0.0,0.0,0.0,0.0,0.0,0.0,0.0,0.0,0.0,0.0,0.0,0.0,0.0,0.0,0.0,0.0,0.0,0.0,0.0,0.0,0.0,0.0,0.0,0.0,0.0,0.0,0.0,0.0,0.0,0.0,0.0,0.0,0.0,0.0,0.0,0.0,0.0,0.0,0.0,0.0,0.0,0.0,0.0,0.0,0.0,0.0,0.0,0.0,0.0,0.0,0.0,0.0,0.0,0.0,0.0,0.0,0.0,0.0,0.0,0.0,0.0,0.0,0.0,0.0,0.0,0.0,0.0,0.0,0.0,0.0,0.0,0.0,0.0,0.0,0.0,0.0,0.0,0.0,0.0,0.0,0.0,0.0,0.0,0.0,0.0,0.0,0.0,0.0,0.0,0.0,0.0,0.0,0.0,0.0,0.0,0.0,0.0,0.0,0.0,1.5632,1.4667,1.4616,1.4651,1.4651,1.4808,1.5286,1.6285,0.0,0.0,0.0,0.0,0.0,0.0,0.0,0.0,0.0,0.0,0.0,0.0,0.0,0.0,0.0,0.0,0.0,0.0,0.0,0.0,0.0,0.0,0.0,0.0,0.0,0.0,0.0,0.0,0.0,0.0,0.0,0.0,0.0,0.0,0.0,0.0,0.0,0.0,0.0,0.0,0.0,0.0,0.0,0.0,0.0,0.0,0.0,0.0,0.0,0.0,0.0,0.0,0.0,0.0,0.0,0.0,0.0,0.0,0.0,0.0,0.0,0.0,0.0,0.0,0.0,0.0,0.0,0.0,0.0,0.0,0.0,0.0,0.0,0.0,0.0,0.0,0.0,0.0,0.0,0.0,0.0,0.0,0.0,0.0,0.0,0.0,0.0,0.0,0.0,0.0,0.0,0.0,0.0,0.0,0.0,0.0,0.0,0.0,0.0,0.0,0.0,0.0,0.0,1.6272,1.5757,1.4731,1.4669,1.4714,1.4714,1.4808,1.5328,1.641,1.6361,0.0,0.0,0.0,0.0,0.0,0.0,0.0,0.0,0.0,0.0,0.0,0.0,0.0,0.0,0.0,0.0,0.0,0.0,0.0,0.0,0.0,0.0,0.0,0.0,0.0,0.0,0.0,0.0,0.0,0.0,0.0,0.0,0.0,0.0,0.0,0.0,0.0,0.0,0.0,0.0,0.0,0.0,0.0,0.0,0.0,0.0,0.0,0.0,0.0,0.0,0.0,0.0,0.0,0.0,0.0,0.0,0.0,0.0,0.0,0.0,0.0,0.0,0.0,0.0,0.0,0.0,0.0,0.0,0.0,0.0,0.0,0.0,0.0,0.0,0.0,0.0,0.0,0.0,0.0,0.0,0.0,0.0,0.0,0.0,0.0,0.0,0.0,0.0,0.0,0.0,0.0,0.0,0.0,0.0,0.0,0.0,0.0,0.0,0.0,0.0,0.0,0.0,1.6082,1.5565,1.4766,1.4714,1.4714,1.4714,1.4808,1.5328,1.6459,1.6663,0.0,0.0,0.0,0.0,0.0,0.0,0.0,0.0,0.0,0.0,0.0,0.0,0.0,0.0,0.0,0.0,0.0,0.0,0.0,0.0,0.0,0.0,0.0,0.0,0.0,0.0,0.0,0.0,0.0,0.0,0.0,0.0,0.0,0.0,0.0,0.0,0.0,0.0,0.0,0.0,0.0,0.0,0.0,0.0,0.0,0.0,0.0,0.0,0.0,0.0,0.0,0.0,0.0,0.0,0.0,0.0,0.0,0.0,0.0,0.0,0.0,0.0,0.0,0.0,0.0,0.0,0.0,0.0,0.0,0.0,0.0,0.0,0.0,0.0,0.0,0.0,0.0,0.0,0.0,0.0,0.0,0.0,0.0,0.0,0.0,0.0,0.0,0.0,0.0,0.0,0.0,0.0,0.0,0.0,0.0,0.0,0.0,0.0,0.0,0.0,0.0,0.0,1.5519,1.4844,1.4714,1.4777,1.4808,1.4808,1.4839,1.5407,1.6607,1.6768,0.0,0.0,0.0,0.0,0.0,0.0,0.0,0.0,0.0,0.0,0.0,0.0,0.0,0.0,0.0,0.0,0.0,0.0,0.0,0.0,0.0,0.0,0.0,0.0,0.0,0.0,0.0,0.0,0.0,0.0,0.0,0.0,0.0,0.0,0.0,0.0,0.0,0.0,0.0,0.0,0.0,0.0,0.0,0.0,0.0,0.0,0.0,0.0,0.0,0.0,0.0,0.0,0.0,0.0,0.0,0.0,0.0,0.0,0.0,0.0,0.0,0.0,0.0,0.0,0.0,0.0,0.0,0.0,0.0,0.0,0.0,0.0,0.0,0.0,0.0,0.0,0.0,0.0,0.0,0.0,0.0,0.0,0.0,0.0,0.0,0.0,0.0,0.0,0.0,0.0,0.0,0.0,0.0,0.0,0.0,0.0,0.0,0.0,0.0,0.0,0.0,0.0,1.6459,1.5984,0.0,1.5607,1.5572,1.5668,1.5703,1.6062,1.6913,0.0,0.0,0.0,0.0,0.0,0.0,0.0,0.0,0.0,0.0,0.0,0.0,0.0,0.0,0.0,0.0,0.0,0.0,0.0,0.0,0.0,0.0,0.0,0.0,0.0,0.0,0.0,0.0,0.0,0.0,0.0,0.0,0.0,0.0,0.0,0.0,0.0,0.0,0.0,0.0,0.0,0.0,0.0,0.0,0.0,0.0,0.0,0.0,0.0,0.0,0.0,0.0,0.0,0.0,0.0,0.0,0.0,0.0,0.0,0.0,0.0,0.0,0.0,0.0,0.0,0.0,0.0,0.0,0.0,0.0,0.0,0.0,0.0,0.0,0.0,0.0,0.0,0.0,0.0,0.0,0.0,0.0,0.0,0.0,0.0,0.0,0.0,0.0,0.0,0.0,0.0,0.0,0.0,0.0,0.0,0.0,0.0,0.0,0.0,0.0,0.0,0.0,1.7346,1.6872,1.6461,0.0,1.5905,1.5845,1.6055,1.5968,1.6298,1.7133,0.0,0.0,0.0,0.0,0.0,0.0,0.0,0.0,0.0,0.0,0.0,0.0,0.0,0.0,0.0,0.0,0.0,0.0,0.0,0.0,0.0,0.0,0.0,0.0,0.0,0.0,0.0,0.0,0.0,0.0,0.0,0.0,0.0,0.0,0.0,0.0,0.0,0.0,0.0,0.0,0.0,0.0,0.0,0.0,0.0,0.0,0.0,0.0,0.0,0.0,0.0,0.0,0.0,0.0,0.0,0.0,0.0,0.0,0.0,0.0,0.0,0.0,0.0,0.0,0.0,0.0,0.0,0.0,0.0,0.0,0.0,0.0,0.0,0.0,0.0,0.0,0.0,0.0,0.0,0.0,0.0,0.0,0.0,0.0,0.0,0.0,0.0,0.0,0.0,0.0,0.0,0.0,0.0,0.0,0.0,0.0,0.0,0.0,0.0,0.0,0.0,0.0,1.7305,1.6444,1.5818,1.5818,1.5498,1.5461,1.5781,1.5559,1.596,0.0,0.0,0.0,0.0,0.0,0.0,0.0,0.0,0.0,0.0,0.0,0.0,0.0,0.0,0.0,0.0,0.0,0.0,0.0,0.0,0.0,0.0,0.0,0.0,0.0,0.0,0.0,0.0,0.0,0.0,0.0,0.0,0.0,0.0,0.0,0.0,0.0,0.0,0.0,0.0,0.0,0.0,0.0,0.0,0.0,0.0,0.0,0.0,0.0,0.0,0.0,0.0,0.0,0.0,0.0,0.0,0.0,0.0,0.0,0.0,0.0,0.0,0.0,0.0,0.0,0.0,0.0,0.0,0.0,0.0,0.0,0.0,0.0,0.0,0.0,0.0,0.0,0.0,0.0,0.0,0.0,0.0,0.0,0.0,0.0,0.0,0.0,0.0,0.0,0.0,0.0,0.0,0.0,0.0,0.0,0.0,0.0,0.0,0.0,0.0,0.0,0.0,0.0,1.7437,1.6781,1.6337,1.6419,1.5871,1.5562,1.5708,1.5389,1.5671,1.6765,0.0,0.0,0.0,0.0,0.0,0.0,0.0,0.0,0.0,0.0,0.0,0.0,0.0,0.0,0.0,0.0,0.0,0.0,0.0,0.0,0.0,0.0,0.0,0.0,0.0,0.0,0.0,0.0,0.0,0.0,0.0,0.0,0.0,0.0,0.0,0.0,0.0,0.0,0.0,0.0,0.0,0.0,0.0,0.0,0.0,0.0,0.0,0.0,0.0,0.0,0.0,0.0,0.0,0.0,0.0,0.0,0.0,0.0,0.0,0.0,0.0,0.0,0.0,0.0,0.0,0.0,0.0,0.0,0.0,0.0,0.0,0.0,0.0,0.0,0.0,0.0,0.0,0.0,0.0,0.0,0.0,0.0,0.0,0.0,0.0,0.0,0.0,0.0,0.0,0.0,0.0,0.0,0.0,0.0,0.0,0.0,0.0,0.0,0.0,0.0,0.0,0.0,1.7338,1.6603,1.6195,1.6267,1.557,1.5166,1.5327,1.4987,1.5247,1.6363,0.0,0.0,0.0,0.0,0.0,0.0,0.0,0.0,0.0,0.0,0.0,0.0,0.0,0.0,0.0,0.0,0.0,0.0,0.0,0.0,0.0,0.0,0.0,0.0,0.0,0.0,0.0,0.0,0.0,0.0,0.0,0.0,0.0,0.0,0.0,0.0,0.0,0.0,0.0,0.0,0.0,0.0,0.0,0.0,0.0,0.0,0.0,0.0,0.0,0.0,0.0,0.0,0.0,0.0,0.0,0.0,0.0,0.0,0.0,0.0,0.0,0.0,0.0,0.0,0.0,0.0,0.0,0.0,0.0,0.0,0.0,0.0,0.0,0.0,0.0,0.0,0.0,0.0,0.0,0.0,0.0,0.0,0.0,0.0,0.0,0.0,0.0,0.0,0.0,0.0,0.0,0.0,0.0,0.0,0.0,0.0,0.0,0.0,0.0,0.0,0.0,0.0,1.6928,1.6081,1.5467,1.5467,1.4691,1.4335,1.4647,1.4325,1.4666,1.5905,0.0,0.0,0.0,0.0,0.0,0.0,0.0,0.0,0.0,0.0,0.0,0.0,0.0,0.0,0.0,0.0,0.0,0.0,0.0,0.0,0.0,0.0,0.0,0.0,0.0,0.0,0.0,0.0,0.0,0.0,0.0,0.0,0.0,0.0,0.0,0.0,0.0,0.0,0.0,0.0,0.0,0.0,0.0,0.0,0.0,0.0,0.0,0.0,0.0,0.0,0.0,0.0,0.0,0.0,0.0,0.0,0.0,0.0,0.0,0.0,1.5355,0.0,0.0,0.0,0.0,0.0,0.0,0.0,0.0,0.0,0.0,0.0,0.0,0.0,0.0,0.0,0.0,0.0,0.0,0.0,0.0,0.0,0.0,0.0,0.0,0.0,0.0,0.0,0.0,0.0,0.0,0.0,0.0,0.0,0.0,0.0,0.0,0.0,0.0,0.0,0.0,0.0,1.6143,1.515,1.4442,1.4442,1.3882,1.3533,1.361,1.3251,1.3399,1.4262,1.3833,0.0,0.0,0.0,0.0,0.0,0.0,0.0,0.0,0.0,0.0,0.0,0.0,0.0,0.0,0.0,0.0,0.0,0.0,0.0,0.0,0.0,0.0,0.0,0.0,0.0,0.0,0.0,0.0,0.0,0.0,0.0,0.0,0.0,0.0,0.0,0.0,0.0,0.0,0.0,0.0,0.0,0.0,0.0,0.0,0.0,0.0,0.0,0.0,0.0,0.0,0.0,0.0,0.0,0.0,0.0,0.0,0.0,0.0,0.0,0.0,1.5085,0.0,0.0,0.0,0.0,0.0,0.0,0.0,0.0,0.0,0.0,0.0,0.0,0.0,0.0,0.0,0.0,0.0,0.0,0.0,0.0,0.0,0.0,0.0,0.0,0.0,0.0,0.0,0.0,0.0,0.0,0.0,0.0,0.0,0.0,0.0,0.0,0.0,0.0,0.0,0.0,1.6124,1.529,1.459,1.4285,1.3742,1.3334,1.3045,1.3107,1.3228,1.3507,1.3507,0.0,0.0,0.0,0.0,0.0,0.0,0.0,0.0,0.0,0.0,0.0,0.0,0.0,0.0,0.0,0.0,0.0,0.0,0.0,0.0,0.0,0.0,0.0,0.0,0.0,0.0,0.0,0.0,0.0,0.0,0.0,0.0,0.0,0.0,0.0,0.0,0.0,0.0,0.0,0.0,0.0,0.0,0.0,0.0,0.0,0.0,0.0,0.0,0.0,0.0,0.0,0.0,0.0,1.4373,1.4106,1.3951,1.3823,1.3545,1.3188,1.4037,1.3963,1.3355,1.458,0.0,0.0,0.0,0.0,0.0,0.0,0.0,0.0,0.0,0.0,0.0,0.0,0.0,0.0,0.0,0.0,0.0,0.0,0.0,0.0,0.0,0.0,0.0,0.0,1.6189,1.612,1.7356,0.0,0.0,0.0,0.0,0.0,0.0,0.0,0.0,0.0,0.0,0.0,1.6076,1.5553,1.5025,1.4538,1.4029,1.3604,1.3288,1.3406,1.3421,1.3283,1.3438,1.3365,0.0,0.0,0.0,0.0,0.0,0.0,0.0,0.0,0.0,0.0,0.0,0.0,0.0,0.0,0.0,0.0,0.0,0.0,0.0,0.0,0.0,0.0,0.0,0.0,0.0,0.0,0.0,0.0,0.0,0.0,0.0,0.0,1.66,1.546,0.0,0.0,0.0,0.0,0.0,0.0,0.0,0.0,0.0,0.0,0.0,0.0,0.0,1.4046,1.4509,1.3772,1.3504,1.3691,1.3059,1.259,1.2249,1.2139,1.2005,1.1752,1.1852,0.0,1.3447,1.3182,0.0,0.0,0.0,0.0,0.0,0.0,0.0,0.0,0.0,0.0,0.0,0.0,0.0,0.0,0.0,0.0,0.0,0.0,0.0,0.0,0.0,0.0,1.4599,1.5066,1.5235,1.5458,0.0,1.674,1.7146,1.716,1.6808,0.0,0.0,0.0,0.0,0.0,0.0,0.0,1.4756,1.4594,1.4623,1.4898,1.4506,1.453,1.5301,1.4032,1.3278,1.3531,1.2486,1.2009,1.2457,1.2446,0.0,0.0,0.0,0.0,0.0,0.0,0.0,0.0,0.0,0.0,0.0,0.0,0.0,0.0,0.0,0.0,0.0,0.0,0.0,0.0,0.0,0.0,0.0,0.0,0.0,0.0,0.0,0.0,0.0,1.8085,1.7151,1.6979,1.6909,1.6803,0.0,0.0,0.0,0.0,0.0,0.0,0.0,0.0,0.0,1.4237,1.4026,1.3792,1.3536,1.3372,1.3208,1.3066,1.2653,1.2327,1.2127,1.2007,1.1967,1.1938,1.1918,1.2268,1.2814,1.2787,1.2924,1.3245,0.0,0.0,0.0,0.0,1.4055,1.4502,1.3888,1.4093,1.4694,1.4935,0.0,0.0,0.0,0.0,0.0,0.0,0.0,0.0,0.0,0.0,1.5187,1.5124,1.5259,1.5449,1.5776,1.6044,1.6423,0.0,1.6278,1.5897,1.6396,0.0,0.0,0.0,0.0,1.6087,1.5725,1.5451,1.5131,1.4697,1.4414,1.4232,1.4118,1.3649,1.3184,1.2795,1.2477,1.1999,1.1315,1.1847,1.2377,0.0,0.0,0.0,0.0,0.0,0.0,0.0,0.0,0.0,0.0,0.0,0.0,0.0,0.0,0.0,0.0,0.0,0.0,0.0,0.0,0.0,0.0,0.0,0.0,0.0,0.0,0.0,0.0,1.8032,1.7504,1.7958,1.7427,1.7167,0.0,0.0,0.0,0.0,0.0,0.0,1.4989,1.4416,1.3997,1.3767,1.3877,1.3569,1.2845,1.3137,1.3109,1.2753,1.2584,1.2468,1.2436,1.234,1.234,1.2436,1.2393,1.2393,1.2404,1.2597,1.248,1.2276,1.3286,1.3437,1.3033,1.3299,1.3806,1.4247,1.3557,1.3792,1.4397,1.4476,1.4666,1.5064,1.5617,0.0,0.0,0.0,0.0,1.5901,1.5153,1.5472,1.5882,1.5544,1.5683,1.5948,1.6051,1.6109,1.6254,0.0,1.6083,1.5611,1.6313,0.0,0.0,0.0,0.0,1.6322,1.6147,1.5665,1.5143,1.4542,1.4131,1.3744,1.3397,1.3215,1.2958,1.2413,1.2447,1.1899,1.0604,1.1361,1.1835,1.1881,0.0,0.0,0.0,0.0,0.0,0.0,0.0,0.0,0.0,0.0,0.0,0.0,0.0,0.0,0.0,0.0,0.0,0.0,0.0,0.0,0.0,0.0,0.0,0.0,0.0,0.0,0.0,0.0,0.0,1.7311,1.7651,0.0,0.0,0.0,0.0,1.6238,1.5664,1.5245,1.5001,1.4428,1.39,1.3451,1.3451,1.3264,1.2899,1.292,1.2889,1.2889,1.2816,1.2785,1.2785,1.2785,1.2785,1.2785,1.2648,1.2595,1.2552,1.2404,1.2515,1.2865,1.292,1.3201,1.3543,1.3244,1.3231,1.3322,1.2947,1.3006,1.3273,1.3706,1.4637,1.5469,1.5102,1.536,0.0,0.0,1.522,1.4915,1.4708,1.5242,1.5915,1.5867,1.6525,1.7109,1.7109,1.7231,1.7195,0.0,1.6263,1.6092,1.6616,0.0,1.5774,1.5174,1.5028,1.4893,1.457,1.4014,1.39,1.4594,1.376,1.3616,1.4676,1.3253,1.2537,1.3109,1.2013,1.1268,1.0971,1.1027,1.1302,1.1881,1.1771,0.0,0.0,0.0,0.0,0.0,0.0,0.0,0.0,0.0,0.0,0.0,0.0,0.0,0.0,0.0,0.0,0.0,0.0,0.0,0.0,0.0,0.0,0.0,0.0,0.0,0.0,0.0,0.0,1.8101,1.7639,0.0,1.6417,1.6169,1.579,1.5362,1.4607,1.4299,1.4553,1.388,1.3546,1.3638,1.3746,1.3628,1.3281,1.3673,1.3683,1.3311,1.3379,1.3542,1.3758,1.3163,1.328,1.3875,1.3143,1.2998,1.3213,1.3173,1.2932,1.258,1.2666,1.2859,1.3084,1.2957,1.3183,1.353,1.3401,1.3619,1.3937,1.4045,1.4312,1.456,1.4564,1.4722,1.4915,1.4971,1.4937,1.4811,1.473,1.5218,1.5711,1.5711,1.6233,1.6738,1.6738,1.6489,1.6272,1.6418,1.6201,1.6056,1.6486,1.6009,1.5524,1.5488,1.5111,1.4851,1.4879,1.3966,1.3447,1.3762,1.3067,1.2729,1.307,1.2414,1.2063,1.225,1.179,1.1408,1.1079,1.0971,1.1161,1.1634,1.1496,1.2348,0.0,0.0,0.0,0.0,0.0,0.0,0.0,0.0,0.0,0.0,0.0,0.0,0.0,0.0,0.0,0.0,0.0,0.0,0.0,0.0,0.0,0.0,0.0,0.0,0.0,0.0,1.7491,1.8316,1.7366,1.6607,1.6441,1.5776,1.5295,1.5038,1.4228,1.3959,1.4415,1.3802,1.3651,1.4202,1.416,1.4192,1.4266,1.4453,1.4359,1.3949,1.4062,1.4118,1.4174,1.3609,1.3681,1.4304,1.3556,1.3446,1.3657,1.3603,1.3304,1.2832,1.2954,1.3173,1.3431,1.3313,1.3464,1.3744,1.3744,1.3995,1.4244,1.414,1.4093,1.4104,1.4337,1.4419,1.451,1.478,1.4882,1.4974,1.4986,1.5519,1.6074,1.6074,1.6435,1.6733,1.6733,1.6252,1.5956,1.6331,1.6025,1.5835,1.6101,1.5701,1.5365,1.5472,1.4717,1.4307,1.4677,1.3387,1.2547,1.2635,1.2184,1.1799,1.1746,1.1678,1.1619,1.1578,1.1578,1.1427,1.1124,1.1023,1.1082,1.1413,1.1464,1.2268,1.3887,0.0,0.0,0.0,0.0,0.0,0.0,0.0,0.0,0.0,0.0,0.0,0.0,0.0,0.0,0.0,0.0,0.0,0.0,0.0,0.0,0.0,0.0,0.0,1.6935,1.7387,1.77,1.7854,1.6854,1.6306,1.6557,1.5932,1.5468,1.5468,1.4704,1.4394,1.4754,1.4205,1.4189,1.5023,1.4609,1.4827,1.5723,1.5157,1.4845,1.4829,1.4714,1.445,1.399,1.397,1.397,1.399,1.3838,1.3739,1.3749,1.3641,1.3586,1.3594,1.3743,1.4164,1.4648,1.4296,1.3984,1.3757,1.3757,1.3863,1.3968,1.3968,1.4089,1.4219,1.437,1.4521,1.4678,1.4839,1.5078,1.5296,1.5327,1.6112,1.6908,1.6908,1.7037,1.7146,1.7146,1.6676,1.626,1.626,1.5797,1.5421,1.5408,1.5371,1.5274,1.5029,1.3809,0.0,1.36,1.2192,1.1165,1.1399,1.111,1.0989,1.1141,1.1141,1.1184,1.1326,1.1326,1.1226,1.1124,1.1124,1.1139,1.1185,1.162,1.193,1.2175,0.0,0.0,0.0,0.0,0.0,0.0,0.0,0.0,0.0,0.0,0.0,0.0,0.0,0.0,0.0,0.0,0.0,0.0,0.0,0.0,0.0,0.0,1.6552,1.7384,1.6777,1.6359,1.6676,1.6312,1.5988,1.58,1.5513,1.5267,1.4994,1.4778,1.4437,1.3952,1.445,1.4483,1.3882,1.4389,1.4553,1.4483,1.431,1.415,1.3867,1.3961,1.3931,1.3736,1.3191,1.3159,1.3611,1.2845,1.2655,1.2847,1.3093,1.3438,1.3883,1.3706,1.3806,1.3998,1.3642,1.3437,1.3218,1.3218,1.3218,1.327,1.327,1.3646,1.4071,1.4225,1.4604,1.4961,1.4646,1.4676,1.4749,1.4274,1.474,1.531,1.531,1.5598,1.5911,1.5911,1.5449,1.4972,1.4972,1.4468,1.4363,1.5226,1.4864,1.435,1.4309,1.3345,0.0,1.3266,1.2085,1.1524,1.2229,1.1893,1.1678,1.1739,1.1904,1.1834,1.1495,1.1427,1.1377,1.1267,1.1175,1.1022,1.0813,1.1678,1.1877,0.0,0.0,0.0,0.0,0.0,0.0,0.0,0.0,0.0,0.0,0.0,0.0,0.0,0.0,0.0,0.0,0.0,0.0,0.0,0.0,0.0,0.0,1.5496,1.6063,1.6883,1.6317,1.5849,1.5983,1.5901,1.5775,1.5694,1.5533,1.5392,1.5167,1.5092,1.4731,1.3981,1.4438,1.4502,1.3961,1.4241,1.4449,1.4593,1.4363,1.3979,1.3588,1.3806,1.37,1.3293,1.3013,1.3157,1.3454,1.2883,1.2648,1.2704,1.2837,1.3042,0.0,0.0,0.0,0.0,0.0,1.2959,1.2905,1.2795,1.285,1.2905,1.2905,1.3286,1.3736,1.379,1.4121,1.4437,1.4282,1.4385,1.4459,1.4248,1.4543,1.4916,1.4972,1.4994,1.5001,1.5001,1.4458,1.3938,1.3938,1.3703,0.0,1.4436,1.4046,1.3703,1.382,1.3032,1.2571,1.2855,1.2044,1.1704,1.2305,1.2026,1.1921,1.2097,1.2069,0.0,0.0,0.0,1.1528,1.1377,1.1524,0.0,0.0,0.0,1.2054,1.1538,1.2643,0.0,0.0,1.3208,1.3323,0.0,0.0,0.0,0.0,0.0,0.0,0.0,0.0,0.0,0.0,0.0,0.0,0.0,0.0,0.0,0.0,1.5163,1.5198,1.5796,1.5816,1.5763,1.5686,1.5551,1.5579,1.5839,1.5728,1.5603,1.5566,1.5444,1.5018,1.4334,0.0,0.0,0.0,0.0,1.4494,1.5311,1.4763,1.428,1.3726,1.4027,1.37,1.2889,1.3259,1.3467,1.34,1.3427,1.3165,1.2876,1.278,1.2585,1.2458,1.3243,1.3729,1.3855,1.294,1.2651,1.2651,1.2427,0.0,0.0,1.2762,1.3048,1.3332,1.3332,1.3497,1.369,1.395,1.409,1.4269,1.4644,1.4864,1.505,1.5177,1.4803,1.4483,1.4483,1.3901,1.3336,1.3351,1.3392,1.35,1.3455,1.3389,1.338,1.3584,1.2912,1.244,1.259,1.2196,1.1953,1.2228,0.0,0.0,1.2325,1.1973,1.1676,1.1589,1.1545,1.1418,1.1267,1.1676,1.1784,1.1531,1.2028,1.2217,1.2008,1.2111,1.2175,1.2223,1.334,1.358,0.0,0.0,0.0,0.0,0.0,0.0,0.0,0.0,0.0,0.0,0.0,0.0,0.0,0.0,0.0,1.456,1.4328,1.4426,1.4949,1.4774,1.4919,1.5951,1.5516,1.5273,1.5679,1.5295,1.4914,1.4809,1.4851,1.4578,1.3853,1.4508,1.4741,1.425,1.4777,1.5007,1.4868,1.4734,1.4478,1.403,0.0,0.0,1.324,1.331,1.3065,1.2714,1.2783,1.2558,1.2208,1.2327,1.2491,1.2674,1.2586,1.2554,1.2485,1.2361,1.2216,1.2026,1.2095,1.2277,1.2398,1.2398,1.293,1.3644,1.3644,1.4114,0.0,1.4105,1.4123,1.4082,1.3692,1.37,1.3863,1.3863,1.4057,1.4169,1.4169,1.4305,1.4328,1.4126,1.4127,1.4083,1.3897,1.3844,1.3835,1.3886,1.3602,1.3345,1.3401,1.3077,1.2932,1.3309,1.2841,1.255,1.2626,1.2151,1.1576,1.0915,1.0441,1.0131,0.9976,1.0141,1.0483,1.0971,1.1152,1.1502,1.2008,1.2008,1.2111,1.2231,1.2546,1.2668,0.0,0.0,0.0,0.0,0.0,0.0,0.0,0.0,0.0,0.0,0.0,1.5526,0.0,0.0,1.4789,1.395,1.3909,1.4146,1.4536,1.4275,1.4485,1.5664,1.5099,1.478,1.5118,1.4881,1.4656,1.4513,1.4579,1.4327,1.3799,1.4173,1.4351,1.4084,1.4519,1.4573,1.4378,1.4387,1.4181,1.3717,1.3725,1.3467,1.3073,1.314,1.2998,1.2781,1.2823,1.2583,1.2265,1.2132,1.2182,1.2305,1.212,1.2182,1.2313,1.2251,1.212,1.1996,1.212,1.2313,1.2428,1.2552,1.292,1.3338,1.3338,1.364,1.3881,1.3588,1.3528,1.3528,1.3363,1.3354,1.3407,1.345,1.3656,1.3802,1.3802,1.3881,1.3951,1.3987,1.3952,1.4001,1.407,1.4198,1.4127,1.3852,1.3609,1.3468,1.3468,1.3305,1.3221,1.3257,1.2783,1.2454,1.2289,1.1845,1.1428,1.0917,1.0631,1.0369,1.0082,1.0348,1.0629,1.0865,1.1122,1.1405,1.176,1.176,1.1945,1.2355,1.2414,1.2454,0.0,0.0,0.0,0.0,0.0,0.0,0.0,0.0,1.4975,1.4939,1.5109,1.5096,1.4441,1.4495,1.4358,1.3478,1.3575,1.3841,1.4245,1.3961,1.4046,1.5038,1.456,1.4276,1.4505,1.443,1.4354,1.4186,1.4285,1.4171,1.387,1.3899,1.4045,1.4289,1.4297,1.433,1.4338,1.4338,1.402,1.347,1.3569,1.3403,1.2871,1.2998,1.3065,1.299,1.2922,1.2702,1.2439,1.2039,1.1864,1.1926,1.1926,1.2182,1.256,1.2251,1.212,1.2182,1.2367,1.2498,1.2683,1.2805,1.2928,1.305,1.305,1.3103,1.3103,1.3103,1.3103,1.3103,1.3302,1.3363,1.3354,1.345,1.3571,1.3622,1.3622,1.358,1.3553,1.3761,1.3791,1.3835,1.4085,1.4318,1.4269,1.3865,1.3557,1.3349,1.3349,1.3238,1.3072,1.2856,1.243,1.2028,1.1667,1.1267,1.0962,1.0833,1.0781,1.058,1.0329,1.0644,1.0876,1.0876,1.1178,1.1392,1.1516,1.1516,1.1764,1.232,1.232,1.2389,1.4595,1.4261,1.4132,1.3606,1.3802,1.3808,0.0,0.0,1.2984,1.2588,1.2973,1.3411,1.3357,1.355,1.3637,1.329,1.2986,1.3049,1.3859,1.3433,1.3349,1.4222,1.4031,1.3871,1.4214,1.3844,1.3571,1.3442,1.3819,1.4033,1.4013,1.4345,1.4703,1.507,1.5087,1.5103,1.5081,1.5081,1.4706,1.3984,1.3838,1.3621,1.3274,1.3274,1.3199,1.2975,1.2679,1.2488,1.2298,1.2135,1.212,1.2243,1.2243,1.2367,1.256,1.2367,1.2305,1.2305,1.2621,1.2744,1.2805,1.292,1.3119,1.3241,1.3241,1.3346,1.345,1.345,1.345,1.345,1.345,1.345,1.345,1.3511,1.3776,1.4033,1.4033,1.4273,1.4466,1.4282,1.4249,1.418,1.4063,1.407,1.4121,1.4382,1.3844,1.3502,1.3502,1.2953,1.2591,1.257,1.1943,1.1334,1.0815,1.0302,0.9946,0.9765,0.9518,0.9369,0.9201,0.9462,0.9851,1.0449,1.0574,1.0912,1.1516,1.1516,1.1509,1.164,1.164,1.2219,1.2817,1.2968,0.0,0.0,1.3178,1.3238,1.3259,1.3072,1.2776,1.2571,1.256,1.259,1.2619,1.2904,1.3056,0.0,1.2911,1.3113,1.3673,1.3309,1.3208,1.3742,1.3277,1.2974,1.3235,1.3094,1.3009,1.3151,1.3377,1.3639,1.4048,1.422,1.4473,1.4825,1.4841,1.4844,1.4848,1.4848,1.4704,1.4418,1.4134,1.3899,1.3758,1.3553,1.3459,1.3302,1.2967,1.2813,1.2727,1.2461,1.2436,1.2498,1.2498,1.256,1.256,1.2498,1.2498,1.2498,1.2744,1.2867,1.2928,1.3111,1.3294,1.3407,1.3407,1.3459,1.3511,1.3511,1.3511,1.3511,1.3511,1.3511,1.3511,1.3511,1.3639,1.375,1.375,1.4067,1.429,1.419,1.4227,1.4292,1.4197,1.3726,1.3442,1.3631,1.3381,1.307,1.2696,1.2389,1.2074,1.1695,1.1038,1.0548,1.0238,1.0197,1.0,0.9756,0.9822,0.9697,0.9334,0.95,0.9681,0.9869,0.992,1.004,1.0345,1.0345,1.0534,1.0912,1.0912,1.1406,1.1824,0.0,0.0,1.2489,1.2278,1.2215,1.2926,1.2676,1.2258,1.2108,1.2014,1.1969,1.2037,1.2436,1.2755,1.2668,1.296,1.3209,1.3341,1.3174,1.3118,1.322,1.2713,1.2427,1.2575,1.2626,1.2773,1.3068,1.3332,1.3659,1.4085,1.4204,1.4379,1.4561,1.4569,1.4617,1.4792,1.4792,1.4736,1.4561,1.4379,1.4017,1.3615,1.3248,1.3036,1.3029,1.2826,1.2907,1.3158,1.291,1.2938,1.3124,1.3028,1.2989,1.2981,1.2885,1.2789,1.2621,1.2744,1.2867,1.2989,1.318,1.3285,1.339,1.3459,1.3459,1.3459,1.3511,1.3511,1.3511,1.3511,1.3511,1.3511,1.3511,1.3511,1.3511,1.3511,1.3733,1.393,1.393,1.3868,1.3797,1.3797,1.3129,1.2512,1.2336,1.2328,1.2143,1.1764,1.1578,1.1274,1.0773,1.0288,0.9983,0.9983,1.0117,1.0117,0.9868,1.0053,1.0047,0.967,0.9798,0.9804,0.967,0.9612,0.9612,0.9612,0.9548,0.9734,1.0238,1.0238,1.0604,0.0,0.0,1.106,1.106,1.0717,1.0419,1.0554,1.066,1.0629,1.0416,1.0873,1.137,1.1582,1.2172,1.2634,1.2751,1.2981,1.3003,1.2789,1.2862,1.2901,1.2555,1.2505,1.2505,0.0,1.2663,1.2889,1.306,1.3913,1.4308,1.4109,1.4434,1.4553,1.4569,1.4569,1.4808,1.5165,1.5165,1.499,1.4569,1.4561,1.3839,1.2398,1.1907,1.1682,1.1695,1.1833,1.2471,1.3281,1.3266,1.3772,1.4546,1.4196,1.4061,1.4021,1.368,1.3132,1.2621,1.2744,1.2805,1.2805,1.2989,1.2981,1.305,1.3241,1.3302,1.3302,1.3459,1.3511,1.3511,1.3511,1.3511,1.3511,1.3511,1.3511,1.3511,1.3511,1.3519,1.3528,1.3528,1.3025,1.2528,1.2528,1.202,1.1329,1.0667,1.0548,1.0667,1.1017,1.0471,1.0047,1.0047,0.9983,0.9983,0.9983,0.9983,0.9983,0.9983,0.9983,0.9983,0.9989,0.9983,0.9983,0.9989,0.9862,0.9804,0.9804,0.9612,0.9484,0.9548,0.9548,0.9856,0.0,0.0,1.0838,1.0803,1.0631,1.0644,1.1189,1.0913,1.0547,1.0676,1.0466,1.0376,1.0789,1.1271,1.1826,1.2451,1.2706,1.2873,1.3075,1.3158,1.291,1.2059,1.238,0.0,0.0,0.0,0.0,1.3485,1.3765,1.4042,1.4434,1.406,1.393,1.4082,1.3554,1.3402,1.3719,1.3591,1.3466,1.3557,1.3557,1.3293,1.2798,1.2589,1.256,1.2553,1.2398,1.2516,1.2729,1.2446,1.2512,1.2792,1.2687,1.2646,1.2632,1.2527,1.236,1.2241,1.2817,1.3035,1.3121,1.294,1.2989,1.3241,1.331,1.3354,1.3459,1.3511,1.3511,1.3511,1.3511,1.3511,1.3511,1.3511,1.3511,1.3381,1.2948,1.3075,1.2994,1.2305,1.2195,1.2153,1.1864,1.1274,1.0604,0.9919,0.9862,0.9856,0.9977,0.9792,0.967,0.967,0.967,0.9734,0.9862,0.9926,0.9983,0.9983,0.9983,0.9989,0.9862,0.9862,0.9862,0.9862,0.9926,0.9926,0.9926,0.9862,0.9862,0.9862,0.9734,0.9804,0.0,1.0403,1.0668,1.0366,1.0302,1.0398,1.0714,1.0538,1.0326,1.0254,1.0195,1.0202,1.0511,1.088,1.1473,1.2324,1.2482,1.2663,1.3109,1.3028,1.2655,1.1918,1.2142,1.2009,0.0,0.0,0.0,1.3048,1.3263,1.3444,1.3738,1.3499,1.328,1.3334,1.2979,1.2817,1.3081,1.3001,1.2975,1.3154,1.2896,1.2692,1.2698,1.2561,1.2519,1.2519,1.2376,1.2424,1.2644,1.238,1.2454,1.2674,1.2492,1.2453,1.2439,1.2335,1.2296,1.2342,1.2556,1.2953,1.3266,1.277,1.3225,1.3866,1.3477,1.3592,1.3834,1.3759,1.3613,1.3511,1.3511,1.3321,1.313,1.313,1.2948,1.2696,1.2258,1.2375,1.2342,1.1615,1.1502,1.1461,1.1192,1.0604,0.9983,0.9542,0.9484,0.9484,0.9484,0.9394,0.937,0.9472,0.9394,0.9439,0.9664,0.9862,0.9926,0.9983,0.9983,0.9989,0.9989,0.9989,0.9989,0.9989,0.9926,0.9926,0.9926,0.9728,0.9664,0.9664,0.9536,0.9542,0.969,1.0114,1.0497,0.9785,0.9737,0.9662,0.9245,0.9622,0.9906,0.9258,1.0064,1.0814,0.0,0.0,1.1533,1.2373,1.2291,1.2276,1.2729,1.2502,1.2174,0.0,0.0,0.0,0.0,0.0,0.0,1.1833,0.0,1.2718,1.2318,1.2654,1.2739,1.2612,1.2798,1.2956,1.3061,1.3325,1.3369,1.3356,1.255,1.2203,1.2215,1.1893,1.1755,1.1767,1.1935,1.2375,1.296,1.296,1.3294,1.3853,1.3569,1.3457,1.3343,1.3067,1.2883,1.2805,1.2119,1.2499,1.32,1.2526,1.3462,1.4712,1.3808,1.391,1.4247,1.4089,1.3755,1.338,1.338,1.2911,1.2451,1.2451,1.195,1.1454,1.1454,1.1454,1.1454,1.1392,1.0905,1.0421,1.0421,0.9919,0.9484,0.9484,0.9484,0.9484,0.9484,0.9238,0.9166,0.9436,0.9214,0.9216,0.9418,0.9646,0.9837,0.9945,0.997,1.004,1.0218,1.0231,1.0244,1.0244,0.9926,0.9804,0.9804,0.928,0.9017,0.9017,0.9017,0.9017,0.9587,0.981,0.9922,1.0084,0.9922,0.9731,0.9808,0.9792,0.976,0.9833,0.981,0.9833,0.0,0.0,0.0,1.1224,1.1038,0.0,1.1639,1.1517,0.0,0.0,0.0,1.1588,1.0321,1.0685,0.0,0.0,1.1884,1.2594,1.2743,1.2305,1.2154,1.2326,1.1752,1.1638,1.1753,1.1815,1.1832,1.1887,1.1865,1.1934,1.2018,1.1997,1.194,1.1946,1.2015,1.2123,1.2295,1.2295,1.2375,1.254,1.2383,1.2275,1.2184,1.203,1.1922,1.173,1.1778,1.2234,1.2893,1.2594,1.2966,1.339,1.3165,1.3136,1.3177,1.3167,1.2665,1.2167,1.2167,1.1746,1.1447,1.1578,1.1454,1.1205,1.071,1.0654,1.0598,0.9964,0.9786,0.9734,0.9734,0.9606,0.9484,0.9484,0.9484,0.9484,0.9484,0.9238,0.9156,0.9166,0.8938,0.8866,0.9118,0.937,0.9395,0.9137,0.9432,0.9497,0.911,0.9421,0.953,0.953,0.9594,0.9588,0.9588,0.946,0.939,0.939,0.9268,0.921,0.9351,0.985,1.0181,1.0161,1.0062,0.9853,0.9567,0.9297,0.9154,0.9178,0.9128,0.0,0.0,0.0,0.0,0.0,0.0,0.0,1.0963,1.0787,1.0434,0.0,1.0868,0.0,1.0365,1.0707,1.0882,0.0,1.118,1.1588,1.187,1.1696,1.1552,1.1632,1.1337,1.1214,1.1435,1.1332,1.1426,1.1567,1.1878,1.2032,1.2203,1.2289,1.2289,1.2289,0.0,1.2289,1.2203,1.2203,1.2123,1.2043,1.2043,1.1957,1.1871,1.1871,1.1699,1.1613,1.1946,1.2171,1.2419,1.2343,1.2916,1.3507,1.2997,1.3002,1.3085,1.2947,1.2494,1.1995,1.1995,1.1512,1.1096,1.1162,1.087,1.0483,1.0043,0.9953,0.9863,0.9426,0.9344,0.9414,0.9484,0.9484,0.9484,0.9484,0.9484,0.9484,0.9484,0.9238,0.907,0.8953,0.8657,0.8498,0.8504,0.8639,0.8657,0.8516,0.8714,0.8854,0.8825,0.9027,0.9225,0.9396,0.9332,0.9268,0.9268,0.9145,0.9081,0.9081,0.8952,0.8958,0.9274,1.0205,1.0878,1.0227,1.0202,1.0049,0.9044,0.8688,0.8456,0.8108,0.0,0.839,0.8253,0.0,0.951,0.9891,0.0,1.0098,1.037,0.9969,0.9829,1.028,1.0251,1.0401,1.0887,1.0891,1.0926,1.1037,1.0472,1.0302,1.0634,1.1032,1.1193,1.1109,1.1241,1.144,1.1699,1.1477,1.1646,1.2037,1.2283,1.2448,1.2448,1.2619,1.2705,1.2705,1.2705,1.2619,1.2448,1.2448,1.2283,1.2123,1.2123,1.2037,1.2037,1.2037,1.2037,1.2037,1.2283,1.2203,1.2043,1.2037,1.2954,1.3904,1.3003,1.3007,1.3306,1.2959,1.25,1.2175,1.2175,1.1567,1.0965,1.0929,1.0325,0.9684,0.9429,0.9439,0.9443,0.9421,0.9438,0.9444,0.9586,0.9586,0.9586,0.9521,0.9521,0.9521,0.9456,0.9217,0.8948,0.8719,0.8389,0.8111,0.7919,0.7925,0.7984,0.8032,0.8153,0.8391,0.883,0.8933,0.9051,0.939,0.9081,0.8958,0.8958,0.8641,0.8517,0.8517,0.8517,0.8517,1.0316,1.0725,1.1046,1.0975,1.0705,1.0248,0.9468,0.8845,0.0,0.0,0.0,0.7638,0.7765,0.8349,0.0,0.8637,0.0,0.0,0.0,0.0,0.8757,0.0,0.0,0.0,0.0,0.0,0.0,0.0,0.0,1.0315,1.1038,1.1362,1.1533,1.1541,1.1591,1.1699,1.1957,1.1912,1.1992,1.2363,1.2363,1.2448,1.2619,1.2705,1.2705,1.2705,1.2705,0.0,1.2619,1.2619,1.2619,1.2619,1.2619,1.2454,1.2363,1.2363,1.2203,1.2037,1.2283,1.2203,1.2037,1.2283,1.2369,1.2363,1.2242,1.2111,1.2064,1.1934,1.1419,1.0902,1.0902,1.049,1.0101,1.0047,0.9896,0.973,0.9561,0.9644,0.9771,0.9857,0.9982,1.0119,1.0194,1.0194,1.0057,0.9714,0.9645,0.9576,0.9215,0.8857,0.8646,0.8651,0.8005,0.7643,0.7951,0.8032,0.7979,0.786,0.8353,0.8507,0.8099,0.8408,0.8597,0.8705,0.8641,0.8576,0.8576,0.8517,0.8517,0.8517,0.8517,0.8517,1.0214,1.0446,1.0555,1.0598,1.0198,0.9753,0.9174,0.0,0.0,0.0,0.0,0.7137,0.7255,0.0,0.0,0.0,0.0,0.0,0.0,0.0,0.0,0.0,0.0,0.0,0.0,0.0,0.0,0.0,0.0,1.0745,1.1368,1.1545,1.1742,1.1866,1.1785,1.1866,1.2203,1.2037,1.2209,1.2534,1.2534,1.2619,1.2705,1.2705,1.2705,1.2705,1.2705,1.2705,1.2705,1.2705,1.2705,1.2705,1.2705,1.2619,1.2534,1.2534,1.2454,1.2369,1.2534,1.2369,1.2203,1.2363,1.2118,1.1871,1.1871,1.1699,1.1527,1.1527,1.1272,1.0926,1.0926,1.074,1.0444,1.041,1.01,0.9871,0.9829,0.9757,0.9712,0.9991,1.0124,1.0124,0.9985,0.9979,0.984,0.9416,0.9416,0.934,0.913,0.8837,0.8543,0.8297,0.8005,0.7759,0.7568,0.7677,0.7677,0.7617,0.7889,0.8016,0.7902,0.8075,0.826,0.8511,0.8517,0.8517,0.8517,0.8517,0.8517,0.8517,0.8517,0.8581,1.0125,1.0226,1.029,1.0023,0.9642,0.9167,0.8678,0.7939,0.0,0.0,0.7013,0.6777,0.6871,0.0,0.0,0.0,0.0,0.0,0.0,0.0,0.0,0.0,0.0,0.0,0.0,0.0,0.0,0.0,0.0,0.0,1.1784,1.1759,1.1871,1.2037,1.1952,1.2032,1.2448,1.2032,1.2026,1.2363,1.218,1.2095,1.2095,1.2095,1.2095,1.2095,1.2272,1.2363,1.2443,1.2619,1.2705,1.2705,1.2705,1.2705,1.2705,1.2705,1.2705,1.2705,1.2705,1.2619,1.2448,1.2448,1.2118,1.1785,1.1785,1.1613,1.144,1.144,1.144,1.1435,1.1435,1.1294,1.1131,1.0993,1.0519,1.0056,1.0236,1.0007,0.9867,1.0024,1.0154,1.0078,0.9794,0.9723,0.9575,0.9214,0.9138,0.9138,0.8995,0.8786,0.8498,0.8105,0.8108,0.7931,0.7389,0.7439,0.7552,0.7665,0.767,0.7746,0.8052,0.8058,0.821,0.8591,0.8596,0.8596,0.8662,0.8662,0.8662,0.8662,0.8662,0.8759,1.0907,1.106,1.0969,1.0079,0.9547,0.9089,0.824,0.0,0.0,0.0,0.6916,0.6594,0.6834,0.7375,0.0,0.0,0.0,0.0,0.0,0.0,0.0,0.0,0.0,0.0,0.0,0.0,0.0,0.0,0.0,0.0,1.231,1.2106,1.2123,1.2363,1.2363,1.2448,1.2705,1.1843,1.1413,1.1413,1.0534,1.0183,1.0183,1.0183,1.0183,1.0183,1.1058,1.1408,0.0,1.2357,1.2705,1.2705,1.2705,1.2705,1.2705,1.2705,1.2705,1.2705,1.2705,1.2705,1.2705,1.2705,1.2375,1.1957,1.1957,1.1957,1.1957,1.1957,1.1957,1.1871,1.1699,1.1682,1.1525,1.112,1.0772,1.0514,1.0304,1.0534,1.0588,1.0051,1.0226,1.0375,0.9932,0.9857,0.9782,0.9331,0.9261,0.918,0.8793,0.8718,0.8637,0.8413,0.8046,0.7947,0.817,0.8069,0.8102,0.8443,0.8458,0.8538,0.8558,0.8558,0.8638,0.8868,0.8868,0.8932,0.9141,0.9141,0.9141,0.9141,0.9141,0.9152,1.0132,1.0028,0.9941,0.9631,0.9057,0.85,0.8206,0.0,0.0,0.7354,0.7205,0.7142,0.7154,0.7517,0.7756,0.0,0.0,0.0,0.0,0.0,0.0,0.0,0.0,0.0,0.0,0.0,0.0,0.0,0.0,0.0,1.1101,1.1855,1.2369,1.2534,1.2448,1.2192,1.1843,1.1327,1.089,1.0448,1.0096,0.9923,0.9923,0.9923,0.9923,0.9923,1.0274,1.0448,0.0,1.088,1.1047,1.1047,1.1047,1.1402,1.1843,1.1843,1.2186,1.2705,1.2705,1.2705,1.2705,1.2705,1.2534,1.2375,1.2289,1.2123,1.2043,1.2043,1.2043,1.1957,1.1871,1.1871,1.1843,1.1657,1.1439,1.1232,1.1131,1.0874,1.0634,1.0379,1.0242,0.9992,0.962,0.9549,0.9392,0.9013,0.8937,0.8856,0.8703,0.8703,0.867,0.859,0.8471,0.835,0.8306,0.8359,0.8414,0.8574,0.8579,0.8579,0.8579,0.8579,0.872,0.8925,0.8925,0.8996,0.9206,0.9206,0.9206,0.9206,0.9206,0.9287,0.9354,0.9188,0.9147,0.8906,0.8439,0.8112,0.0,0.0,0.0,0.7437,0.7382,0.7294,0.7263,0.7529,0.7745,0.7599,0.0,0.8324,0.0,0.0,0.0,0.0,0.0,0.0,0.0,0.0,0.0,0.0,0.0,0.0,1.0124,1.1102,1.1752,1.1832,1.1746,1.1408,1.0885,1.0458,1.0019,0.9492,0.9231,0.9056,0.9056,0.9056,0.9056,0.9052,0.9401,0.9492,0.0,0.9749,0.9923,0.9923,0.9923,1.0269,1.0885,1.0885,1.1316,1.1832,1.1832,1.2009,1.2272,1.2272,1.2443,1.2705,1.2534,1.2369,1.2209,1.2209,1.2123,1.2123,1.2123,1.1895,1.1668,1.1668,1.1478,1.1194,1.1029,1.0743,1.0323,1.018,0.9882,0.9544,0.9094,0.9018,0.8941,0.8627,0.8627,0.8627,0.8699,0.8703,0.8703,0.8703,0.8721,0.8651,0.8428,0.8558,0.863,0.863,0.863,0.863,0.863,0.863,0.8774,0.899,0.899,0.9134,0.9416,0.9416,0.9416,0.9416,0.9416,0.9513,0.8918,0.8997,0.8941,0.7791,0.7791,0.8012,0.0,0.0,0.0,0.7641,0.7161,0.681,0.7032,0.731,0.7446,0.7308,0.8261,0.8759,0.8164,0.0,0.0,0.0,0.0,0.0,0.0,0.0,0.0,0.0,0.0,0.0,0.97,0.9814,0.9923,0.9923,0.9923,0.9923,0.9923,0.8973,0.854,0.8544,0.758,0.7139,0.7139,0.7139,0.7139,0.7139,0.8105,0.8544,0.0,0.9492,0.9923,0.9923,0.9923,0.9923,0.9923,0.9923,0.9923,0.9923,0.9923,1.0534,1.1327,1.1327,1.1929,1.2705,1.2705,1.2705,1.2705,1.2705,1.2534,1.2363,1.2363,1.1669,1.0988,1.0988,1.0486,0.9933,0.9785,0.9886,0.9818,0.9143,0.9175,0.9094,0.8479,0.8403,0.8403,0.8403,0.8403,0.8475,0.8703,0.8703,0.8703,0.8703,0.8699,0.8699,0.8694,0.8694,0.8694,0.8694,0.8694,0.8694,0.8694,0.8694,0.8851,0.9316,0.9316,0.9463,0.9911,0.9911,0.9911,0.9911,0.9911,0.9916,0.8458,0.8454,0.8421,0.8283,0.8088,0.7951,0.7877,0.0,0.0,0.7816,0.7454,0.7157,0.736,0.7503,0.7616,0.7477,0.8207,0.8709,0.0,0.0,0.0,0.0,0.0,0.0,0.0,0.0,0.0,0.0,0.0,0.0,0.8105,0.8033,0.8532,0.9836,0.9923,0.9579,0.8973,0.8627,0.8193,0.758,0.7228,0.7139,0.7139,0.7139,0.7139,0.7139,0.7404,0.758,0.7577,0.7837,0.8009,0.8009,0.8009,0.836,0.8973,0.8973,0.9318,0.9923,0.9923,1.0096,1.0361,1.0361,1.0534,1.0788,1.0788,1.166,1.2705,1.2705,1.2324,1.1937,1.1937,1.1327,1.0811,1.0811,1.0594,1.0444,1.0204,0.9989,0.9708,0.933,0.916,0.9004,0.8847,0.8691,0.8613,0.8769,0.8567,0.8479,0.8703,0.8703,0.8703,0.8703,0.8703,0.8703,0.8703,0.8703,0.8703,0.8703,0.8703,0.8703,0.8703,0.8703,0.8861,0.9099,0.9246,0.9397,0.9695,0.9846,0.9922,0.9922,0.9922,0.9922,0.0,0.8139,0.8222,0.8304,0.8151,0.0,0.0,0.0,0.0,0.0,0.0,0.7285,0.7457,0.7626,0.7721,0.7749,0.8438,0.8857,0.0,0.0,0.0,0.0,0.0,0.0,0.0,0.0,0.0,0.0,0.0,0.0,0.712,0.7066,0.7665,0.8794,0.8877,0.8532,0.8017,0.7929,0.7665,0.7139,0.7139,0.7139,0.7139,0.7139,0.7139,0.7139,0.7139,0.7139,0.0,0.7139,0.7139,0.7139,0.7139,0.7489,0.7929,0.7929,0.8364,0.8877,0.8877,0.9056,0.9405,0.9405,0.9575,0.9831,0.9657,1.0616,1.1729,1.2155,1.1763,1.1205,1.1282,1.0832,1.0327,1.0327,1.01,0.9879,0.98,0.9536,0.9233,0.876,0.8616,0.8484,0.848,0.8336,0.8421,0.8898,0.8728,0.8599,0.8822,0.8751,0.8703,0.8703,0.8703,0.8703,0.8703,0.8703,0.8703,0.8703,0.8703,0.8703,0.8703,0.8703,0.8627,0.8556,0.8784,0.878,0.8699,0.9236,0.9463,0.9463,0.9771,0.9614,0.0,0.0,0.0,0.0,0.0,0.0,0.0,0.0,0.0,0.0,0.0,0.0,0.0,0.763,0.7811,0.8047,0.888,0.9032,0.0,0.0,0.0,0.0,0.0,0.0,0.0,0.0,0.0,0.0,0.0,0.0,0.6702,0.698,0.7139,0.7139,0.7139,0.7139,0.7139,0.7139,0.7139,0.7139,0.7139,0.7139,0.7139,0.7139,0.7139,0.0,0.7139,0.7139,0.7139,0.7139,0.7139,0.7139,0.7139,0.7139,0.7139,0.7139,0.7139,0.7139,0.7139,0.7665,0.8368,0.8368,0.8973,0.9657,0.9213,0.9479,1.0058,1.1142,1.0883,1.0221,1.0508,1.0115,0.9625,0.9625,0.9164,0.8646,0.8646,0.866,0.8413,0.772,0.7601,0.7584,0.7593,0.7541,0.7867,0.8777,0.8765,0.8709,0.8788,0.8758,0.8703,0.8627,0.8703,0.8703,0.8703,0.8703,0.8703,0.8703,0.8703,0.8703,0.8703,0.8703,0.847,0.7859,0.8008,0.7774,0.7238,0.8165,0.8623,0.8623,0.9382,0.8841,0.7911,0.0,0.7719,0.7575,0.0,0.0,0.0,0.0,0.0,0.0,0.0,0.0,0.0,0.0,0.0,0.7904,0.8599,0.8727,0.0,0.0,0.0,0.0,0.0,0.0,0.0,0.0,0.0,0.0,0.0,0.6702,0.6702,0.698,0.7139,0.7139,0.7139,0.7139,0.7139,0.7139,0.7139,0.7139,0.7139,0.7139,0.7139,0.7139,0.7139,0.7139,0.7139,0.7139,0.7139,0.7139,0.7139,0.7139,0.7139,0.7139,0.7139,0.7139,0.7139,0.7139,0.7139,0.7228,0.7404,0.7404,0.7577,0.7837,0.8093,0.8694,0.9378,0.9238,0.9105,0.9041,0.9073,0.9044,0.9009,0.9096,0.8631,0.8234,0.8387,0.7944,0.7485,0.7118,0.7307,0.7491,0.7359,0.7285,0.7462,0.7793,0.7873,0.7752,0.7263,0.813,0.8475,0.7863,0.8322,0.8703,0.8703,0.8703,0.8703,0.8703,0.8703,0.8703,0.8703,0.8703,0.8623,0.847,0.8237,0.7851,0.7464,0.7693,0.777,0.777,0.7613,0.7302,0.8077,0.7878,0.7692,0.7804,0.784,0.7795,0.0,0.0,0.0,0.0,0.0,0.0,0.0,0.0,0.0,0.0,0.8293,0.0,0.0,0.0,0.0,0.0,0.0,0.0,0.0,0.0,0.0,0.0,0.0,0.6597,0.6597,0.6878,0.7044,0.7044,0.7105,0.7139,0.7139,0.7139,0.7139,0.7139,0.7139,0.7139,0.7139,0.7139,0.7139,0.7139,0.7139,0.7139,0.7139,0.7139,0.7139,0.7139,0.7139,0.7139,0.7139,0.7139,0.7139,0.7139,0.7139,0.7139,0.7139,0.7139,0.7054,0.6966,0.7048,0.7302,0.7629,0.7982,0.7746,0.7518,0.7604,0.7777,0.7878,0.804,0.7797,0.77,0.7781,0.7445,0.7037,0.6528,0.6685,0.6843,0.6737,0.6753,0.7017,0.7534,0.7663,0.7499,0.708,0.7601,0.7754,0.7207,0.7443,0.7621,0.7548,0.7548,0.7855,0.8623,0.8703,0.8551,0.8169,0.8169,0.7859,0.7165,0.6623,0.6538,0.6769,0.6696,0.6696,0.693,0.6612,0.6227,0.8216,0.7882,0.7693,0.8151,0.8101,0.7884,0.0,0.0,0.0,0.0,0.0,0.0,0.0,0.0,0.0,0.0,0.0,0.0,0.0,0.0,0.0,0.0,0.0,0.0,0.0,0.0,0.0,0.0,0.0,0.6471,0.6471,0.6742,0.6895,0.6895,0.7034,0.7109,0.7109,0.7129,0.7139,0.7139,0.7139,0.7139,0.7139,0.7139,0.7139,0.7139,0.0,0.0,0.7139,0.7139,0.7139,0.7139,0.7139,0.7139,0.7139,0.7051,0.7054,0.6962,0.6962,0.6962,0.6962,0.6962,0.6877,0.6618,0.6171,0.5902,0.5874,0.6797,0.6576,0.6111,0.6331,0.6619,0.694,0.694,0.7037,0.7134,0.7134,0.7069,0.6709,0.5895,0.5912,0.6031,0.5963,0.6163,0.6599,0.7362,0.7404,0.7296,0.7102,0.7015,0.6831,0.6507,0.6468,0.6391,0.624,0.6163,0.678,0.8237,0.8318,0.8012,0.7326,0.7249,0.663,0.5395,0.4693,0.4846,0.5693,0.5464,0.5467,0.5854,0.5767,0.5148,0.8216,0.7661,0.7208,0.7539,0.7588,0.7532,0.0,0.0,0.0,0.0,0.0,0.0,0.0,0.0,0.0,0.0,0.0,0.0,0.0,0.0,0.0,0.0,0.0,0.0,0.0,0.0,0.0,0.0,0.0,0.6471,0.6471,0.6637,0.6736,0.6736,0.6881,0.6959,0.6959,0.7082,0.7139,0.7139,0.7139,0.7139,0.7139,0.7139,0.7139,0.7139,0.0,0.7139,0.7139,0.7139,0.7139,0.7139,0.7139,0.7139,0.7054,0.6881,0.67,0.652,0.6346,0.626,0.6257,0.6432,0.6346,0.6171,0.5811,0.5636,0.5366,0.5171,0.5447,0.5881,0.586,0.6363,0.7022,0.7353,0.6954,0.6623,0.679,0.6378,0.5855,0.5518,0.5614,0.5708,0.5547,0.5641,0.5783,0.5852,0.6229,0.6182,0.5423,0.6232,0.6588,0.5581,0.6096,0.6391,0.624,0.6163,0.6318,0.6549,0.6549,0.6549,0.6395,0.6076,0.577,0.5544,0.4763,0.4455,0.4616,0.4229,0.4073,0.4151,0.3763,0.345,0.8488,0.8157,0.7742,0.7397,0.6928,0.0,0.0,0.0,0.0,0.0,0.0,0.0,0.0,0.0,0.0,0.0,0.0,0.0,0.0,0.0,0.0,0.0,0.0,0.0,0.0,0.0,0.0,0.0,0.0,0.6359,0.6359,0.6498,0.6413,0.5924,0.6053,0.5954,0.5447,0.5472,0.5827,0.634,0.634,0.6254,0.6077,0.6077,0.6441,0.7078,0.0,0.7078,0.7078,0.7078,0.7078,0.7078,0.6713,0.671,0.6887,0.67,0.6435,0.6257,0.6257,0.6257,0.6254,0.6343,0.6257,0.6083,0.5991,0.5727,0.5463,0.5196,0.5156,0.5205,0.5205,0.5686,0.6162,0.6334,0.621,0.6084,0.6168,0.5954,0.5644,0.546,0.5552,0.5644,0.546,0.5499,0.5529,0.5472,0.5698,0.5679,0.5213,0.566,0.5735,0.5187,0.5358,0.5392,0.5085,0.5085,0.5392,0.6163,0.5777,0.5544,0.5544,0.4688,0.4302,0.4457,0.3988,0.3754,0.3915,0.3606,0.353,0.3763,0.3059,0.2904,0.8675,0.8456,0.8043,0.0,0.0,0.0,0.0,0.0,0.0,0.0,0.0,0.0,0.0,0.0,0.0,0.0,0.0,0.0,0.0,0.0,0.0,0.0,0.0,0.0,0.0,0.0,0.0,0.0,0.0,0.6103,0.5712,0.5965,0.5781,0.4903,0.5091,0.4821,0.4161,0.4166,0.4515,0.523,0.544,0.5364,0.5008,0.4919,0.5371,0.6281,0.6281,0.6281,0.6281,0.6281,0.6281,0.6189,0.5735,0.6005,0.6634,0.6352,0.6174,0.6,0.6083,0.6169,0.626,0.626,0.6083,0.5905,0.5994,0.5819,0.5644,0.546,0.5107,0.4839,0.4839,0.5104,0.5371,0.5463,0.5552,0.5733,0.5733,0.5733,0.5644,0.5463,0.5555,0.5644,0.5463,0.5478,0.5497,0.5467,0.5447,0.5368,0.5368,0.5238,0.5079,0.495,0.477,0.4545,0.4157,0.4079,0.4543,0.5544,0.4924,0.4538,0.438,0.337,0.2981,0.3368,0.3056,0.2978,0.337,0.3137,0.3139,0.345,0.2824,0.2668,0.8561,0.7999,0.7317,0.0,0.0,0.0,0.0,0.0,0.0,0.0,0.0,0.0,0.0,0.0,0.0,0.0,0.0,0.0,0.0,0.0,0.0,0.0,0.0,0.0,0.0,0.0,0.0,0.0,0.5634,0.5631,0.4066,0.4698,0.4701,0.3919,0.4012,0.4061,0.398,0.4157,0.3992,0.3639,0.4694,0.4919,0.4378,0.3929,0.3749,0.3838,0.3838,0.3838,0.3838,0.3838,0.3838,0.3838,0.3838,0.4835,0.6385,0.5927,0.5752,0.5668,0.5213,0.5389,0.5746,0.5746,0.5649,0.546,0.5644,0.5552,0.546,0.5371,0.5371,0.5371,0.5371,0.5371,0.546,0.5644,0.5733,0.5733,0.5733,0.5733,0.5733,0.5644,0.5733,0.5733,0.5644,0.5727,0.5681,0.548,0.5447,0.5368,0.5368,0.517,0.4993,0.494,0.477,0.4545,0.4157,0.4079,0.4077,0.3997,0.353,0.3061,0.2666,0.2195,0.235,0.3132,0.2354,0.2357,0.3141,0.2746,0.2589,0.2588,0.2511,0.2511,0.8521,0.7856,0.709,0.0,0.0,0.0,0.0,0.0,0.0,0.0,0.0,0.0,0.0,0.0,0.0,0.0,0.0,0.0,0.0,0.0,0.0,0.0,0.0,0.0,0.0,0.0,0.0,0.0,0.3984,0.3669,0.3044,0.3279,0.3046,0.219,0.2211,0.1984,0.1509,0.1602,0.1455,0.0978,0.3043,0.3356,0.2068,0.2184,0.1933,0.1318,0.1336,0.1344,0.1344,0.1344,0.1344,0.1343,0.1342,0.2327,0.3764,0.3944,0.3765,0.3497,0.3678,0.3765,0.4125,0.5302,0.5662,0.557,0.566,0.5657,0.556,0.556,0.5557,0.5552,0.546,0.5463,0.5644,0.5644,0.5733,0.5733,0.5733,0.5733,0.5733,0.5733,0.5733,0.5733,0.5733,0.567,0.5518,0.5472,0.5447,0.5368,0.5368,0.5292,0.5224,0.5111,0.4846,0.4545,0.4157,0.4079,0.3843,0.3215,0.3141,0.3139,0.3136,0.243,0.2352,0.2901,0.2354,0.2276,0.2746,0.2589,0.2511,0.2511,0.2511,0.2511,0.8222,0.7613,0.6825,0.0,0.0,0.0,0.0,0.0,0.0,0.0,0.0,0.0,0.0,0.0,0.0,0.0,0.0,0.0,0.0,0.0,0.0,0.0,0.0,0.0,0.0,0.0,0.0,0.0,0.2577,0.2256,0.1701,0.2007,0.1695,0.0843,0.0843,0.0613,-0.0,0.0077,-0.0155,-0.0537,0.1357,0.1558,0.0167,0.0597,0.0517,-0.0,-0.0,-0.0,-0.0,-0.0,-0.0,-0.0,-0.0,0.0628,0.1524,0.1882,0.1792,0.1524,0.1882,0.1972,0.224,0.3499,0.4312,0.4853,0.4853,0.4848,0.4935,0.557,0.5657,0.5652,0.556,0.5557,0.5733,0.5733,0.5733,0.5733,0.5733,0.5733,0.5733,0.5733,0.5733,0.5733,0.5733,0.5486,0.5431,0.5521,0.5245,0.5099,0.548,0.5333,0.517,0.5254,0.5012,0.4649,0.433,0.425,0.3836,0.3175,0.3175,0.3161,0.3214,0.2588,0.2431,0.2668,0.2431,0.2353,0.2511,0.2511,0.2511,0.2511,0.2511,0.2511,0.7571,0.7146,0.0,0.0,0.0,0.0,0.0,0.0,0.0,0.0,0.0,0.0,0.0,0.0,0.0,0.0,0.0,0.0,0.0,0.0,0.0,0.0,0.0,0.0,0.0,0.0,0.0,0.0781,0.1718,0.1777,0.0076,0.0831,0.0896,0.0146,0.0073,0.0073,0.0073,-0.0,-0.0149,-0.051,-0.0075,-0.0233,-0.0895,-0.0666,-0.0421,-0.0,-0.0,-0.0,-0.0,-0.0,-0.0,-0.0,-0.0,-0.0,-0.0,-0.0,-0.0,-0.0,-0.0,-0.0,-0.0,-0.0,0.1344,0.2867,0.2867,0.2867,0.3227,0.5126,0.567,0.567,0.567,0.5657,0.5644,0.5644,0.5733,0.5733,0.5644,0.5644,0.5644,0.5644,0.5644,0.5644,0.5644,0.5282,0.5191,0.5644,0.475,0.4459,0.5539,0.5092,0.487,0.5371,0.5124,0.4873,0.4703,0.4448,0.4157,0.3906,0.3491,0.3054,0.2512,0.2511,0.2511,0.2511,0.2511,0.2511,0.2511,0.2511,0.2511,0.2511,0.2511,0.2511,0.7481,0.0,0.0,0.0,0.0,0.0,0.0,0.0,0.0,0.0,0.0,0.0,0.0,0.0,0.0,0.0,0.0,0.0,0.0,0.0,0.0,0.0,0.0,0.0,0.0,0.0,0.0,0.0298,-0.0,-0.0297,-0.0811,-0.0589,-0.0587,-0.0802,-0.0802,-0.0802,-0.0802,-0.0866,-0.0929,-0.1063,-0.0857,-0.0884,-0.1162,-0.1111,-0.1053,-0.0905,-0.0251,-0.0,-0.0,-0.0,-0.0,-0.0,-0.0,-0.0,-0.0,-0.0,-0.0,-0.0,-0.0,-0.0,-0.0,-0.0,0.0359,0.0628,-0.0807,-0.0717,0.0089,0.1342,0.2148,0.2683,0.2683,0.2681,0.3037,0.4656,0.5109,0.5018,0.4748,0.4746,0.4746,0.4746,0.4746,0.4746,0.4746,0.4567,0.4567,0.4656,0.4455,0.4446,0.4924,0.411,0.3608,0.3947,0.3215,0.26,0.2267,0.2265,0.2175,0.183,0.1829,0.2207,0.3141,0.2901,0.2747,0.2904,0.2904,0.2904,0.2904,0.2747,0.2746,0.2746,0.2746,0.2668,0.0,0.0,0.0,0.0,0.0,0.0,0.0,0.0,0.0,0.0,0.0,0.0,0.0,0.0,0.0,0.0,0.0,0.0,0.0,0.0,0.0,0.0,0.0,0.0,0.0,0.0,-0.0147,-0.0365,-0.0875,-0.1161,-0.1149,-0.1149,-0.1143,-0.1132,-0.1132,-0.1061,-0.0919,-0.0913,-0.0976,-0.0966,-0.1116,-0.1212,-0.1251,-0.1056,-0.116,-0.1269,-0.0406,-0.0,-0.0,-0.0,-0.0,-0.0,-0.0,-0.0,-0.0,-0.0,-0.0,-0.0086,-0.0785,-0.0964,-0.0964,-0.0613,-0.0525,-0.0702,-0.1944,-0.2037,-0.1595,-0.1072,-0.0447,-0.0,-0.0,-0.0,0.0536,0.2861,0.3489,0.3398,0.3218,0.3129,0.3129,0.3129,0.3129,0.3129,0.3129,0.2952,0.3041,0.3667,0.4119,0.43,0.4032,0.3542,0.316,0.2894,0.2254,0.1723,0.1465,0.1464,0.1373,0.1107,0.1192,0.1675,0.2582,0.2339,0.2178,0.2258,0.2258,0.2178,0.2097,0.1935,0.2097,0.2501,0.2501,0.2582,0.0,0.0,0.0,0.0,0.0,0.0,0.0,0.0,0.0,0.0,0.0,0.0,0.0,0.0,0.0,0.0,0.0,0.0,0.0,0.0,0.0,0.0,0.0,0.0,0.0,0.0,-0.0424,-0.1157,-0.1158,-0.1147,-0.1119,-0.1047,-0.1037,-0.1012,-0.1079,-0.0944,-0.0539,-0.0483,-0.0483,-0.0472,-0.1243,-0.1536,-0.1397,-0.0789,-0.081,-0.1134,-0.0697,-0.0476,-0.0566,-0.0324,-0.0246,-0.0251,-0.0084,-0.0167,-0.0335,-0.0252,-0.0168,-0.0336,-0.1853,-0.2445,-0.236,-0.1598,-0.1345,-0.135,-0.1378,-0.1819,-0.2176,-0.2224,-0.2148,-0.2149,-0.2242,-0.2243,-0.1613,0.0536,0.1161,0.125,0.1339,0.1339,0.1339,0.1339,0.1339,0.1339,0.125,0.0894,0.1073,0.2413,0.358,0.3853,0.2867,0.2953,0.2861,0.1966,0.1699,0.1522,0.1522,0.1253,0.1155,0.1047,0.1046,0.1036,0.0931,0.1094,0.1092,0.0924,0.0924,0.084,0.0588,0.0504,0.1008,0.1934,0.1934,0.2353,0.0,0.0,0.0,0.0,0.0,0.0,0.0,0.0,0.0,0.0,0.0,0.0,0.0,0.0,0.0,0.0,0.0,0.0,0.0,0.0,0.0,0.0,0.0,0.0,0.0,-0.0844,-0.0906,-0.1099,-0.1098,-0.1095,-0.1089,-0.0816,-0.061,-0.0607,-0.0944,-0.1079,-0.0944,-0.0407,-0.0136,-0.0135,-0.2509,-0.361,-0.3544,-0.1189,-0.0215,-0.0442,-0.2871,-0.4299,-0.4794,-0.2823,-0.1978,-0.1829,-0.0477,-0.1192,-0.2867,-0.2198,-0.1556,-0.1065,-0.142,-0.1768,-0.2023,-0.1854,-0.1768,-0.1769,-0.1691,-0.1778,-0.1956,-0.2087,-0.2101,-0.2109,-0.2145,-0.2243,-0.2063,-0.1524,-0.0537,0.0358,0.0806,0.0806,0.0806,0.0627,0.0627,0.0537,0.0358,0.0179,0.0269,0.0537,0.0806,0.1075,0.1163,0.0627,0.0269,0.0448,-0.0269,-0.0717,-0.0717,-0.0807,-0.0805,-0.0802,-0.0801,-0.08,-0.0796,0.0514,0.1176,0.1176,0.1176,0.1092,0.1008,0.0924,0.0924,0.1176,0.1176,0.1092,0.0,0.0,0.0,0.0,0.0,0.0,0.0,0.0,0.0,0.0,0.0,0.0,0.0,0.0,0.0,0.0,0.0,0.0,0.0,0.0,0.0,0.0,0.0,0.0,0.0,-0.0826,-0.089,-0.108,-0.0944,-0.0877,-0.1079,-0.0877,-0.0607,-0.027,-0.0472,-0.1213,-0.2631,-0.29,-0.2559,-0.1545,-0.3023,-0.4172,-0.4724,-0.2559,-0.134,-0.1145,-0.3422,-0.5084,-0.618,-0.5052,-0.4384,-0.3917,-0.3052,-0.2971,-0.3522,-0.43,-0.3836,-0.2792,-0.2992,-0.3172,-0.3338,-0.3174,-0.3092,-0.3097,-0.313,-0.2726,-0.233,-0.2496,-0.2172,-0.1746,-0.1785,-0.1794,-0.1794,-0.1794,-0.1436,-0.0987,-0.0718,-0.0718,-0.0718,-0.0987,-0.0987,-0.1076,-0.1345,-0.0987,-0.0628,-0.0537,-0.009,0.0179,-0.0,-0.0269,-0.0628,-0.0807,-0.1166,-0.1436,-0.1436,-0.1436,-0.1436,-0.1436,-0.1436,-0.1436,-0.1436,-0.0527,-0.0087,-0.0087,-0.0087,-0.0087,-0.0087,-0.0173,-0.0,0.0434,0.0434,0.0607,0.0,0.0,0.0,0.0,0.0,0.0,0.0,0.0,0.0,0.0,0.0,0.0,0.0,0.0,0.0,0.0,0.0,0.0,0.0,0.0,0.0,0.0,0.0,0.0,-0.0605,-0.0472,-0.0539,-0.0877,-0.0742,-0.0674,-0.0877,-0.1146,-0.1011,-0.0404,-0.0472,-0.1683,-0.4121,-0.555,-0.5403,-0.3754,-0.368,-0.4217,-0.5312,-0.4117,-0.3328,-0.2787,-0.3739,-0.488,-0.6282,-0.6605,-0.6359,-0.573,-0.5652,-0.4854,-0.3906,-0.5814,-0.5733,-0.4618,-0.4857,-0.4859,-0.4779,-0.4462,-0.4304,-0.4321,-0.4327,-0.3786,-0.3091,-0.3137,-0.2494,-0.1822,-0.1861,-0.1877,-0.1882,-0.1882,-0.2241,-0.2511,-0.2154,-0.2064,-0.2154,-0.2424,-0.2513,-0.2604,-0.2873,-0.2243,-0.1614,-0.1433,-0.0716,-0.0358,-0.0895,-0.0806,-0.0987,-0.1615,-0.1525,-0.1436,-0.1436,-0.1436,-0.1436,-0.1436,-0.1436,-0.1436,-0.1436,-0.1436,-0.1436,-0.1436,-0.1436,-0.1436,-0.1436,-0.1436,-0.0987,-0.0269,-0.0269,0.0179,0.0,0.0,0.0,0.0,0.0,0.0,0.0,0.0,0.0,0.0,0.0,0.0,0.0,0.0,0.0,0.0,0.0,0.0,0.0,0.0,0.0,0.0,0.0,0.0,-0.1006,-0.0472,-0.0067,-0.0135,-0.0674,-0.0742,-0.0202,-0.1347,-0.202,-0.1884,-0.2488,-0.2958,-0.3364,-0.4776,-0.5656,-0.6,-0.5582,-0.5302,-0.516,-0.5236,-0.5329,-0.5376,-0.5583,-0.5926,-0.6328,-0.6149,-0.6103,-0.6183,-0.5876,-0.5796,-0.5789,-0.541,-0.5326,-0.5312,-0.4696,-0.4382,-0.4226,-0.4146,-0.3988,-0.3912,-0.3925,-0.3771,-0.3712,-0.3653,-0.365,-0.3641,-0.3723,-0.3795,-0.3933,-0.3933,-0.4113,-0.3757,-0.1883,-0.1705,-0.1974,-0.2154,-0.2603,-0.2873,-0.2875,-0.2784,-0.2694,-0.2693,-0.2513,-0.2333,-0.2063,-0.1973,-0.1794,-0.1525,-0.1436,-0.1436,-0.1436,-0.1436,-0.1436,-0.1436,-0.1436,-0.1436,-0.1436,-0.1436,-0.1436,-0.1436,-0.1436,-0.1436,-0.1436,-0.1436,-0.1345,-0.1256,-0.1256,-0.1166,0.0,0.0,0.0,0.0,0.0,0.0,0.0,0.0,0.0,0.0,0.0,0.0,0.0,0.0,0.0,0.0,0.0,0.0,0.0,0.0,0.0,0.0,0.0,0.0,-0.0469,-0.0202,-0.0,-0.0,-0.1078,-0.1549,-0.1279,-0.222,-0.296,-0.3366,-0.3694,-0.4095,-0.4573,-0.5512,-0.6051,-0.6308,-0.6102,-0.583,-0.5554,-0.5617,-0.5495,-0.5333,-0.5969,-0.6248,-0.6281,-0.6511,-0.6641,-0.6637,-0.6486,-0.6335,-0.6261,-0.5873,-0.587,-0.5941,-0.5556,-0.5398,-0.5321,-0.5321,-0.524,-0.524,-0.524,-0.4846,-0.4479,-0.4506,-0.4283,-0.4046,-0.4052,-0.4224,-0.4289,-0.4289,-0.3935,-0.3401,-0.2598,-0.2598,-0.2688,-0.2423,-0.2694,-0.2875,-0.2875,-0.2875,-0.2875,-0.2875,-0.2875,-0.2784,-0.2424,-0.2244,-0.2064,-0.1705,-0.1525,-0.1436,-0.1436,-0.1436,-0.1436,-0.1436,-0.1436,-0.1436,-0.1436,-0.1436,-0.1436,-0.1436,-0.1436,-0.1436,-0.1436,-0.1436,-0.1436,-0.1436,-0.1436,-0.1436,0.0,0.0,0.0,0.0,0.0,0.0,0.0,0.0,0.0,0.0,0.0,0.0,0.0,0.0,0.0,0.0,0.0,0.0,0.0,0.0,0.0,0.0,0.0,0.0,-0.0603,-0.0539,-0.0472,-0.0269,-0.1279,-0.2153,-0.2693,-0.3094,-0.3632,-0.4445,-0.4561,-0.4891,-0.5641,-0.6113,-0.6304,-0.6148,-0.6148,-0.6017,-0.5822,-0.5683,-0.5352,-0.5043,-0.6025,-0.6309,-0.6266,-0.6889,-0.7022,-0.6861,-0.6788,-0.6563,-0.6338,-0.6338,-0.6338,-0.6338,-0.6338,-0.6338,-0.6338,-0.6338,-0.6338,-0.6338,-0.6338,-0.5867,-0.5338,-0.5354,-0.5002,-0.4711,-0.4791,-0.4906,-0.5001,-0.5001,-0.4559,-0.3848,-0.3136,-0.3136,-0.3135,-0.2693,-0.2784,-0.2875,-0.2875,-0.2875,-0.2875,-0.2875,-0.2875,-0.2784,-0.2424,-0.2334,-0.2064,-0.1705,-0.1525,-0.1436,-0.1436,-0.1436,-0.1436,-0.1436,-0.1436,-0.1436,-0.1436,-0.1436,-0.1436,-0.1436,-0.1436,-0.1436,-0.1436,-0.1436,-0.1436,-0.1436,-0.1436,-0.1436,0.0,0.0,0.0,0.0,0.0,0.0,0.0,0.0,0.0,0.0,0.0,0.0,0.0,0.0,0.0,0.0,0.0,0.0,0.0,0.0,0.0,0.0,0.0,-0.1201,-0.2008,-0.2087,-0.1817,-0.1076,-0.1143,-0.2017,-0.411,-0.377,-0.4033,-0.49,-0.5219,-0.5345,-0.5411,-0.5947,-0.6086,-0.5888,-0.5888,-0.5822,-0.5617,-0.5617,-0.5613,-0.5568,-0.6161,-0.6376,-0.6403,-0.6806,-0.6942,-0.6865,-0.649,-0.6338,-0.6338,-0.6338,-0.6338,-0.6338,-0.6338,-0.6338,-0.6338,-0.6338,-0.6338,-0.6338,-0.6338,-0.6261,-0.6261,-0.6268,-0.6398,-0.6536,-0.6542,-0.6751,-0.6962,-0.6962,-0.7143,-0.6343,-0.2957,-0.2423,-0.2603,-0.2873,-0.2875,-0.2875,-0.2875,-0.2875,-0.2875,-0.2875,-0.2875,-0.2694,-0.2244,-0.2243,-0.1974,-0.1436,-0.1436,-0.1436,-0.1436,-0.1436,-0.1436,-0.1436,-0.1436,-0.1436,-0.1436,-0.1436,-0.1436,-0.1436,-0.1436,-0.1436,-0.1436,-0.1436,-0.1436,-0.1436,-0.1436,-0.1436,0.0,0.0,0.0,0.0,0.0,0.0,0.0,0.0,0.0,0.0,0.0,0.0,0.0,0.0,0.0,0.0,0.0,0.0,0.0,0.0,0.0,0.0,0.0,-0.1644,-0.1539,-0.1951,-0.249,-0.3096,-0.2893,-0.3228,-0.4442,-0.4564,-0.4625,-0.4888,-0.5422,-0.5752,-0.5752,-0.5888,-0.5888,-0.5686,-0.5686,-0.562,-0.5488,-0.5488,-0.5488,-0.5502,-0.6058,-0.6354,-0.6403,-0.673,-0.6788,-0.6714,-0.6563,-0.6412,-0.6338,-0.6338,-0.6338,-0.6338,-0.6338,-0.6338,-0.6338,-0.6338,-0.6338,-0.6338,-0.6338,-0.6338,-0.6338,-0.6338,-0.6403,-0.6576,-0.6675,-0.6851,-0.6853,-0.6322,-0.6435,-0.608,-0.4378,-0.4202,-0.4472,-0.4654,-0.4654,-0.4654,-0.4654,-0.421,-0.3765,-0.3765,-0.332,-0.2694,-0.2243,-0.2243,-0.1974,-0.1436,-0.1436,-0.1436,-0.1436,-0.1436,-0.1436,-0.1436,-0.1436,-0.1436,-0.1436,-0.1436,-0.1436,-0.1436,-0.1436,-0.1436,-0.1436,-0.1436,-0.1436,-0.1436,-0.1436,-0.1436,0.0,0.0,0.0,0.0,0.0,0.0,0.0,0.0,0.0,0.0,0.0,0.0,0.0,0.0,0.0,0.0,0.0,0.0,0.0,0.0,0.0,0.0,0.0,-0.2025,-0.1539,-0.222,-0.3029,-0.377,-0.3766,0.0,-0.4634,-0.4891,-0.5084,-0.515,-0.562,-0.5888,-0.5822,-0.5822,-0.5686,-0.5554,-0.5554,-0.5491,-0.5428,-0.5428,-0.5428,-0.5498,-0.5931,-0.6128,-0.6246,-0.6589,-0.6629,-0.641,-0.6388,-0.6332,-0.619,-0.624,-0.6338,-0.6338,-0.6338,-0.6338,-0.6338,-0.6338,-0.6338,-0.6338,-0.6338,-0.6338,-0.6338,-0.6338,-0.6363,-0.6495,-0.6597,-0.6776,-0.6791,-0.631,-0.6343,-0.6343,-0.5891,-0.5625,-0.545,-0.563,-0.5719,-0.5719,-0.5719,-0.5186,-0.4743,-0.4743,-0.421,-0.3674,-0.3315,-0.3314,-0.3135,-0.2685,-0.2596,-0.2596,-0.2596,-0.2239,-0.1971,-0.1971,-0.1614,-0.1436,-0.1436,-0.1436,-0.1436,-0.1436,-0.1436,-0.1436,-0.1436,-0.1436,-0.1436,-0.1436,-0.1436,-0.1436,0.0,0.0,0.0,0.0,0.0,0.0,0.0,0.0,0.0,0.0,0.0,0.0,0.0,0.0,0.0,0.0,0.0,0.0,0.0,0.0,0.0,0.0,0.0,-0.2216,-0.2275,-0.3029,-0.3431,-0.309,-0.3685,-0.4281,-0.4815,-0.4815,-0.515,-0.5892,-0.5888,-0.5822,-0.5613,-0.5613,-0.5554,-0.5428,-0.5428,-0.5425,-0.5362,-0.5362,-0.5488,-0.5624,-0.5852,-0.592,-0.5935,-0.6235,-0.6309,-0.6111,-0.604,-0.6023,-0.604,-0.6193,-0.6247,-0.6247,-0.6247,-0.6247,-0.6247,-0.6247,-0.6251,-0.6254,-0.6254,-0.6257,-0.6338,-0.6338,-0.6438,-0.6544,-0.6551,-0.6695,-0.6956,-0.7099,-0.7132,-0.7136,-0.7415,-0.6432,-0.5536,-0.5719,-0.5808,-0.5808,-0.5808,-0.5719,-0.5719,-0.5719,-0.5719,-0.563,-0.5447,-0.5359,-0.5267,-0.4999,-0.4999,-0.4999,-0.4999,-0.3931,-0.3218,-0.3218,-0.215,-0.1524,-0.1435,-0.1435,-0.1436,-0.1436,-0.1436,-0.1436,-0.1436,-0.1436,-0.1436,-0.1436,-0.1436,-0.1436,0.5793,0.0,0.0,0.0,0.0,0.0,0.0,0.0,0.0,0.0,0.0,0.0,0.0,0.0,0.0,0.0,0.0,0.0,0.0,0.0,0.0,0.0,-0.1977,-0.2213,-0.3272,-0.309,-0.3355,0.0,-0.4483,-0.4815,-0.5348,-0.5286,-0.5359,-0.5561,-0.5561,-0.5752,-0.6203,-0.64,-0.6338,-0.5881,-0.6137,-0.5811,-0.4964,-0.509,-0.5223,-0.5289,-0.6129,-0.6089,-0.5578,-0.5983,-0.6093,-0.5878,-0.585,-0.5864,-0.5871,-0.5911,-0.5928,-0.5928,-0.5928,-0.5928,-0.5928,-0.5928,-0.6003,-0.6095,-0.6095,-0.6173,-0.6338,-0.6637,-0.6743,-0.688,-0.724,-0.7275,-0.722,-0.7372,-0.7152,-0.7017,-0.7394,-0.7238,-0.7054,-0.7404,-0.7672,-0.7764,-0.7764,-0.7231,-0.6697,-0.6697,-0.6163,-0.563,-0.5447,-0.5359,-0.5267,-0.4999,-0.4999,-0.4999,-0.4999,-0.473,-0.4465,-0.4465,-0.4196,-0.3575,-0.2773,-0.2685,-0.2327,-0.1436,-0.1436,-0.1436,-0.1436,-0.1436,-0.1436,-0.1436,-0.1436,-0.1436,0.0,0.0,0.0,0.0,0.0,0.0,0.4371,0.4197,0.3929,0.0,0.0,0.0,0.0,0.0,0.0,0.0,0.0,0.0,0.0,0.0,0.0,0.0,-0.2556,-0.2877,-0.3742,-0.3687,-0.3885,-0.4686,-0.4951,-0.5282,-0.5686,-0.5624,-0.5627,-0.5627,-0.569,-0.5947,-0.6527,-0.6924,-0.7055,-0.6924,-0.6789,-0.6264,-0.5484,-0.5289,-0.5156,-0.5153,-0.5749,-0.5818,-0.5442,-0.6162,-0.6102,-0.5623,-0.5688,-0.5715,-0.5722,-0.5854,-0.595,-0.595,-0.6018,-0.6015,-0.6015,-0.6015,-0.6078,-0.6166,-0.6303,-0.6468,-0.663,-0.6927,-0.7022,-0.7138,-0.7466,-0.7427,-0.7297,-0.729,-0.708,-0.6956,-0.7198,-0.732,-0.7599,-0.8101,-0.8292,-0.8472,-0.8568,-0.812,-0.7764,-0.7764,-0.7231,-0.6874,-0.6782,-0.6602,-0.6511,-0.6511,-0.6419,-0.6441,-0.6585,-0.614,-0.5869,-0.5869,-0.5243,-0.4595,-0.3846,-0.3755,-0.3489,-0.2774,-0.2864,-0.2685,-0.215,-0.1613,-0.1436,-0.1436,-0.1436,-0.1436,0.0,0.0,0.0,0.0,0.0,0.0,0.3327,0.3223,0.312,0.2313,0.0,0.0,0.0,0.0,0.0,0.0,0.0,0.0,0.0,0.0,0.0,0.0,-0.3474,-0.3771,-0.3946,-0.442,-0.4752,-0.4691,-0.5286,-0.5686,-0.5888,-0.5892,-0.5954,-0.602,-0.6145,-0.6465,-0.6976,-0.7381,-0.7772,-0.8091,-0.7442,-0.692,-0.6465,-0.5966,-0.5579,-0.5442,-0.5589,-0.5722,-0.5844,-0.6762,-0.649,-0.5509,-0.5712,-0.57,-0.5717,-0.5994,-0.6044,-0.6115,-0.6179,-0.625,-0.625,-0.625,-0.6261,-0.638,-0.676,-0.69,-0.6954,-0.721,-0.7334,-0.737,-0.7517,-0.7474,-0.7441,-0.7126,-0.708,-0.6961,-0.6868,-0.7083,-0.7393,-0.7967,-0.8097,-0.8292,-0.8476,-0.8568,-0.8568,-0.8564,-0.8568,-0.8568,-0.8564,-0.8292,-0.8292,-0.8476,-0.8292,-0.8351,-0.8689,-0.7779,-0.7138,-0.7141,-0.5957,-0.5096,-0.4741,-0.4825,-0.4736,-0.4559,-0.4821,-0.4463,-0.3396,-0.206,-0.1436,-0.1436,-0.1436,-0.1436,0.0,0.0,0.0,0.0,0.0,0.0,0.338,0.2857,0.2455,0.0,0.0,0.0,0.0,0.0,0.0,0.0,0.0,0.0,0.0,0.0,0.0,0.0,-0.347,-0.3898,-0.5011,-0.4688,-0.4619,-0.5226,-0.5488,-0.5749,-0.6148,-0.602,-0.6214,-0.692,-0.6793,-0.7312,-0.8533,-0.893,-0.8935,-0.8544,-0.8661,-0.8205,-0.7242,-0.7479,-0.7558,-0.7562,-0.8748,-0.8717,-0.8014,-0.843,-0.7469,-0.5892,-0.6573,-0.6589,-0.607,-0.5974,-0.5922,-0.5922,-0.5985,-0.5985,-0.5985,-0.5985,-0.6075,-0.6212,-0.6587,-0.6803,-0.7029,-0.774,-0.8174,-0.8408,-0.8444,-0.8227,-0.7897,-0.7605,-0.7323,-0.7046,-0.6795,-0.6841,-0.7107,-0.7393,-0.7763,-0.8028,-0.8204,-0.8116,-0.812,-0.8292,-0.812,-0.812,-0.8292,-0.8116,-0.794,-0.8032,-0.8032,-0.7955,-0.8074,-0.7982,-0.7893,-0.772,-0.7624,-0.7071,-0.5891,-0.5977,-0.562,-0.4648,-0.4821,-0.4907,-0.4641,-0.2506,-0.1436,-0.1436,-0.1436,-0.1436,0.0,0.0,0.0,0.3595,0.0,0.0,0.0,0.294,0.2592,0.1507,0.0,0.0,0.0,0.0,0.0,0.0,0.0,0.0,0.0,0.0,0.0,0.0,-0.4022,-0.4516,-0.5175,-0.4982,-0.5024,-0.5488,-0.5951,-0.628,-0.6284,-0.6605,-0.6994,-0.7316,-0.7637,-0.8221,-0.9128,-0.9524,-0.9716,-0.9646,-0.9442,-0.8986,-0.8382,-0.8302,-0.8283,-0.8393,-0.913,-0.9109,-0.8722,-0.9007,-0.8265,-0.7001,-0.6805,-0.647,-0.621,-0.6083,-0.6017,-0.6086,-0.6152,-0.6152,-0.6152,-0.6152,-0.6215,-0.6316,-0.6826,-0.7216,-0.7629,-0.8192,-0.8479,-0.8551,-0.8551,-0.8403,-0.82,-0.7827,-0.7608,-0.7381,-0.7138,-0.712,-0.7176,-0.7421,-0.7501,-0.7668,-0.8013,-0.794,-0.794,-0.8025,-0.794,-0.7944,-0.8028,-0.7856,-0.7768,-0.7856,-0.7768,-0.7801,-0.7971,-0.8068,-0.8154,-0.8158,-0.8065,-0.7663,-0.7051,-0.6959,-0.6694,-0.6248,-0.5977,-0.5797,-0.5706,-0.4018,-0.3218,-0.3218,-0.3218,-0.3218,0.0,0.0,0.0,0.0,0.0,0.3547,0.0,0.0,0.0,0.0621,0.0,0.0,0.0,0.0,0.0,0.0,0.0,0.0,0.0,0.0,0.0,0.0,-0.4626,-0.5111,-0.5293,-0.5484,-0.5609,-0.5771,-0.6429,-0.6742,-0.6573,-0.7205,-0.7668,-0.7842,-0.8478,-0.9018,-0.953,-0.9919,-1.0308,-1.0561,-1.0027,-0.9764,-0.9704,-0.9259,-0.914,-0.9254,-0.9303,-0.9363,-0.9454,-0.939,-0.9022,-0.8323,-0.7059,-0.6461,-0.6324,-0.6292,-0.6214,-0.628,-0.635,-0.642,-0.642,-0.6416,-0.6506,-0.6697,-0.7183,-0.7717,-0.8217,-0.8524,-0.8523,-0.8479,-0.8479,-0.8479,-0.8322,-0.794,-0.7857,-0.7756,-0.7426,-0.7407,-0.7405,-0.7532,-0.7328,-0.7314,-0.7738,-0.7764,-0.7764,-0.7856,-0.7764,-0.7764,-0.7856,-0.7591,-0.7503,-0.7764,-0.7591,-0.7553,-0.7862,-0.7967,-0.8057,-0.8234,-0.7959,-0.7721,-0.7771,-0.7591,-0.7595,-0.7856,-0.7316,-0.6868,-0.6684,-0.5885,-0.5354,-0.4999,-0.4999,-0.4999,0.0,0.0,0.0,0.0,0.362,0.0,0.0,0.0,0.0947,0.1444,0.0,0.0,0.0,0.0,0.0,0.0,0.0,0.0,0.0,0.0,0.0,-0.4823,-0.4908,-0.523,-0.6021,-0.6207,-0.6286,-0.6324,-0.6375,-0.667,-0.7094,-0.7089,-0.772,-0.9027,-0.9045,-0.9538,-1.0428,-1.0498,-1.0561,-1.0624,-1.0757,-1.0824,-1.0804,-1.1316,-1.1494,-1.154,-1.1939,-1.1972,-1.1662,-1.0509,-0.9876,-0.9441,-0.823,-0.7396,-0.6771,-0.6477,-0.635,-0.635,-0.642,-0.642,-0.6416,-0.6609,-0.6994,-0.7346,-0.7291,-0.7788,-0.8332,-0.8213,-0.8416,-0.8703,-0.8703,-0.8703,-0.8551,-0.8178,-0.8091,-0.7911,-0.7505,-0.7407,-0.7375,-0.739,-0.7341,-0.7314,-0.7478,-0.7323,-0.7231,-0.7503,-0.7323,-0.7319,-0.7503,-0.7323,-0.7143,-0.7231,-0.7143,-0.7149,-0.7255,-0.7439,-0.7439,-0.7255,-0.7439,-0.7432,-0.7231,-0.7415,-0.7595,-0.7856,-0.7852,-0.7764,-0.776,-0.7584,-0.6691,-0.4999,-0.4999,-0.4999,0.0,0.0,0.0,0.0,0.0,0.0,0.195,0.0,0.028,0.0,0.0,0.0,0.0,0.0,0.0,0.0,-0.3377,0.0,0.0,0.0,0.0,0.0,0.0,0.0,-0.5925,-0.6168,-0.6386,-0.6542,-0.6852,-0.7179,-0.7434,-0.7844,-0.8362,-0.889,-0.926,-0.97,-1.0301,-1.0301,-1.0474,-1.0815,-1.0935,-1.1169,-1.151,-1.1757,-1.1957,-1.2124,-1.2325,-1.2378,-1.2118,-1.1156,-1.0657,-1.0382,-0.9346,-0.8192,-0.7036,-0.6822,-0.6668,-0.6578,-0.6578,-0.6572,-0.6613,-0.6745,-0.7065,-0.7354,-0.7333,-0.7554,-0.7886,-0.8047,-0.8245,-0.8407,-0.867,-0.8703,-0.8655,-0.8476,-0.8418,-0.8312,-0.7987,-0.7883,-0.7846,-0.7762,-0.7558,-0.7454,-0.7357,-0.7264,-0.7143,-0.7234,-0.7143,-0.7143,-0.7234,-0.7143,-0.7139,-0.7139,-0.7139,-0.7139,-0.7139,-0.7231,-0.7323,-0.7323,-0.7415,-0.7415,-0.7139,-0.7326,-0.7503,-0.7408,-0.7764,-0.7856,-0.768,-0.7856,-0.7446,-0.648,-0.6653,-0.6691,0.058,0.0,0.0,0.0,0.0,0.0,0.0,0.0,0.0,0.0,0.0,0.0,0.0,0.0,0.0,0.0,0.0,-0.3863,0.0,0.0,0.0,0.0,0.0,0.0,0.0,-0.6463,-0.6657,-0.6832,-0.7313,-0.7613,-0.7769,-0.8344,-0.8718,-0.8734,-0.9266,-0.9706,-0.9993,-1.0074,-1.0374,-1.0875,-1.1035,-1.1376,-1.187,-1.1951,-1.2104,-1.2305,-1.2305,-1.2305,-1.2224,-1.1409,-1.1111,-1.1019,-1.0081,-0.8958,-0.7938,-0.7691,-0.7534,-0.7309,-0.7431,-0.7315,-0.714,-0.7025,-0.7138,-0.7292,-0.7176,-0.7333,-0.7573,-0.7722,-0.7956,-0.8143,-0.8435,-0.8585,-0.8679,-0.8663,-0.8622,-0.8526,-0.8417,-0.8367,-0.8203,-0.8037,-0.7777,-0.7502,-0.7377,-0.7191,-0.7129,-0.7088,-0.7115,-0.7139,-0.7139,-0.7139,-0.7139,-0.7139,-0.7139,-0.7139,-0.7139,-0.7139,-0.7143,-0.7415,-0.7415,-0.7323,-0.7139,-0.7323,-0.7323,-0.7139,-0.7496,-0.7588,-0.7415,-0.7588,-0.7614,-0.7497,-0.7748,-0.7785,0.0,0.0,0.0,-0.238,0.0,0.0,0.0,0.0,-0.1347,0.0,0.0,0.0,0.0,0.0,0.0,0.0,0.0,0.0,0.0,0.0,0.0,0.0,0.0,0.0,0.0,-0.7327,-0.7368,-0.7205,-0.7569,-0.79,-0.8152,-0.8193,-0.8533,-0.9134,-0.9196,-0.9392,-0.9693,-0.9973,-1.0274,-1.0645,-1.1142,-1.1577,-1.1877,-1.2164,-1.2291,-1.2305,-1.2305,-1.2305,-1.2224,-1.1409,-1.1111,-1.1037,-1.019,-0.9879,-0.9739,-0.9433,-0.9108,-0.8872,-0.9173,-0.8896,-0.8198,-0.7461,-0.733,-0.7396,-0.7016,-0.7154,-0.7446,-0.7117,-0.7526,-0.8116,-0.812,-0.8407,-0.8679,-0.8663,-0.8622,-0.8561,-0.8577,-0.845,-0.8288,-0.8288,-0.7947,-0.755,-0.7401,-0.7207,-0.7095,-0.6956,-0.7051,-0.7139,-0.7139,-0.7139,-0.7139,-0.7139,-0.7139,-0.7139,-0.7139,-0.7139,-0.7139,-0.7139,-0.7139,-0.7139,-0.7139,-0.7139,-0.7139,-0.7139,-0.7139,-0.7139,-0.7139,-0.7139,-0.7136,-0.7129,-0.7422,-0.7606,-0.2495,-0.2276,-0.2263,-0.2603,0.0,0.0,0.0,0.0,0.0,0.0,0.0,0.0,0.0,0.0,0.0,0.0,0.0,0.0,0.0,0.0,0.0,0.0,0.0,0.0,0.0,0.0,-0.7935,-0.8132,-0.806,-0.8207,-0.8599,-0.8593,-0.8692,-0.8951,-0.8958,-0.9192,-0.9679,-0.978,-1.0174,-1.0855,-1.1243,-1.1476,-1.159,-1.2078,-1.2198,-1.2031,-1.2218,-1.2305,-1.2305,-1.2003,-1.1855,-1.1855,-1.1626,-1.1471,-1.1378,-1.016,-0.9585,-0.9368,-0.9631,-0.9552,-0.9303,-0.8601,-0.8328,-0.8102,-0.7179,-0.6924,-0.6998,-0.6997,-0.7194,-0.7495,-0.797,-0.8182,-0.8335,-0.8586,-0.8647,-0.8581,-0.8603,-0.8558,-0.8475,-0.8475,-0.8206,-0.7939,-0.7658,-0.7539,-0.7321,-0.6936,-0.7052,-0.7118,-0.7129,-0.7139,-0.7139,-0.7139,-0.7139,-0.7139,-0.7139,-0.7139,-0.7139,-0.7139,-0.7139,-0.7139,-0.7139,-0.7139,-0.7139,-0.7139,-0.7048,-0.7,-0.7,-0.6898,-0.6797,-0.6698,-0.6812,-0.7035,-0.3825,-0.3533,-0.3219,-0.3317,-0.2737,-0.2068,-0.1855,0.0,-0.1992,0.0,0.0,0.0,0.0,0.0,0.0,0.0,0.0,0.0,0.0,-0.7366,0.0,0.0,0.0,0.0,0.0,0.0,-0.8431,-0.8471,-0.8519,-0.8644,0.0,-0.8804,-0.8804,-0.8804,-0.8911,-0.9138,-0.9519,-0.9733,-1.0174,-1.0842,-1.1136,-1.1323,-1.1443,-1.1931,-1.1984,-1.173,-1.2017,-1.2144,-1.2144,-1.2144,-1.2204,-1.2305,-1.2305,-1.2305,-1.215,-1.1174,-1.0695,-1.0507,-1.0295,-1.0299,-1.0247,-0.9151,-0.8778,-0.8467,-0.7197,-0.6745,-0.673,-0.6919,-0.7013,-0.7121,-0.7715,-0.7957,-0.8181,-0.8336,-0.8525,-0.8593,-0.8615,-0.8568,-0.8568,-0.8568,-0.8384,-0.8092,-0.7749,-0.7697,-0.7517,-0.7102,-0.7229,-0.7318,-0.7386,-0.7323,-0.7231,-0.7231,-0.7143,-0.7139,-0.7139,-0.7139,-0.7139,-0.7139,-0.7139,-0.7139,-0.7139,-0.7139,-0.7139,-0.7139,-0.7051,-0.7004,-0.7004,-0.6854,-0.6756,-0.6709,-0.6603,-0.6739]},{"header":{"parameterUnit":"m.s-1","parameterCategory":1,"la1":30.6,"la2":29.2853,"lo1":-89.7004,"lo2":-87.6739,"dy":0.0162,"dx":0.0183,"nx":112,"ny":82,"refTime":"2023-07-03T18:00:00:Z","depth":0,"parameterNumber":3,"parameterNumberName":"V-component_of_WINDS"},"data":[0.0,0.0,0.0,0.0,0.0,0.0,0.0,0.0,0.0,0.0,0.0,0.0,0.0,0.0,0.0,0.0,0.0,0.0,0.0,0.0,0.0,0.0,0.0,0.0,0.0,0.0,0.0,0.0,0.0,0.0,0.0,0.0,0.0,0.0,0.0,0.0,0.0,0.0,0.0,0.0,0.0,0.0,0.0,0.0,0.0,0.0,0.0,0.0,0.0,0.0,0.0,0.0,0.0,0.0,0.0,0.0,0.0,0.0,0.0,0.0,0.0,0.0,0.0,0.0,0.0,0.0,0.0,0.0,0.0,0.0,0.0,0.0,0.0,0.0,0.0,0.0,0.0,0.0,0.0,0.0,0.0,0.0,0.0,0.0,0.0,0.0,0.0,0.0,0.0,0.0,-1.5591,-1.5758,-1.5135,-1.4746,-1.4746,-1.4461,-1.4651,-1.5483,0.0,0.0,0.0,0.0,0.0,0.0,0.0,0.0,0.0,0.0,0.0,0.0,0.0,0.0,0.0,0.0,0.0,0.0,0.0,0.0,0.0,0.0,0.0,0.0,0.0,0.0,0.0,0.0,0.0,0.0,0.0,0.0,0.0,0.0,0.0,0.0,0.0,0.0,0.0,0.0,0.0,0.0,0.0,0.0,0.0,0.0,0.0,0.0,0.0,0.0,0.0,0.0,0.0,0.0,0.0,0.0,0.0,0.0,0.0,0.0,0.0,0.0,0.0,0.0,0.0,0.0,0.0,0.0,0.0,0.0,0.0,0.0,0.0,0.0,0.0,0.0,0.0,0.0,0.0,0.0,0.0,0.0,0.0,0.0,0.0,0.0,0.0,0.0,0.0,0.0,0.0,0.0,0.0,0.0,0.0,0.0,0.0,0.0,0.0,0.0,0.0,0.0,0.0,0.0,-1.6047,-1.486,-1.4552,-1.4461,-1.4461,-1.43,-1.4761,-1.6003,0.0,0.0,0.0,0.0,0.0,0.0,0.0,0.0,0.0,0.0,0.0,0.0,0.0,0.0,0.0,0.0,0.0,0.0,0.0,0.0,0.0,0.0,0.0,0.0,0.0,0.0,0.0,0.0,0.0,0.0,0.0,0.0,0.0,0.0,0.0,0.0,0.0,0.0,0.0,0.0,0.0,0.0,0.0,0.0,0.0,0.0,0.0,0.0,0.0,0.0,0.0,0.0,0.0,0.0,0.0,0.0,0.0,0.0,0.0,0.0,0.0,0.0,0.0,0.0,0.0,0.0,0.0,0.0,0.0,0.0,0.0,0.0,0.0,0.0,0.0,0.0,0.0,0.0,0.0,0.0,0.0,0.0,0.0,0.0,0.0,0.0,0.0,0.0,0.0,0.0,0.0,0.0,0.0,0.0,0.0,0.0,0.0,0.0,0.0,0.0,0.0,0.0,0.0,-1.6486,-1.6034,-1.4603,-1.4415,-1.4397,-1.4397,-1.43,-1.4802,-1.6126,-1.5869,0.0,0.0,0.0,0.0,0.0,0.0,0.0,0.0,0.0,0.0,0.0,0.0,0.0,0.0,0.0,0.0,0.0,0.0,0.0,0.0,0.0,0.0,0.0,0.0,0.0,0.0,0.0,0.0,0.0,0.0,0.0,0.0,0.0,0.0,0.0,0.0,0.0,0.0,0.0,0.0,0.0,0.0,0.0,0.0,0.0,0.0,0.0,0.0,0.0,0.0,0.0,0.0,0.0,0.0,0.0,0.0,0.0,0.0,0.0,0.0,0.0,0.0,0.0,0.0,0.0,0.0,0.0,0.0,0.0,0.0,0.0,0.0,0.0,0.0,0.0,0.0,0.0,0.0,0.0,0.0,0.0,0.0,0.0,0.0,0.0,0.0,0.0,0.0,0.0,0.0,0.0,0.0,0.0,0.0,0.0,0.0,0.0,0.0,0.0,0.0,0.0,0.0,-1.6152,-1.5565,-1.4511,-1.4397,-1.4397,-1.4397,-1.43,-1.4802,-1.6104,-1.6091,0.0,0.0,0.0,0.0,0.0,0.0,0.0,0.0,0.0,0.0,0.0,0.0,0.0,0.0,0.0,0.0,0.0,0.0,0.0,0.0,0.0,0.0,0.0,0.0,0.0,0.0,0.0,0.0,0.0,0.0,0.0,0.0,0.0,0.0,0.0,0.0,0.0,0.0,0.0,0.0,0.0,0.0,0.0,0.0,0.0,0.0,0.0,0.0,0.0,0.0,0.0,0.0,0.0,0.0,0.0,0.0,0.0,0.0,0.0,0.0,0.0,0.0,0.0,0.0,0.0,0.0,0.0,0.0,0.0,0.0,0.0,0.0,0.0,0.0,0.0,0.0,0.0,0.0,0.0,0.0,0.0,0.0,0.0,0.0,0.0,0.0,0.0,0.0,0.0,0.0,0.0,0.0,0.0,0.0,0.0,0.0,0.0,0.0,0.0,0.0,0.0,0.0,-1.525,-1.446,-1.4397,-1.4332,-1.43,-1.43,-1.4268,-1.4749,-1.6037,-1.5982,0.0,0.0,0.0,0.0,0.0,0.0,0.0,0.0,0.0,0.0,0.0,0.0,0.0,0.0,0.0,0.0,0.0,0.0,0.0,0.0,0.0,0.0,0.0,0.0,0.0,0.0,0.0,0.0,0.0,0.0,0.0,0.0,0.0,0.0,0.0,0.0,0.0,0.0,0.0,0.0,0.0,0.0,0.0,0.0,0.0,0.0,0.0,0.0,0.0,0.0,0.0,0.0,0.0,0.0,0.0,0.0,0.0,0.0,0.0,0.0,0.0,0.0,0.0,0.0,0.0,0.0,0.0,0.0,0.0,0.0,0.0,0.0,0.0,0.0,0.0,0.0,0.0,0.0,0.0,0.0,0.0,0.0,0.0,0.0,0.0,0.0,0.0,0.0,0.0,0.0,0.0,0.0,0.0,0.0,0.0,0.0,0.0,0.0,0.0,0.0,0.0,0.0,-1.6603,-1.6194,0.0,-1.5743,-1.5777,-1.5737,-1.5703,-1.6062,-1.684,0.0,0.0,0.0,0.0,0.0,0.0,0.0,0.0,0.0,0.0,0.0,0.0,0.0,0.0,0.0,0.0,0.0,0.0,0.0,0.0,0.0,0.0,0.0,0.0,0.0,0.0,0.0,0.0,0.0,0.0,0.0,0.0,0.0,0.0,0.0,0.0,0.0,0.0,0.0,0.0,0.0,0.0,0.0,0.0,0.0,0.0,0.0,0.0,0.0,0.0,0.0,0.0,0.0,0.0,0.0,0.0,0.0,0.0,0.0,0.0,0.0,0.0,0.0,0.0,0.0,0.0,0.0,0.0,0.0,0.0,0.0,0.0,0.0,0.0,0.0,0.0,0.0,0.0,0.0,0.0,0.0,0.0,0.0,0.0,0.0,0.0,0.0,0.0,0.0,0.0,0.0,0.0,0.0,0.0,0.0,0.0,0.0,0.0,0.0,0.0,0.0,0.0,-1.7346,-1.732,-1.712,0.0,-1.676,-1.6844,-1.6698,-1.6754,-1.6951,-1.7283,0.0,0.0,0.0,0.0,0.0,0.0,0.0,0.0,0.0,0.0,0.0,0.0,0.0,0.0,0.0,0.0,0.0,0.0,0.0,0.0,0.0,0.0,0.0,0.0,0.0,0.0,0.0,0.0,0.0,0.0,0.0,0.0,0.0,0.0,0.0,0.0,0.0,0.0,0.0,0.0,0.0,0.0,0.0,0.0,0.0,0.0,0.0,0.0,0.0,0.0,0.0,0.0,0.0,0.0,0.0,0.0,0.0,0.0,0.0,0.0,0.0,0.0,0.0,0.0,0.0,0.0,0.0,0.0,0.0,0.0,0.0,0.0,0.0,0.0,0.0,0.0,0.0,0.0,0.0,0.0,0.0,0.0,0.0,0.0,0.0,0.0,0.0,0.0,0.0,0.0,0.0,0.0,0.0,0.0,0.0,0.0,0.0,0.0,0.0,0.0,0.0,0.0,-1.7305,-1.7028,-1.6815,-1.6815,-1.7137,-1.7171,-1.685,-1.7055,-1.719,0.0,0.0,0.0,0.0,0.0,0.0,0.0,0.0,0.0,0.0,0.0,0.0,0.0,0.0,0.0,0.0,0.0,0.0,0.0,0.0,0.0,0.0,0.0,0.0,0.0,0.0,0.0,0.0,0.0,0.0,0.0,0.0,0.0,0.0,0.0,0.0,0.0,0.0,0.0,0.0,0.0,0.0,0.0,0.0,0.0,0.0,0.0,0.0,0.0,0.0,0.0,0.0,0.0,0.0,0.0,0.0,0.0,0.0,0.0,0.0,0.0,0.0,0.0,0.0,0.0,0.0,0.0,0.0,0.0,0.0,0.0,0.0,0.0,0.0,0.0,0.0,0.0,0.0,0.0,0.0,0.0,0.0,0.0,0.0,0.0,0.0,0.0,0.0,0.0,0.0,0.0,0.0,0.0,0.0,0.0,0.0,0.0,0.0,0.0,0.0,0.0,0.0,0.0,-1.8375,-1.8637,-1.8794,-1.8723,-1.85,-1.8302,-1.815,-1.7703,-1.7481,-1.7667,0.0,0.0,0.0,0.0,0.0,0.0,0.0,0.0,0.0,0.0,0.0,0.0,0.0,0.0,0.0,0.0,0.0,0.0,0.0,0.0,0.0,0.0,0.0,0.0,0.0,0.0,0.0,0.0,0.0,0.0,0.0,0.0,0.0,0.0,0.0,0.0,0.0,0.0,0.0,0.0,0.0,0.0,0.0,0.0,0.0,0.0,0.0,0.0,0.0,0.0,0.0,0.0,0.0,0.0,0.0,0.0,0.0,0.0,0.0,0.0,0.0,0.0,0.0,0.0,0.0,0.0,0.0,0.0,0.0,0.0,0.0,0.0,0.0,0.0,0.0,0.0,0.0,0.0,0.0,0.0,0.0,0.0,0.0,0.0,0.0,0.0,0.0,0.0,0.0,0.0,0.0,0.0,0.0,0.0,0.0,0.0,0.0,0.0,0.0,0.0,0.0,0.0,-1.8921,-1.9184,-1.9301,-1.9215,-1.8805,-1.848,-1.8347,-1.802,-1.7852,-1.8014,0.0,0.0,0.0,0.0,0.0,0.0,0.0,0.0,0.0,0.0,0.0,0.0,0.0,0.0,0.0,0.0,0.0,0.0,0.0,0.0,0.0,0.0,0.0,0.0,0.0,0.0,0.0,0.0,0.0,0.0,0.0,0.0,0.0,0.0,0.0,0.0,0.0,0.0,0.0,0.0,0.0,0.0,0.0,0.0,0.0,0.0,0.0,0.0,0.0,0.0,0.0,0.0,0.0,0.0,0.0,0.0,0.0,0.0,0.0,0.0,0.0,0.0,0.0,0.0,0.0,0.0,0.0,0.0,0.0,0.0,0.0,0.0,0.0,0.0,0.0,0.0,0.0,0.0,0.0,0.0,0.0,0.0,0.0,0.0,0.0,0.0,0.0,0.0,0.0,0.0,0.0,0.0,0.0,0.0,0.0,0.0,0.0,0.0,0.0,0.0,0.0,0.0,-1.9133,-1.8912,-1.8763,-1.8763,-1.8387,-1.8021,-1.7768,-1.7929,-1.8031,-1.8056,0.0,0.0,0.0,0.0,0.0,0.0,0.0,0.0,0.0,0.0,0.0,0.0,0.0,0.0,0.0,0.0,0.0,0.0,0.0,0.0,0.0,0.0,0.0,0.0,0.0,0.0,0.0,0.0,0.0,0.0,0.0,0.0,0.0,0.0,0.0,0.0,0.0,0.0,0.0,0.0,0.0,0.0,0.0,0.0,0.0,0.0,0.0,0.0,0.0,0.0,0.0,0.0,0.0,0.0,0.0,0.0,0.0,0.0,0.0,0.0,-1.5222,0.0,0.0,0.0,0.0,0.0,0.0,0.0,0.0,0.0,0.0,0.0,0.0,0.0,0.0,0.0,0.0,0.0,0.0,0.0,0.0,0.0,0.0,0.0,0.0,0.0,0.0,0.0,0.0,0.0,0.0,0.0,0.0,0.0,0.0,0.0,0.0,0.0,0.0,0.0,0.0,0.0,-1.8652,-1.8543,-1.8484,-1.8484,-1.7929,-1.7558,-1.7498,-1.6961,-1.6769,-1.7073,-1.7547,0.0,0.0,0.0,0.0,0.0,0.0,0.0,0.0,0.0,0.0,0.0,0.0,0.0,0.0,0.0,0.0,0.0,0.0,0.0,0.0,0.0,0.0,0.0,0.0,0.0,0.0,0.0,0.0,0.0,0.0,0.0,0.0,0.0,0.0,0.0,0.0,0.0,0.0,0.0,0.0,0.0,0.0,0.0,0.0,0.0,0.0,0.0,0.0,0.0,0.0,0.0,0.0,0.0,0.0,0.0,0.0,0.0,0.0,0.0,0.0,-1.5896,0.0,0.0,0.0,0.0,0.0,0.0,0.0,0.0,0.0,0.0,0.0,0.0,0.0,0.0,0.0,0.0,0.0,0.0,0.0,0.0,0.0,0.0,0.0,0.0,0.0,0.0,0.0,0.0,0.0,0.0,0.0,0.0,0.0,0.0,0.0,0.0,0.0,0.0,0.0,0.0,-1.9131,-1.8882,-1.8591,-1.8284,-1.7668,-1.7144,-1.6848,-1.6701,-1.678,-1.7057,-1.7602,0.0,0.0,0.0,0.0,0.0,0.0,0.0,0.0,0.0,0.0,0.0,0.0,0.0,0.0,0.0,0.0,0.0,0.0,0.0,0.0,0.0,0.0,0.0,0.0,0.0,0.0,0.0,0.0,0.0,0.0,0.0,0.0,0.0,0.0,0.0,0.0,0.0,0.0,0.0,0.0,0.0,0.0,0.0,0.0,0.0,0.0,0.0,0.0,0.0,0.0,0.0,0.0,0.0,-1.7513,-1.7654,-1.7777,-1.7852,-1.7573,-1.7109,-1.7334,-1.6788,-1.5845,-1.6699,0.0,0.0,0.0,0.0,0.0,0.0,0.0,0.0,0.0,0.0,0.0,0.0,0.0,0.0,0.0,0.0,0.0,0.0,0.0,0.0,0.0,0.0,0.0,0.0,-1.8871,-1.8543,-1.8612,0.0,0.0,0.0,0.0,0.0,0.0,0.0,0.0,0.0,0.0,0.0,-1.9502,-1.9122,-1.872,-1.8359,-1.7716,-1.718,-1.6932,-1.7236,-1.757,-1.7869,-1.8411,-1.8824,0.0,0.0,0.0,0.0,0.0,0.0,0.0,0.0,0.0,0.0,0.0,0.0,0.0,0.0,0.0,0.0,0.0,0.0,0.0,0.0,0.0,0.0,0.0,0.0,0.0,0.0,0.0,0.0,0.0,0.0,0.0,0.0,-1.4751,-1.3799,0.0,0.0,0.0,0.0,0.0,0.0,0.0,0.0,0.0,0.0,0.0,0.0,0.0,-1.8223,-1.768,-1.747,-1.7284,-1.7136,-1.6714,-1.6632,-1.686,-1.694,-1.6987,-1.702,-1.7165,0.0,-1.6906,-1.7335,0.0,0.0,0.0,0.0,0.0,0.0,0.0,0.0,0.0,0.0,0.0,0.0,0.0,0.0,0.0,0.0,0.0,0.0,0.0,0.0,0.0,0.0,-1.8435,-1.9111,-1.9152,-1.9174,0.0,-1.9427,-1.9043,-1.9058,-1.8585,0.0,0.0,0.0,0.0,0.0,0.0,0.0,-1.8385,-1.8265,-1.8466,-1.9069,-1.8484,-1.8514,-1.9672,-1.9137,-1.9052,-1.978,-1.9789,-1.9694,-1.946,-1.9443,0.0,0.0,0.0,0.0,0.0,0.0,0.0,0.0,0.0,0.0,0.0,0.0,0.0,0.0,0.0,0.0,0.0,0.0,0.0,0.0,0.0,0.0,0.0,0.0,0.0,0.0,0.0,0.0,0.0,-1.5243,-1.5307,-1.5088,-1.6116,-1.695,0.0,0.0,0.0,0.0,0.0,0.0,0.0,0.0,0.0,-1.8223,-1.8361,-1.822,-1.7801,-1.8071,-1.8263,-1.8318,-1.8155,-1.8189,-1.8323,-1.8402,-1.8428,-1.847,-1.8529,-1.8534,-1.8471,-1.7844,-1.8035,-1.8741,0.0,0.0,0.0,0.0,-1.9434,-1.9421,-1.8855,-1.8702,-1.8808,-1.9115,0.0,0.0,0.0,0.0,0.0,0.0,0.0,0.0,0.0,0.0,-1.9439,-1.998,-1.9976,-1.9953,-2.0193,-2.008,-1.9747,0.0,-1.8975,-1.8862,-1.954,0.0,0.0,0.0,0.0,-2.0965,-2.0774,-2.0881,-2.0826,-2.0416,-2.0115,-1.9861,-1.9702,-1.9675,-1.9731,-1.9892,-2.0163,-2.0269,-2.0101,-2.0314,-2.0498,0.0,0.0,0.0,0.0,0.0,0.0,0.0,0.0,0.0,0.0,0.0,0.0,0.0,0.0,0.0,0.0,0.0,0.0,0.0,0.0,0.0,0.0,0.0,0.0,0.0,0.0,0.0,0.0,-1.5814,-1.611,-1.5958,-1.7126,-1.8012,0.0,0.0,0.0,0.0,0.0,0.0,-1.9271,-1.8702,-1.8408,-1.8605,-1.8499,-1.8338,-1.8091,-1.8674,-1.9074,-1.9267,-1.9378,-1.9476,-1.952,-1.9557,-1.9557,-1.952,-1.9547,-1.9547,-1.947,-1.8501,-1.8416,-1.8903,-1.8975,-1.937,-1.9878,-1.9441,-1.9445,-1.9609,-1.9095,-1.907,-1.928,-1.9563,-1.964,-1.9632,-1.9722,0.0,0.0,0.0,0.0,-2.017,-2.0761,-2.072,-2.0605,-2.091,-2.1002,-2.0973,-2.0918,-2.0899,-2.0711,0.0,-1.9597,-1.9626,-2.0416,0.0,0.0,0.0,0.0,-2.2568,-2.2741,-2.2792,-2.2556,-2.1971,-2.1657,-2.1163,-2.0433,-2.0644,-2.0737,-2.0659,-2.1026,-2.1139,-2.0924,-2.1145,-2.1242,-2.1216,0.0,0.0,0.0,0.0,0.0,0.0,0.0,0.0,0.0,0.0,0.0,0.0,0.0,0.0,0.0,0.0,0.0,0.0,0.0,0.0,0.0,0.0,0.0,0.0,0.0,0.0,0.0,0.0,0.0,-1.5655,-1.712,0.0,0.0,0.0,0.0,-1.9874,-1.9258,-1.8994,-1.9287,-1.8718,-1.853,-1.8858,-1.8858,-1.8943,-1.9123,-1.9155,-1.92,-1.92,-1.9272,-1.9316,-1.9316,-1.9316,-1.9316,-1.9316,-1.9383,-1.9394,-1.9422,-1.947,-1.9932,-2.0588,-2.0577,-2.1023,-2.1569,-2.0788,-2.0471,-2.0319,-1.956,-1.9192,-1.9222,-1.9849,-2.0146,-2.0159,-1.9505,-1.9749,0.0,0.0,-2.0663,-2.0909,-2.1103,-2.1467,-2.1705,-2.1739,-2.203,-2.2298,-2.2298,-2.2254,-2.2009,0.0,-2.063,-2.069,-2.2352,0.0,-2.1711,-2.2181,-2.228,-2.2394,-2.2652,-2.2104,-2.2245,-2.3699,-2.2675,-2.2328,-2.3487,-2.284,-2.2617,-2.317,-2.3076,-2.2601,-2.1766,-2.176,-2.1596,-2.1216,-2.1345,0.0,0.0,0.0,0.0,0.0,0.0,0.0,0.0,0.0,0.0,0.0,0.0,0.0,0.0,0.0,0.0,0.0,0.0,0.0,0.0,0.0,0.0,0.0,0.0,0.0,0.0,0.0,0.0,-1.7944,-1.8588,0.0,-1.9138,-1.9016,-1.9155,-1.9574,-1.9122,-1.9061,-1.9578,-1.9104,-1.9079,-1.9658,-1.9631,-1.9736,-1.9971,-2.0367,-2.097,-2.1828,-2.1832,-2.2099,-2.2562,-2.2236,-2.2212,-2.2421,-2.2202,-2.24,-2.2885,-2.2931,-2.1737,-1.9937,-1.9882,-1.9991,-2.0148,-1.9857,-2.0013,-2.0345,-2.0056,-2.0192,-2.0566,-2.0823,-2.102,-2.1086,-2.0703,-2.0735,-2.0909,-2.0893,-2.0941,-2.1054,-2.1135,-2.1532,-2.1925,-2.1925,-2.2343,-2.2723,-2.2723,-2.2905,-2.3131,-2.3339,-2.2197,-2.16,-2.269,-2.2863,-2.3124,-2.385,-2.4183,-2.4594,-2.526,-2.4435,-2.4011,-2.4573,-2.3819,-2.3202,-2.3102,-2.2863,-2.2807,-2.3039,-2.3015,-2.288,-2.2716,-2.2746,-2.2632,-2.2348,-2.2442,-2.2743,0.0,0.0,0.0,0.0,0.0,0.0,0.0,0.0,0.0,0.0,0.0,0.0,0.0,0.0,0.0,0.0,0.0,0.0,0.0,0.0,0.0,0.0,0.0,0.0,0.0,0.0,-1.8593,-1.8967,-1.9371,-1.9617,-1.9681,-1.9569,-1.9577,-1.9776,-1.9405,-1.948,-2.021,-1.9711,-1.9863,-2.0858,-2.0603,-2.0747,-2.1451,-2.1631,-2.2324,-2.3563,-2.3519,-2.3849,-2.4428,-2.4054,-2.4058,-2.4284,-2.4083,-2.4257,-2.4765,-2.4795,-2.3396,-2.1251,-2.0832,-2.0578,-2.0388,-2.0114,-2.0342,-2.0766,-2.0766,-2.1045,-2.1419,-2.1464,-2.1495,-2.1511,-2.1356,-2.1277,-2.131,-2.1504,-2.1553,-2.1584,-2.1907,-2.2371,-2.2745,-2.2745,-2.3255,-2.3786,-2.3786,-2.4094,-2.4454,-2.4909,-2.387,-2.3149,-2.3983,-2.441,-2.483,-2.5497,-2.549,-2.5678,-2.6478,-2.531,-2.4493,-2.4798,-2.4173,-2.3536,-2.2928,-2.2919,-2.2927,-2.297,-2.297,-2.3045,-2.3193,-2.3241,-2.3364,-2.353,-2.3506,-2.3692,-2.4052,0.0,0.0,0.0,0.0,0.0,0.0,0.0,0.0,0.0,0.0,0.0,0.0,0.0,0.0,0.0,0.0,0.0,0.0,0.0,0.0,0.0,0.0,0.0,-1.7613,-1.9142,-1.9832,-1.8408,-1.9303,-1.9869,-1.9558,-2.012,-2.0527,-2.0527,-2.0146,-2.0273,-2.1071,-2.0572,-2.0938,-2.2378,-2.1762,-2.2086,-2.3531,-2.2899,-2.3079,-2.4081,-2.4129,-2.4288,-2.4601,-2.4567,-2.4567,-2.4601,-2.4709,-2.4787,-2.4804,-2.4863,-2.4893,-2.4778,-2.3684,-2.3,-2.2556,-2.1805,-2.1636,-2.1804,-2.1804,-2.176,-2.1716,-2.1716,-2.1591,-2.1482,-2.1405,-2.1327,-2.1456,-2.2313,-2.2459,-2.2571,-2.3489,-2.4,-2.4259,-2.4259,-2.4906,-2.554,-2.554,-2.5803,-2.6021,-2.6021,-2.5527,-2.5414,-2.6421,-2.6623,-2.6724,-2.6975,-2.5971,0.0,-2.6125,-2.4453,-2.3541,-2.4445,-2.3826,-2.33,-2.3228,-2.3228,-2.3186,-2.3095,-2.3095,-2.3144,-2.3193,-2.3193,-2.3618,-2.4544,-2.4363,-2.4191,-2.4025,0.0,0.0,0.0,0.0,0.0,0.0,0.0,0.0,0.0,0.0,0.0,0.0,0.0,0.0,0.0,0.0,0.0,0.0,0.0,0.0,0.0,0.0,-1.9125,-1.8399,-1.8797,-1.9239,-1.9353,-1.9788,-2.01,-2.0224,-2.0494,-2.0726,-2.0924,-2.0814,-2.1006,-2.1587,-2.1728,-2.2196,-2.3103,-2.3252,-2.3632,-2.4223,-2.4053,-2.4509,-2.5674,-2.5579,-2.5928,-2.667,-2.6312,-2.6394,-2.6713,-2.6483,-2.6682,-2.724,-2.7144,-2.6953,-2.6528,-2.4983,-2.4279,-2.4123,-2.399,-2.3994,-2.4093,-2.4093,-2.4093,-2.4064,-2.4064,-2.3875,-2.365,-2.3558,-2.3371,-2.326,-2.3667,-2.3717,-2.3718,-2.4233,-2.4775,-2.523,-2.523,-2.5832,-2.635,-2.635,-2.6624,-2.6872,-2.6872,-2.6926,-2.6871,-2.6639,-2.6954,-2.7276,-2.7341,-2.6191,0.0,-2.6318,-2.4506,-2.3628,-2.4936,-2.4383,-2.3944,-2.3936,-2.3877,-2.3606,-2.3055,-2.3045,-2.307,-2.3102,-2.3168,-2.3371,-2.3726,-2.3944,-2.4217,0.0,0.0,0.0,0.0,0.0,0.0,0.0,0.0,0.0,0.0,0.0,0.0,0.0,0.0,0.0,0.0,0.0,0.0,0.0,0.0,0.0,0.0,-1.8967,-1.9486,-1.9251,-1.9275,-1.9485,-2.0004,-2.017,-2.0466,-2.1017,-2.1185,-2.148,-2.2068,-2.2166,-2.2361,-2.2815,-2.3106,-2.3549,-2.4303,-2.4298,-2.4652,-2.5404,-2.513,-2.5613,-2.6812,-2.7096,-2.763,-2.8346,-2.839,-2.8539,-2.8853,-2.8599,-2.8576,-2.8701,-2.8663,-2.8291,0.0,0.0,0.0,0.0,0.0,-2.5027,-2.5056,-2.5112,-2.5084,-2.5056,-2.5056,-2.4856,-2.4654,-2.4624,-2.4458,-2.4387,-2.4862,-2.4915,-2.4917,-2.5442,-2.5836,-2.6097,-2.6064,-2.6502,-2.6923,-2.6923,-2.6908,-2.6918,-2.6918,-2.7039,0.0,-2.6588,-2.684,-2.7039,-2.6978,-2.5714,-2.4941,-2.5366,-2.4025,-2.3474,-2.4681,-2.4121,-2.3781,-2.413,-2.3816,0.0,0.0,0.0,-2.2995,-2.307,-2.3759,0.0,0.0,0.0,-2.513,-2.5027,-2.4948,0.0,0.0,-2.4076,-2.3789,0.0,0.0,0.0,0.0,0.0,0.0,0.0,0.0,0.0,0.0,0.0,0.0,0.0,0.0,0.0,0.0,-1.9234,-1.9628,-2.0128,-2.0335,-2.045,-2.0534,-2.0637,-2.1054,-2.2001,-2.2152,-2.2597,-2.3518,-2.3669,-2.3918,-2.4334,0.0,0.0,0.0,0.0,-2.5618,-2.7063,-2.6497,-2.6716,-2.7835,-2.8601,-2.9213,-2.9643,-3.0313,-3.0606,-3.0635,-3.0516,-3.0098,-2.9436,-2.9392,-2.8945,-2.8147,-2.6854,-2.6234,-2.6057,-2.5673,-2.5512,-2.5512,-2.5622,0.0,0.0,-2.5457,-2.5333,-2.5207,-2.5207,-2.5119,-2.5214,-2.5962,-2.6086,-2.6145,-2.683,-2.6954,-2.6873,-2.6825,-2.7122,-2.7382,-2.7382,-2.7135,-2.6895,-2.6778,-2.6714,-2.6638,-2.6551,-2.6563,-2.6545,-2.6375,-2.5205,-2.4284,-2.4185,-2.3553,-2.3458,-2.426,0.0,0.0,-2.4321,-2.3755,-2.3292,-2.3117,-2.303,-2.3028,-2.3102,-2.4617,-2.5128,-2.4448,-2.5941,-2.6349,-2.5605,-2.5535,-2.5526,-2.5482,-2.4827,-2.4249,0.0,0.0,0.0,0.0,0.0,0.0,0.0,0.0,0.0,0.0,0.0,0.0,0.0,0.0,0.0,-1.9767,-2.0463,-2.0989,-2.0861,-2.1698,-2.2118,-2.1459,-2.1752,-2.2327,-2.3137,-2.344,-2.3753,-2.4048,-2.3999,-2.4143,-2.4611,-2.5002,-2.5792,-2.7085,-2.7358,-2.8077,-2.9338,-2.9231,-2.9358,-2.9748,0.0,0.0,-3.0449,-3.061,-3.0779,-3.0884,-3.0114,-2.9764,-2.9656,-2.8865,-2.8389,-2.8136,-2.794,-2.7869,-2.7879,-2.7763,-2.7763,-2.7825,-2.7816,-2.7736,-2.7683,-2.7683,-2.7416,-2.7068,-2.7068,-2.6826,0.0,-2.7095,-2.713,-2.7195,-2.7612,-2.763,-2.7504,-2.7504,-2.8041,-2.8574,-2.8574,-2.9008,-2.9215,-2.8487,-2.8334,-2.8093,-2.7422,-2.7317,-2.73,-2.7252,-2.641,-2.5773,-2.5744,-2.512,-2.4975,-2.5704,-2.5897,-2.6018,-2.6176,-2.6207,-2.5697,-2.4516,-2.3871,-2.358,-2.3646,-2.4635,-2.5,-2.4641,-2.5649,-2.5986,-2.5605,-2.5605,-2.5535,-2.55,-2.5302,-2.5132,0.0,0.0,0.0,0.0,0.0,0.0,0.0,0.0,0.0,0.0,0.0,-1.9519,0.0,0.0,-2.0639,-2.0203,-2.0915,-2.1577,-2.1858,-2.2516,-2.2846,-2.2579,-2.303,-2.3653,-2.4431,-2.4645,-2.5006,-2.5652,-2.5637,-2.5979,-2.6792,-2.7082,-2.7716,-2.8877,-2.912,-2.9551,-3.0145,-3.0162,-3.0238,-3.0451,-3.0469,-3.0606,-3.0797,-3.0769,-3.0808,-3.0856,-3.0394,-3.0007,-2.9611,-2.8756,-2.8353,-2.83,-2.838,-2.8353,-2.8318,-2.8345,-2.838,-2.8432,-2.838,-2.8318,-2.8246,-2.8191,-2.8025,-2.7806,-2.7806,-2.7659,-2.7539,-2.7707,-2.7736,-2.7736,-2.7859,-2.7842,-2.7795,-2.773,-2.7999,-2.8298,-2.8298,-2.8303,-2.829,-2.8207,-2.7831,-2.7478,-2.7465,-2.7421,-2.7282,-2.6896,-2.6143,-2.5599,-2.5599,-2.5288,-2.5398,-2.6301,-2.6209,-2.6259,-2.681,-2.6603,-2.6126,-2.541,-2.5044,-2.4879,-2.4954,-2.5774,-2.6144,-2.6069,-2.685,-2.7198,-2.7046,-2.7046,-2.6986,-2.6801,-2.6774,-2.6259,0.0,0.0,0.0,0.0,0.0,0.0,0.0,0.0,-1.9872,-1.8614,-1.9425,-2.0124,-1.9515,-2.0321,-2.0989,-2.0754,-2.1411,-2.2258,-2.3019,-2.3466,-2.3846,-2.4182,-2.4473,-2.4978,-2.5768,-2.59,-2.6299,-2.7251,-2.7442,-2.7962,-2.8916,-2.914,-2.9611,-3.0468,-3.0486,-3.0557,-3.0747,-3.0747,-3.0764,-3.0796,-3.0838,-3.0825,-3.0882,-3.0808,-3.0779,-3.079,-3.0628,-3.0106,-2.9305,-2.8711,-2.8466,-2.844,-2.844,-2.8353,-2.8209,-2.8345,-2.838,-2.8353,-2.8273,-2.8237,-2.8154,-2.8099,-2.8042,-2.7986,-2.7986,-2.794,-2.794,-2.794,-2.794,-2.794,-2.7888,-2.7859,-2.7842,-2.773,-2.7824,-2.7929,-2.7929,-2.7537,-2.7332,-2.7752,-2.7213,-2.6861,-2.7348,-2.7359,-2.712,-2.6493,-2.5905,-2.5507,-2.5507,-2.5565,-2.5935,-2.6803,-2.6356,-2.6392,-2.732,-2.6705,-2.6303,-2.6315,-2.6188,-2.6186,-2.6222,-2.7022,-2.7434,-2.7434,-2.8197,-2.8554,-2.8504,-2.8504,-2.8402,-2.8166,-2.8166,-2.7344,-2.1039,-2.0462,-1.9451,-1.8988,-1.8652,-1.8159,0.0,0.0,-1.8804,-1.7168,-1.8788,-2.0166,-1.9164,-2.0473,-2.1718,-2.1795,-2.2836,-2.3785,-2.4248,-2.5397,-2.6342,-2.6747,-2.6251,-2.6226,-2.7016,-2.7317,-2.7519,-2.7713,-2.8333,-2.8772,-2.889,-2.9576,-3.0314,-3.1069,-3.1105,-3.1487,-3.234,-3.234,-3.2083,-3.1594,-3.1637,-3.1327,-3.0711,-3.0711,-3.0722,-3.0754,-3.0052,-2.9242,-2.8452,-2.8416,-2.838,-2.8327,-2.8327,-2.8273,-2.8209,-2.8273,-2.83,-2.83,-2.8182,-2.8126,-2.8099,-2.8025,-2.7975,-2.7917,-2.7917,-2.7824,-2.773,-2.773,-2.773,-2.773,-2.773,-2.773,-2.773,-2.7701,-2.8245,-2.8772,-2.8772,-2.9263,-2.9495,-2.8802,-2.8578,-2.8285,-2.76,-2.7465,-2.7417,-2.7192,-2.7317,-2.7379,-2.7379,-2.7621,-2.7788,-2.7905,-2.8136,-2.8408,-2.8735,-2.8113,-2.7702,-2.7767,-2.7066,-2.6643,-2.6722,-2.7479,-2.7819,-2.7579,-2.8471,-2.8803,-2.8504,-2.8504,-2.8485,-2.8453,-2.8453,-2.8103,-1.9832,-1.9593,0.0,0.0,-1.8908,-1.8818,-1.8588,-1.9289,-1.9673,-1.8377,-1.9067,-1.9954,-2.0097,-2.1161,-2.2276,0.0,-2.3904,-2.4793,-2.5446,-2.6121,-2.6784,-2.7412,-2.6924,-2.6898,-2.7747,-2.7922,-2.822,-2.8692,-2.9018,-2.9586,-3.0472,-3.0845,-3.1395,-3.2157,-3.2193,-3.2385,-3.277,-3.277,-3.2642,-3.2384,-3.1934,-3.1589,-3.1267,-3.0802,-3.0588,-3.0592,-2.9822,-2.9293,-2.8925,-2.8488,-2.8264,-2.8237,-2.8237,-2.8209,-2.8209,-2.8237,-2.8237,-2.8237,-2.8126,-2.8071,-2.8042,-2.7957,-2.7871,-2.7795,-2.7795,-2.7748,-2.7701,-2.7701,-2.7701,-2.7701,-2.7701,-2.7701,-2.7701,-2.7701,-2.7964,-2.8193,-2.8193,-2.8842,-2.9299,-2.8934,-2.8851,-2.8666,-2.832,-2.7987,-2.7713,-2.7642,-2.7742,-2.7869,-2.802,-2.8156,-2.8272,-2.841,-2.8755,-2.898,-2.9112,-2.8795,-2.8636,-2.8741,-2.8326,-2.8162,-2.8305,-2.86,-2.8725,-2.8661,-2.9015,-2.916,-2.9012,-2.9012,-2.8943,-2.8803,-2.8803,-2.859,-1.9874,0.0,0.0,-1.9323,-1.9273,-1.9359,-1.9621,-2.0384,-2.0706,-1.9472,-1.9896,-2.0627,-2.1061,-2.198,-2.301,-2.4078,-2.4895,-2.5646,-2.6324,-2.6713,-2.7045,-2.7408,-2.7108,-2.7112,-2.7753,-2.8029,-2.852,-2.9351,-2.9768,-3.0499,-3.1635,-3.1903,-3.2295,-3.2898,-3.2916,-3.3023,-3.3223,-3.3223,-3.3098,-3.2898,-3.2295,-3.1857,-3.15,-3.1211,-3.1088,-3.107,-3.0774,-3.0592,-3.0442,-2.9868,-2.9579,-2.9476,-2.9262,-2.9173,-2.9155,-2.8941,-2.8556,-2.8182,-2.8126,-2.8071,-2.8014,-2.7946,-2.7853,-2.776,-2.7748,-2.7748,-2.7748,-2.7701,-2.7701,-2.7701,-2.7701,-2.7701,-2.7701,-2.7701,-2.7701,-2.7701,-2.7701,-2.8157,-2.8561,-2.8561,-2.8592,-2.8604,-2.8604,-2.8315,-2.8102,-2.8201,-2.8183,-2.8264,-2.8402,-2.8478,-2.8621,-2.8814,-2.9052,-2.92,-2.92,-2.9175,-2.9175,-2.928,-2.9197,-2.9178,-2.9326,-2.9283,-2.9302,-2.9326,-2.9365,-2.9365,-2.9365,-2.9386,-2.9304,-2.9112,-2.9112,-2.8938,0.0,0.0,-2.0264,-2.0264,-1.9739,-1.919,-1.9138,-2.0587,-2.1435,-1.959,-2.1225,-2.2681,-2.1669,-2.2771,-2.414,-2.5025,-2.5893,-2.6514,-2.6662,-2.7427,-2.7667,-2.6924,-2.6817,-2.6817,0.0,-2.7627,-2.8447,-2.9333,-3.0706,-3.1578,-3.1689,-3.242,-3.288,-3.2916,-3.2916,-3.3259,-3.4062,-3.4062,-3.3669,-3.2916,-3.2898,-3.2211,-3.1075,-3.2059,-3.2537,-3.2573,-3.3416,-3.3579,-3.3288,-3.3252,-3.3046,-3.267,-3.1885,-3.1581,-3.1492,-3.0725,-2.9494,-2.8182,-2.8126,-2.8099,-2.8099,-2.8014,-2.7996,-2.7986,-2.7917,-2.7888,-2.7888,-2.7748,-2.7701,-2.7701,-2.7701,-2.7701,-2.7701,-2.7701,-2.7701,-2.7701,-2.7701,-2.7719,-2.7736,-2.7736,-2.7933,-2.8138,-2.8138,-2.8316,-2.8578,-2.8915,-2.898,-2.8915,-2.87,-2.8966,-2.9178,-2.9178,-2.92,-2.92,-2.92,-2.92,-2.92,-2.92,-2.92,-2.92,-2.9218,-2.92,-2.92,-2.9218,-2.9262,-2.9302,-2.9302,-2.9365,-2.9407,-2.9386,-2.9386,-2.9243,0.0,0.0,-2.0384,-2.0424,-1.9786,-1.9401,-2.0394,-2.0852,-2.1039,-2.0953,-2.1341,-2.1754,-2.1879,-2.273,-2.385,-2.511,-2.6051,-2.6838,-2.7412,-2.7741,-2.7685,-2.7085,-2.6854,0.0,0.0,0.0,0.0,-2.9935,-3.0558,-3.1355,-3.242,-3.2924,-3.3424,-3.3996,-3.4189,-3.4688,-3.5508,-3.495,-3.4852,-3.5089,-3.5089,-3.4856,-3.4458,-3.4825,-3.4982,-3.4963,-3.477,-3.4623,-3.4504,-3.3963,-3.3689,-3.3542,-3.3268,-3.3159,-3.3122,-3.2849,-3.2411,-3.1682,-2.9653,-2.8938,-2.8792,-2.823,-2.8014,-2.7917,-2.7906,-2.7842,-2.7748,-2.7701,-2.7701,-2.7701,-2.7701,-2.7701,-2.7701,-2.7701,-2.7701,-2.7742,-2.7926,-2.8362,-2.8678,-2.83,-2.873,-2.8981,-2.8466,-2.8621,-2.8938,-2.9222,-2.9262,-2.9243,-2.9181,-2.9265,-2.9326,-2.9326,-2.9326,-2.9304,-2.9262,-2.924,-2.92,-2.92,-2.92,-2.9218,-2.9262,-2.9262,-2.9262,-2.9262,-2.924,-2.924,-2.924,-2.9262,-2.9262,-2.9262,-2.9304,-2.9302,0.0,-2.1329,-2.0825,-2.0343,-2.0003,-1.9975,-2.0691,-2.1022,-2.1171,-2.1141,-2.1494,-2.1879,-2.2036,-2.2682,-2.3653,-2.5129,-2.5877,-2.6549,-2.7331,-2.778,-2.7931,-2.7574,-2.7433,-2.7619,0.0,0.0,0.0,-3.0553,-3.1247,-3.2061,-3.3166,-3.3622,-3.4149,-3.4736,-3.5182,-3.5698,-3.6185,-3.5964,-3.614,-3.6636,-3.6417,-3.6344,-3.6362,-3.674,-3.6878,-3.6878,-3.6721,-3.6601,-3.6464,-3.5955,-3.5661,-3.5542,-3.5275,-3.5165,-3.5128,-3.4833,-3.4723,-3.4375,-3.1874,-3.089,-3.0693,-3.0268,-2.988,-2.9566,-2.9402,-2.8983,-2.8521,-2.821,-2.7912,-2.7701,-2.7701,-2.7771,-2.784,-2.784,-2.7926,-2.802,-2.8192,-2.8631,-2.8901,-2.8569,-2.9014,-2.9282,-2.8779,-2.8938,-2.92,-2.9368,-2.9407,-2.9407,-2.9407,-2.9128,-2.9054,-2.937,-2.9128,-2.9052,-2.9307,-2.9262,-2.924,-2.92,-2.92,-2.9218,-2.9218,-2.9218,-2.9218,-2.9218,-2.924,-2.924,-2.924,-2.9286,-2.9307,-2.9307,-2.9349,-2.9368,-2.1512,-2.1445,-2.1522,-2.0174,-2.0414,-2.0838,-2.017,-2.1114,-2.1736,-2.0314,-2.1706,-2.2929,0.0,0.0,-2.3516,-2.4952,-2.5341,-2.5738,-2.6539,-2.7593,-2.8335,0.0,0.0,0.0,0.0,0.0,0.0,-3.1232,0.0,-3.357,-3.3844,-3.4532,-3.5,-3.5129,-3.5892,-3.6333,-3.6379,-3.7114,-3.7492,-3.7456,-3.6971,-3.6737,-3.6774,-3.772,-3.8152,-3.8189,-3.9037,-3.9248,-3.9017,-3.9017,-3.8884,-3.8584,-3.7794,-3.7482,-3.7419,-3.6646,-3.638,-3.6159,-3.4703,-3.3881,-3.3509,-3.3726,-3.3321,-3.266,-3.214,-3.1242,-3.0207,-2.9374,-2.8516,-2.7895,-2.7895,-2.8007,-2.8129,-2.8129,-2.8324,-2.8529,-2.8529,-2.8529,-2.8529,-2.8554,-2.8785,-2.9026,-2.9026,-2.9222,-2.9407,-2.9407,-2.9407,-2.9407,-2.9407,-2.8645,-2.8422,-2.9258,-2.857,-2.8364,-2.9202,-2.9251,-2.9188,-2.9089,-2.9163,-2.916,-2.9056,-2.9093,-2.913,-2.913,-2.924,-2.9302,-2.9302,-2.9431,-2.9492,-2.9492,-2.9492,-2.9492,-2.2049,-2.1651,-2.1277,-2.1503,-2.1277,-2.1107,-2.1523,-2.1487,-2.1416,-2.1576,-2.1651,-2.1576,0.0,0.0,0.0,-2.3664,-2.4504,0.0,-2.6928,-2.7976,0.0,0.0,0.0,-3.0385,-3.0405,-3.1478,0.0,0.0,-3.2651,-3.3241,-3.4541,-3.4989,-3.5806,-3.7108,-3.756,-3.8065,-3.8745,-3.895,-3.87,-3.7988,-3.8506,-3.873,-3.8704,-3.8936,-3.9055,-3.9074,-3.9298,-3.9346,-3.9293,-3.9293,-3.9248,-3.9175,-3.8979,-3.8931,-3.8939,-3.8742,-3.8693,-3.867,-3.8226,-3.6562,-3.4485,-3.3909,-3.3559,-3.335,-3.3208,-3.2925,-3.2614,-3.2386,-3.1347,-3.0305,-3.0305,-2.9442,-2.8511,-2.8478,-2.8529,-2.8628,-2.8837,-2.8879,-2.892,-2.9144,-2.9246,-2.9304,-2.9304,-2.9347,-2.9407,-2.9407,-2.9407,-2.9407,-2.9407,-2.8645,-2.8179,-2.8422,-2.7715,-2.7287,-2.7451,-2.8005,-2.8079,-2.7507,-2.8602,-2.9013,-2.846,-2.8996,-2.933,-2.933,-2.931,-2.9291,-2.9291,-2.9332,-2.9334,-2.9334,-2.9394,-2.9433,-2.1896,-2.2253,-2.2469,-2.179,-2.1578,-2.1373,-2.0752,-2.0639,-2.0682,-2.0735,-2.0992,0.0,0.0,0.0,0.0,0.0,0.0,0.0,-2.5985,-2.7385,-2.8668,0.0,-3.0691,0.0,-3.2139,-3.2953,-3.3491,0.0,-3.3414,-3.3894,-3.5221,-3.5732,-3.664,-3.8047,-3.8584,-3.9107,-3.9552,-3.9196,-3.8883,-3.874,-3.9156,-3.9354,-3.9301,-3.9275,-3.9275,-3.9275,0.0,-3.9275,-3.9301,-3.9301,-3.9346,-3.9391,-3.9391,-3.9418,-3.9444,-3.9444,-3.9495,-3.952,-3.938,-3.8308,-3.685,-3.6361,-3.5974,-3.5652,-3.5467,-3.5007,-3.4538,-3.4173,-3.3195,-3.2297,-3.2297,-3.1414,-3.0485,-3.0461,-3.0276,-3.0019,-2.9798,-2.9746,-2.9694,-2.9446,-2.9411,-2.9409,-2.9407,-2.9407,-2.9407,-2.9407,-2.9407,-2.9407,-2.9407,-2.8645,-2.8124,-2.8182,-2.7457,-2.6954,-2.6972,-2.7401,-2.7457,-2.701,-2.7848,-2.8296,-2.8202,-2.863,-2.9038,-2.9353,-2.9373,-2.9394,-2.9394,-2.9453,-2.9472,-2.9472,-2.9512,-2.9531,-2.1716,-2.3057,-2.4147,-2.1932,-2.1879,-2.1799,-1.9617,-1.9628,-1.992,-1.9219,0.0,-2.0898,-2.0174,0.0,-2.1485,-2.1957,0.0,-2.4082,-2.473,-2.6487,-2.8344,-3.0068,-3.1088,-3.2251,-3.3757,-3.4022,-3.4134,-3.4221,-3.4521,-3.5061,-3.5899,-3.6657,-3.7486,-3.8426,-3.9201,-3.9571,-3.9495,-3.8746,-3.8696,-3.9373,-3.9256,-3.9183,-3.9183,-3.9129,-3.9101,-3.9101,-3.9101,-3.9129,-3.9183,-3.9183,-3.9256,-3.9346,-3.9346,-3.9373,-3.9373,-3.9373,-3.9373,-3.9373,-3.9256,-3.9301,-3.9391,-3.9373,-3.8998,-3.8462,-3.8034,-3.7247,-3.6311,-3.5605,-3.4816,-3.4144,-3.4144,-3.3592,-3.3012,-3.29,-3.2501,-3.1923,-3.1082,-3.0874,-3.0648,-2.9878,-2.9709,-2.9727,-2.9723,-2.9723,-2.9723,-2.9744,-2.9744,-2.9744,-2.9764,-2.8795,-2.8164,-2.8297,-2.7438,-2.695,-2.717,-2.7189,-2.7171,-2.7117,-2.7305,-2.7661,-2.8221,-2.8332,-2.8705,-2.9334,-2.9472,-2.9531,-2.9531,-2.9645,-2.9701,-2.9701,-2.9701,-2.9701,-2.2901,-2.3809,-2.4521,-2.4082,-2.3625,-2.3017,-2.2037,-2.0964,0.0,0.0,0.0,-1.9515,-1.9339,-2.1062,0.0,-2.1788,0.0,0.0,0.0,0.0,-2.7773,0.0,0.0,0.0,0.0,0.0,0.0,0.0,0.0,-3.5972,-3.6676,-3.7455,-3.8321,-3.9277,-3.9446,-3.9495,-3.9418,-3.9268,-3.9223,-3.921,-3.921,-3.9183,-3.9129,-3.9101,-3.9101,-3.9101,-3.9101,0.0,-3.9129,-3.9129,-3.9129,-3.9129,-3.9129,-3.9202,-3.921,-3.921,-3.9301,-3.9373,-3.9256,-3.9301,-3.9373,-3.9256,-3.9229,-3.921,-3.9125,-3.9003,-3.8854,-3.873,-3.7642,-3.6512,-3.6512,-3.5413,-3.4102,-3.3384,-3.3144,-3.2847,-3.2021,-3.1792,-3.1712,-3.1502,-3.1421,-3.1377,-3.1374,-3.1374,-3.1418,-3.1526,-3.1547,-3.1568,-3.1614,-2.9663,-2.8278,-2.8297,-2.7023,-2.6437,-2.7059,-2.7117,-2.7153,-2.7187,-2.8427,-2.8952,-2.848,-2.9082,-2.9495,-2.9626,-2.9645,-2.9664,-2.9664,-2.9701,-2.9701,-2.9701,-2.9701,-2.9701,-2.3352,-2.4167,-2.4716,-2.4229,-2.3594,-2.2701,-2.1482,0.0,0.0,0.0,0.0,-2.0016,-1.9932,0.0,0.0,0.0,0.0,0.0,0.0,0.0,0.0,0.0,0.0,0.0,0.0,0.0,0.0,0.0,0.0,-3.6274,-3.7474,-3.8359,-3.9013,-3.9425,-3.9469,-3.9425,-3.9301,-3.9373,-3.932,-3.9156,-3.9156,-3.9129,-3.9101,-3.9101,-3.9101,-3.9101,-3.9101,-3.9101,-3.9101,-3.9101,-3.9101,-3.9101,-3.9101,-3.9129,-3.9156,-3.9156,-3.9202,-3.9229,-3.9156,-3.9229,-3.9301,-3.921,-3.9328,-3.9444,-3.9444,-3.9495,-3.9546,-3.9546,-3.8989,-3.8418,-3.8418,-3.7455,-3.6423,-3.6006,-3.4936,-3.3864,-3.3449,-3.2676,-3.2016,-3.193,-3.1868,-3.1868,-3.1912,-3.1893,-3.1936,-3.2044,-3.2044,-3.2045,-3.2106,-3.1073,-3.0039,-2.9175,-2.8385,-2.7744,-2.729,-2.7219,-2.7219,-2.7236,-2.7971,-2.8422,-2.8495,-2.8872,-2.9287,-2.9683,-2.9701,-2.9701,-2.9701,-2.9701,-2.9701,-2.9701,-2.9701,-2.9927,-2.371,-2.4536,-2.4996,-2.4198,-2.3277,-2.2269,-2.095,-1.99,0.0,0.0,-2.0659,-2.0552,-2.0685,0.0,0.0,0.0,0.0,0.0,0.0,0.0,0.0,0.0,0.0,0.0,0.0,0.0,0.0,0.0,0.0,0.0,-3.8245,-3.907,-3.9444,-3.9373,-3.9399,-3.9354,-3.9183,-3.9354,-3.9335,-3.921,-3.9227,-3.9253,-3.9253,-3.9253,-3.9253,-3.9253,-3.9219,-3.921,-3.9165,-3.9129,-3.9101,-3.9101,-3.9101,-3.9101,-3.9101,-3.9101,-3.9101,-3.9101,-3.9101,-3.9129,-3.9183,-3.9183,-3.9328,-3.9469,-3.9469,-3.952,-3.9571,-3.9571,-3.9571,-3.9552,-3.9552,-3.9064,-3.8501,-3.8338,-3.6686,-3.5071,-3.4836,-3.3783,-3.2786,-3.2534,-3.2452,-3.2456,-3.2542,-3.2564,-3.2587,-3.2671,-3.2672,-3.2672,-3.2712,-3.2789,-3.2279,-3.0787,-3.0261,-2.96,-2.8572,-2.8256,-2.8185,-2.8357,-2.8376,-2.8659,-2.9284,-2.9303,-2.9605,-3.0208,-3.0227,-3.0227,-3.0208,-3.0208,-3.0208,-3.0208,-3.0208,-3.0546,-2.4498,-2.5135,-2.5685,-2.5103,-2.378,-2.2638,-2.2795,0.0,0.0,0.0,-2.067,-1.9851,-2.0574,-2.2041,0.0,0.0,0.0,0.0,0.0,0.0,0.0,0.0,0.0,0.0,0.0,0.0,0.0,0.0,0.0,0.0,-3.9043,-3.929,-3.9346,-3.921,-3.921,-3.9183,-3.9101,-3.935,-3.9477,-3.9477,-3.966,-3.9731,-3.9731,-3.9731,-3.9731,-3.9731,-3.9537,-3.9458,0.0,-3.9192,-3.9101,-3.9101,-3.9101,-3.9101,-3.9101,-3.9101,-3.9101,-3.9101,-3.9101,-3.9101,-3.9101,-3.9101,-3.9248,-3.9418,-3.9418,-3.9418,-3.9418,-3.9418,-3.9418,-3.9444,-3.9495,-3.9439,-3.9221,-3.8464,-3.7568,-3.6667,-3.5935,-3.5562,-3.5179,-3.4483,-3.4248,-3.4203,-3.4355,-3.4376,-3.4398,-3.4523,-3.4562,-3.4563,-3.4623,-3.4643,-3.4321,-3.343,-3.1972,-3.1292,-3.188,-3.12,-3.105,-3.1788,-3.1845,-3.1864,-3.194,-3.194,-3.1959,-3.1977,-3.1977,-3.1938,-3.1879,-3.1879,-3.1879,-3.1879,-3.1879,-3.1917,-2.3303,-2.3624,-2.3999,-2.4293,-2.3595,-2.2887,-2.3014,0.0,0.0,-2.1821,-2.185,-2.1501,-2.0776,-2.2467,-2.352,0.0,0.0,0.0,0.0,0.0,0.0,0.0,0.0,0.0,0.0,0.0,0.0,0.0,0.0,0.0,-3.8713,-3.9081,-3.9229,-3.9156,-3.9183,-3.9264,-3.935,-3.9502,-3.9604,-3.9683,-3.9754,-3.9797,-3.9797,-3.9797,-3.9797,-3.9797,-3.9728,-3.9683,0.0,-3.9566,-3.95,-3.95,-3.95,-3.9439,-3.935,-3.935,-3.9245,-3.9101,-3.9101,-3.9101,-3.9101,-3.9101,-3.9156,-3.9248,-3.9275,-3.9346,-3.9391,-3.9391,-3.9391,-3.9418,-3.9444,-3.9444,-3.935,-3.9039,-3.8309,-3.7617,-3.728,-3.6419,-3.5614,-3.5323,-3.4854,-3.4561,-3.4687,-3.4727,-3.4749,-3.4849,-3.4869,-3.487,-3.4908,-3.4908,-3.4775,-3.4453,-3.3355,-3.258,-3.2409,-3.2033,-3.1958,-3.2279,-3.2298,-3.2298,-3.2298,-3.2298,-3.226,-3.2184,-3.2184,-3.2164,-3.2105,-3.2105,-3.2105,-3.2105,-3.2105,-3.2386,-2.2445,-2.2598,-2.2783,-2.3506,-2.3346,-2.3068,0.0,0.0,0.0,-2.2226,-2.2224,-2.18,-2.0799,-2.234,-2.3318,-2.2068,0.0,-2.6005,0.0,0.0,0.0,0.0,0.0,0.0,0.0,0.0,0.0,0.0,0.0,0.0,-3.8455,-3.9038,-3.9357,-3.9313,-3.9338,-3.9458,-3.9585,-3.9721,-3.9813,-3.9922,-3.9983,-4.0023,-4.0023,-4.0023,-4.0023,-4.0004,-3.9924,-3.9922,0.0,-3.984,-3.9797,-3.9797,-3.9797,-3.9709,-3.9585,-3.9585,-3.9464,-3.9313,-3.9313,-3.9279,-3.9219,-3.9219,-3.9165,-3.9101,-3.9156,-3.9229,-3.932,-3.932,-3.9346,-3.9346,-3.9346,-3.9212,-3.9076,-3.9076,-3.844,-3.7791,-3.7534,-3.656,-3.5706,-3.5503,-3.5039,-3.4708,-3.4849,-3.4868,-3.4888,-3.4927,-3.4927,-3.4927,-3.4889,-3.4908,-3.4908,-3.4908,-3.4339,-3.3753,-3.3185,-3.3091,-3.3072,-3.3072,-3.3072,-3.3072,-3.3072,-3.3072,-3.3034,-3.2976,-3.2976,-3.2937,-3.2837,-3.2837,-3.2837,-3.2837,-3.2837,-3.3175,-2.2496,-2.2696,-2.2697,-2.3117,-2.3117,-2.3269,0.0,0.0,0.0,-2.2838,-2.1248,-1.9778,-2.0569,-2.1382,-2.1935,-2.2001,-2.469,-2.6562,-2.5892,0.0,0.0,0.0,0.0,0.0,0.0,0.0,0.0,0.0,0.0,0.0,-3.8544,-3.9361,-3.9797,-3.9797,-3.9797,-3.9797,-3.9797,-4.0062,-4.0177,-4.0196,-4.0408,-4.0489,-4.0489,-4.0489,-4.0489,-4.0489,-4.0286,-4.0196,0.0,-3.9922,-3.9797,-3.9797,-3.9797,-3.9797,-3.9797,-3.9797,-3.9797,-3.9797,-3.9797,-3.966,-3.9502,-3.9502,-3.9324,-3.9101,-3.9101,-3.9101,-3.9101,-3.9101,-3.9156,-3.921,-3.921,-3.877,-3.8319,-3.8319,-3.7811,-3.7071,-3.6201,-3.5951,-3.5706,-3.5038,-3.4848,-3.4849,-3.4983,-3.5001,-3.5001,-3.5001,-3.5001,-3.4964,-3.4908,-3.4908,-3.4908,-3.4908,-3.4889,-3.4889,-3.487,-3.487,-3.487,-3.487,-3.487,-3.487,-3.487,-3.487,-3.4851,-3.4769,-3.4769,-3.471,-3.4564,-3.4564,-3.4564,-3.4564,-3.4564,-3.4583,-2.0934,-2.1461,-2.2082,-2.2758,-2.349,-2.4113,-2.4425,0.0,0.0,-2.3026,-2.2117,-2.1084,-2.0641,-2.1791,-2.2599,-2.2027,-2.4708,-2.6804,0.0,0.0,0.0,0.0,0.0,0.0,0.0,0.0,0.0,0.0,0.0,0.0,-3.8132,-3.9484,-4.0138,-3.9819,-3.9797,-3.9901,-4.0062,-4.0158,-4.0269,-4.0408,-4.0473,-4.0489,-4.0489,-4.0489,-4.0489,-4.0489,-4.0441,-4.0408,-4.0389,-4.0319,-4.0266,-4.0266,-4.0266,-4.0194,-4.0062,-4.0062,-3.9963,-3.9797,-3.9797,-3.9754,-3.9705,-3.9705,-3.966,-3.9571,-3.9571,-3.9364,-3.9101,-3.9101,-3.8792,-3.8443,-3.8443,-3.7935,-3.7394,-3.7394,-3.7253,-3.7032,-3.6795,-3.6327,-3.5918,-3.5756,-3.5739,-3.5779,-3.5818,-3.5856,-3.5875,-3.5837,-3.5344,-3.4983,-3.4908,-3.4908,-3.4908,-3.4908,-3.4908,-3.4908,-3.4908,-3.4908,-3.4908,-3.4908,-3.4908,-3.4908,-3.4908,-3.4908,-3.4888,-3.4868,-3.4809,-3.4768,-3.4666,-3.4623,-3.4602,-3.4602,-3.4602,-3.4602,0.0,-2.0662,-2.1279,-2.2209,-2.3179,0.0,0.0,0.0,0.0,0.0,0.0,-2.1309,-2.0627,-2.1686,-2.2584,-2.2347,-2.4857,-2.6859,0.0,0.0,0.0,0.0,0.0,0.0,0.0,0.0,0.0,0.0,0.0,0.0,-3.7951,-3.9569,-4.0372,-4.0082,-4.0043,-4.0138,-4.0304,-4.0321,-4.0372,-4.0489,-4.0489,-4.0489,-4.0489,-4.0489,-4.0489,-4.0489,-4.0489,-4.0489,0.0,-4.0489,-4.0489,-4.0489,-4.0489,-4.0406,-4.0321,-4.0321,-4.0213,-4.0043,-4.0043,-4.0023,-3.9943,-3.9943,-3.9882,-3.98,-3.9842,-3.9618,-3.9282,-3.8846,-3.8476,-3.8134,-3.7785,-3.7164,-3.6618,-3.6618,-3.6418,-3.6236,-3.6257,-3.5903,-3.57,-3.6141,-3.6236,-3.6387,-3.6729,-3.6842,-3.6843,-3.671,-3.6008,-3.5477,-3.5382,-3.5097,-3.4908,-3.4908,-3.4908,-3.4908,-3.4908,-3.4908,-3.4908,-3.4908,-3.4908,-3.4908,-3.4908,-3.4908,-3.4927,-3.4964,-3.4908,-3.4889,-3.4889,-3.4771,-3.471,-3.471,-3.4645,-3.4668,0.0,0.0,0.0,0.0,0.0,0.0,0.0,0.0,0.0,0.0,0.0,0.0,0.0,-2.125,-2.2056,-2.2884,-2.5076,-2.68,0.0,0.0,0.0,0.0,0.0,0.0,0.0,0.0,0.0,0.0,0.0,0.0,-3.8007,-3.9585,-4.0489,-4.0489,-4.0489,-4.0489,-4.0489,-4.0489,-4.0489,-4.0489,-4.0489,-4.0489,-4.0489,-4.0489,-4.0489,0.0,-4.0489,-4.0489,-4.0489,-4.0489,-4.0489,-4.0489,-4.0489,-4.0489,-4.0489,-4.0489,-4.0489,-4.0489,-4.0489,-4.0372,-4.0233,-4.0233,-4.0062,-3.9842,-3.9907,-3.9865,-3.9602,-3.8539,-3.8268,-3.8146,-3.7257,-3.6475,-3.592,-3.592,-3.5436,-3.5003,-3.5003,-3.5059,-3.5381,-3.6317,-3.6542,-3.6865,-3.774,-3.791,-3.7823,-3.7643,-3.6863,-3.6274,-3.6255,-3.5458,-3.4908,-3.4927,-3.4908,-3.4908,-3.4908,-3.4908,-3.4908,-3.4908,-3.4908,-3.4908,-3.4908,-3.4908,-3.4945,-3.5088,-3.5034,-3.5066,-3.5181,-3.5018,-3.4908,-3.4908,-3.4711,-3.4813,-1.9217,0.0,-2.0509,-2.0813,0.0,0.0,0.0,0.0,0.0,0.0,0.0,0.0,0.0,0.0,0.0,-2.2955,-2.5153,-2.686,0.0,0.0,0.0,0.0,0.0,0.0,0.0,0.0,0.0,0.0,0.0,-3.8007,-3.8007,-3.9585,-4.0489,-4.0489,-4.0489,-4.0489,-4.0489,-4.0489,-4.0489,-4.0489,-4.0489,-4.0489,-4.0489,-4.0489,-4.0489,-4.0489,-4.0489,-4.0489,-4.0489,-4.0489,-4.0489,-4.0489,-4.0489,-4.0489,-4.0489,-4.0489,-4.0489,-4.0489,-4.0489,-4.0473,-4.0441,-4.0441,-4.0389,-4.0319,-4.0229,-4.0043,-3.9829,-3.9621,-3.8669,-3.766,-3.7432,-3.6272,-3.5153,-3.5171,-3.5609,-3.6024,-3.5969,-3.6589,-3.7204,-3.7494,-3.8035,-3.8536,-3.8761,-3.8834,-3.884,-3.8736,-3.7443,-3.647,-3.6511,-3.5567,-3.4964,-3.5107,-3.5001,-3.4908,-3.4908,-3.4908,-3.4908,-3.4908,-3.4908,-3.4908,-3.4908,-3.4908,-3.4908,-3.4945,-3.4981,-3.5049,-3.5114,-3.5064,-3.5047,-3.5047,-3.5062,-3.5108,-1.8914,-1.9378,-2.0039,-2.0874,-2.1111,-2.1273,0.0,0.0,0.0,0.0,0.0,0.0,0.0,0.0,0.0,0.0,-2.5522,0.0,0.0,0.0,0.0,0.0,0.0,0.0,0.0,0.0,0.0,0.0,0.0,-3.7411,-3.7411,-3.9008,-3.995,-3.995,-4.0296,-4.0489,-4.0489,-4.0489,-4.0489,-4.0489,-4.0489,-4.0489,-4.0489,-4.0489,-4.0489,-4.0489,-4.0489,-4.0489,-4.0489,-4.0489,-4.0489,-4.0489,-4.0489,-4.0489,-4.0489,-4.0489,-4.0489,-4.0489,-4.0489,-4.0489,-4.0489,-4.0489,-4.0523,-4.0539,-4.0485,-4.038,-4.0181,-3.9674,-3.8944,-3.8233,-3.7797,-3.6984,-3.6283,-3.6268,-3.668,-3.702,-3.7003,-3.7431,-3.7967,-3.8493,-3.8902,-3.9311,-3.9726,-3.9822,-3.9796,-3.9682,-3.8523,-3.7699,-3.774,-3.6542,-3.5711,-3.5825,-3.5398,-3.51,-3.5136,-3.5136,-3.5069,-3.4908,-3.4908,-3.4945,-3.5037,-3.5037,-3.5088,-3.5216,-3.5302,-3.5278,-3.5234,-3.5268,-3.5268,-3.5243,-3.5244,-3.5315,-1.8896,-1.8912,-1.9284,-2.0825,-2.0698,-2.0405,0.0,0.0,0.0,0.0,0.0,0.0,0.0,0.0,0.0,0.0,0.0,0.0,0.0,0.0,0.0,0.0,0.0,0.0,0.0,0.0,0.0,0.0,0.0,-3.6699,-3.6699,-3.8238,-3.9104,-3.9104,-3.9892,-4.0315,-4.0315,-4.0431,-4.0489,-4.0489,-4.0489,-4.0489,-4.0489,-4.0489,-4.0489,-4.0489,0.0,0.0,-4.0489,-4.0489,-4.0489,-4.0489,-4.0489,-4.0489,-4.0489,-4.0504,-4.0523,-4.0519,-4.0519,-4.0519,-4.0519,-4.0519,-4.0554,-4.0636,-4.0687,-4.0707,-4.0514,-3.9557,-3.9297,-3.9135,-3.8348,-3.8022,-3.7905,-3.7905,-3.7967,-3.8028,-3.8028,-3.8139,-3.8541,-3.9445,-3.9561,-3.976,-4.0501,-4.0629,-4.0521,-4.021,-3.9468,-3.8892,-3.8789,-3.7394,-3.6415,-3.6435,-3.5767,-3.5345,-3.5391,-3.5405,-3.5292,-3.4981,-3.4982,-3.5053,-3.5223,-3.5239,-3.534,-3.557,-3.5649,-3.5609,-3.5444,-3.55,-3.5519,-3.5457,-3.5412,-3.5508,-1.8896,-1.8496,-1.8299,-1.9261,-1.9388,-1.9368,0.0,0.0,0.0,0.0,0.0,0.0,0.0,0.0,0.0,0.0,0.0,0.0,0.0,0.0,0.0,0.0,0.0,0.0,0.0,0.0,0.0,0.0,0.0,-3.6699,-3.6699,-3.7642,-3.82,-3.82,-3.9027,-3.9469,-3.9469,-4.0162,-4.0489,-4.0489,-4.0489,-4.0489,-4.0489,-4.0489,-4.0489,-4.0489,0.0,-4.0489,-4.0489,-4.0489,-4.0489,-4.0489,-4.0489,-4.0489,-4.0523,-4.0573,-4.0583,-4.0593,-4.064,-4.0673,-4.0654,-4.0607,-4.064,-4.0687,-4.07,-4.0745,-4.0761,-4.0649,-4.0022,-3.9348,-3.9213,-3.8541,-3.789,-3.7827,-3.8458,-3.9052,-3.9003,-3.9706,-4.0378,-4.0544,-4.059,-4.0616,-4.0757,-4.0784,-4.0507,-3.9747,-3.878,-3.7957,-3.7402,-3.6265,-3.5547,-3.5739,-3.5476,-3.5345,-3.5391,-3.5405,-3.5378,-3.5336,-3.5336,-3.5336,-3.5364,-3.5361,-3.5432,-3.5507,-3.5581,-3.5641,-3.5659,-3.5727,-3.5745,-3.5736,-3.5799,-3.583,-1.8733,-1.8539,-1.8462,-1.9022,-1.8907,0.0,0.0,0.0,0.0,0.0,0.0,0.0,0.0,0.0,0.0,0.0,0.0,0.0,0.0,0.0,0.0,0.0,0.0,0.0,0.0,0.0,0.0,0.0,0.0,-3.6065,-3.6065,-3.6853,-3.7324,-3.7405,-3.8215,-3.8685,-3.876,-3.9565,-4.0185,-4.0602,-4.0602,-4.0635,-4.0662,-4.0662,-4.0665,-4.0658,0.0,-4.0658,-4.0658,-4.0658,-4.0658,-4.0658,-4.066,-4.0641,-4.0611,-4.0583,-4.0626,-4.0654,-4.0654,-4.0654,-4.0635,-4.0621,-4.0654,-4.07,-4.0694,-4.0752,-4.0808,-4.0843,-4.0533,-4.0211,-4.0211,-3.983,-3.9463,-3.9436,-3.9772,-4.0108,-4.0075,-4.0443,-4.0803,-4.0788,-4.0796,-4.0803,-4.0788,-4.0409,-3.9971,-3.9565,-3.8704,-3.7996,-3.7688,-3.6774,-3.6209,-3.6331,-3.5852,-3.555,-3.5615,-3.5615,-3.555,-3.5405,-3.547,-3.5507,-3.5507,-3.5611,-3.5679,-3.566,-3.5696,-3.5721,-3.5743,-3.5815,-3.5842,-3.5799,-3.5866,-3.5898,-1.8604,-1.8555,-1.861,0.0,0.0,0.0,0.0,0.0,0.0,0.0,0.0,0.0,0.0,0.0,0.0,0.0,0.0,0.0,0.0,0.0,0.0,0.0,0.0,0.0,0.0,0.0,0.0,0.0,0.0,-3.5515,-3.556,-3.6132,-3.6498,-3.6626,-3.7409,-3.7898,-3.7995,-3.882,-3.9626,-4.0405,-4.0633,-4.0742,-4.0787,-4.0798,-4.08,-4.0808,-4.0808,-4.0808,-4.0808,-4.0808,-4.0808,-4.0803,-4.081,-4.0791,-4.0733,-4.0679,-4.0706,-4.0752,-4.07,-4.0668,-4.0673,-4.0673,-4.07,-4.0726,-4.0713,-4.0759,-4.0803,-4.0788,-4.0854,-4.0886,-4.0886,-4.0834,-4.08,-4.0808,-4.0796,-4.079,-4.079,-4.079,-4.0803,-4.0808,-4.0815,-4.0803,-4.0808,-4.0254,-3.9739,-3.9526,-3.876,-3.8199,-3.8199,-3.727,-3.6721,-3.6975,-3.623,-3.5728,-3.5794,-3.5803,-3.5708,-3.5507,-3.5599,-3.5669,-3.567,-3.5818,-3.5872,-3.5799,-3.5827,-3.5833,-3.5818,-3.5859,-3.5878,-3.583,-3.5885,-3.5897,-1.8678,-1.8288,-1.8109,0.0,0.0,0.0,0.0,0.0,0.0,0.0,0.0,0.0,0.0,0.0,0.0,0.0,0.0,0.0,0.0,0.0,0.0,0.0,0.0,0.0,0.0,0.0,0.0,0.0,-3.5572,-3.5553,-3.5687,-3.5688,-3.5707,-3.5782,-3.6636,-3.7083,-3.7092,-3.7957,-3.8799,-3.9599,-4.0412,-4.0798,-4.0801,-4.0807,-4.0805,-4.0796,-4.0796,-4.0796,-4.0796,-4.0796,-4.0796,-4.0796,-4.0796,-4.0848,-4.0891,-4.0881,-4.0926,-4.0977,-4.0978,-4.0936,-4.0887,-4.0887,-4.0842,-4.0788,-4.0803,-4.0796,-4.0788,-4.08,-4.08,-4.08,-4.08,-4.08,-4.0788,-4.0803,-4.079,-4.079,-4.079,-4.079,-4.079,-4.0803,-4.079,-4.079,-4.0803,-4.0752,-4.0423,-3.9623,-3.876,-3.8199,-3.8199,-3.6787,-3.6102,-3.6897,-3.623,-3.5728,-3.5794,-3.5803,-3.5784,-3.5773,-3.5842,-3.5885,-3.5878,-3.589,-3.586,-3.5801,-3.5919,-3.5958,-3.5898,-3.5891,-3.5903,-3.5883,-3.5908,-3.5908,-1.8697,-1.8286,-1.8115,0.0,0.0,0.0,0.0,0.0,0.0,0.0,0.0,0.0,0.0,0.0,0.0,0.0,0.0,0.0,0.0,0.0,0.0,0.0,0.0,0.0,0.0,0.0,0.0,0.0,-3.5657,-3.5652,-3.5691,-3.5689,-3.571,-3.5812,-3.6143,-3.6333,-3.6375,-3.6703,-3.7022,-3.7331,-3.8669,-3.9349,-3.9457,-3.9999,-4.0246,-4.0271,-4.0818,-4.1052,-4.1052,-4.1052,-4.1052,-4.1033,-4.0994,-4.0989,-4.096,-4.0963,-4.098,-4.1003,-4.1007,-4.098,-4.0965,-4.0967,-4.0938,-4.0931,-4.0919,-4.09,-4.0854,-4.0854,-4.0834,-4.0796,-4.0788,-4.0808,-4.0803,-4.0803,-4.079,-4.079,-4.079,-4.079,-4.079,-4.079,-4.079,-4.079,-4.079,-4.0346,-3.9894,-3.9565,-3.876,-3.8199,-3.8199,-3.7657,-3.7174,-3.6953,-3.62,-3.5728,-3.5794,-3.5803,-3.581,-3.5852,-3.5898,-3.5878,-3.584,-3.5875,-3.588,-3.5859,-3.5919,-3.5924,-3.5891,-3.5903,-3.5908,-3.5908,-3.5908,-3.5908,-1.836,-1.8156,-1.8133,0.0,0.0,0.0,0.0,0.0,0.0,0.0,0.0,0.0,0.0,0.0,0.0,0.0,0.0,0.0,0.0,0.0,0.0,0.0,0.0,0.0,0.0,0.0,0.0,0.0,-3.5727,-3.5612,-3.5408,-3.5353,-3.5291,-3.5127,-3.5107,-3.5131,-3.5176,-3.5449,-3.5449,-3.5191,-3.6576,-3.7565,-3.8222,-3.9097,-3.9489,-3.9512,-4.0117,-4.0371,-4.0391,-4.0684,-4.0957,-4.1191,-4.1152,-4.1108,-4.1065,-4.1051,-4.1055,-4.1065,-4.1051,-4.1046,-4.1033,-4.1023,-4.1024,-4.1003,-4.1003,-4.0964,-4.0934,-4.0931,-4.09,-4.0861,-4.0854,-4.0834,-4.079,-4.079,-4.079,-4.079,-4.079,-4.079,-4.079,-4.079,-4.079,-4.079,-4.079,-4.0312,-3.9905,-3.9913,-3.9182,-3.8728,-3.8992,-3.8559,-3.799,-3.7386,-3.6828,-3.6541,-3.6581,-3.659,-3.6498,-3.6287,-3.6287,-3.6131,-3.5833,-3.5883,-3.5894,-3.5897,-3.5894,-3.5899,-3.5908,-3.5908,-3.5908,-3.5908,-3.5908,-3.5908,-1.7622,-1.7799,0.0,0.0,0.0,0.0,0.0,0.0,0.0,0.0,0.0,0.0,0.0,0.0,0.0,0.0,0.0,0.0,0.0,0.0,0.0,0.0,0.0,0.0,0.0,0.0,0.0,-3.5792,-3.5759,-3.5385,-3.4726,-3.4619,-3.4226,-3.3437,-3.3398,-3.3398,-3.3398,-3.4258,-3.4238,-3.3394,-3.4258,-3.5585,-3.7294,-3.8178,-3.8572,-3.8594,-3.8594,-3.8594,-3.8672,-3.9531,-4.0391,-4.1172,-4.1172,-4.1172,-4.1172,-4.1172,-4.1191,-4.1191,-4.1191,-4.1152,-4.1094,-4.1094,-4.1052,-4.0994,-4.0994,-4.0994,-4.1006,-4.1009,-4.0996,-4.0996,-4.0996,-4.09,-4.0803,-4.0803,-4.079,-4.079,-4.0803,-4.0803,-4.0803,-4.0803,-4.0803,-4.0803,-4.0803,-4.0812,-4.0804,-4.0803,-4.013,-3.9908,-4.0699,-3.934,-3.8285,-3.8218,-3.8272,-3.8304,-3.8306,-3.8297,-3.7957,-3.7159,-3.7102,-3.6748,-3.5928,-3.5908,-3.5908,-3.5908,-3.5908,-3.5908,-3.5908,-3.5908,-3.5908,-3.5908,-3.5908,-3.5908,-1.8632,0.0,0.0,0.0,0.0,0.0,0.0,0.0,0.0,0.0,0.0,0.0,0.0,0.0,0.0,0.0,0.0,0.0,0.0,0.0,0.0,0.0,0.0,0.0,0.0,0.0,0.0,-3.4178,-3.4101,-3.4003,-3.3799,-3.3764,-3.3647,-3.3408,-3.3408,-3.3408,-3.3408,-3.3055,-3.2741,-3.2483,-3.2743,-3.3777,-3.5508,-3.637,-3.7114,-3.7723,-3.8339,-3.8594,-3.8613,-3.8887,-3.9141,-3.9375,-3.9375,-3.9375,-3.9453,-4.0059,-4.0293,-4.0371,-4.0996,-4.1191,-4.1172,-4.1172,-4.1151,-4.1128,-4.1086,-4.1048,-4.0996,-4.0994,-4.0979,-4.0928,-4.0928,-4.0908,-4.0864,-4.0868,-4.0873,-4.0865,-4.0877,-4.0858,-4.0858,-4.0858,-4.0858,-4.0858,-4.0858,-4.0878,-4.0878,-4.0868,-4.0675,-4.0597,-4.0837,-3.9945,-3.9268,-3.9196,-3.8695,-3.8389,-3.8449,-3.841,-3.8298,-3.8101,-3.8081,-3.7415,-3.5898,-3.5859,-3.5911,-3.5898,-3.5898,-3.5898,-3.5898,-3.5911,-3.5891,-3.5891,-3.5891,-3.5897,0.0,0.0,0.0,0.0,0.0,0.0,0.0,0.0,0.0,0.0,0.0,0.0,0.0,0.0,0.0,0.0,0.0,0.0,0.0,0.0,0.0,0.0,0.0,0.0,0.0,0.0,-3.3593,-3.3416,-3.3406,-3.3241,-3.291,-3.289,-3.2734,-3.2422,-3.2402,-3.2404,-3.2409,-3.2194,-3.1938,-3.1626,-3.1953,-3.2653,-3.3707,-3.4574,-3.543,-3.6325,-3.7185,-3.7754,-3.8086,-3.8086,-3.8281,-3.8594,-3.8594,-3.8594,-3.8652,-3.9199,-3.9375,-3.9453,-3.9973,-4.0164,-4.0164,-4.0132,-4.0133,-4.0189,-4.0481,-4.0554,-4.0594,-4.0943,-4.1013,-4.0976,-4.0976,-4.0976,-4.0973,-4.0916,-4.0906,-4.0894,-4.0889,-4.0896,-4.0896,-4.0896,-4.0896,-4.0896,-4.0896,-4.0929,-4.0922,-4.089,-4.0906,-4.0907,-4.0935,-4.049,-4.0149,-4.013,-3.9702,-3.9455,-3.9484,-3.9465,-3.9312,-3.9027,-3.9025,-3.8362,-3.6921,-3.6918,-3.6928,-3.6923,-3.6923,-3.6928,-3.6933,-3.6922,-3.6933,-3.6927,-3.6927,-3.6921,0.0,0.0,0.0,0.0,0.0,0.0,0.0,0.0,0.0,0.0,0.0,0.0,0.0,0.0,0.0,0.0,0.0,0.0,0.0,0.0,0.0,0.0,0.0,0.0,0.0,0.0,-3.2399,-3.3124,-3.3163,-3.2831,-3.2031,-3.1995,-3.1663,-3.0921,-3.0899,-3.0903,-3.0894,-3.1637,-3.1617,-3.0914,-3.1636,-3.1975,-3.2001,-3.2881,-3.376,-3.463,-3.5501,-3.6325,-3.7066,-3.7127,-3.7636,-3.8358,-3.8359,-3.8359,-3.8358,-3.8456,-3.8476,-3.8475,-3.8569,-3.8594,-3.858,-3.8521,-3.8512,-3.8668,-3.9449,-3.9685,-3.9862,-4.074,-4.0979,-4.0998,-4.1072,-4.1091,-4.1062,-4.0953,-4.0921,-4.0918,-4.0915,-4.0915,-4.0915,-4.0915,-4.0915,-4.0915,-4.0918,-4.0967,-4.0982,-4.0925,-4.0918,-4.0952,-4.0994,-4.0948,-4.0916,-4.0929,-4.0961,-4.1007,-4.1007,-4.1016,-4.0706,-3.9967,-3.9928,-3.9557,-3.8778,-3.8578,-3.85,-3.8504,-3.8504,-3.8506,-3.8492,-3.8493,-3.8502,-3.8506,-3.8506,-3.8463,0.0,0.0,0.0,0.0,0.0,0.0,0.0,0.0,0.0,0.0,0.0,0.0,0.0,0.0,0.0,0.0,0.0,0.0,0.0,0.0,0.0,0.0,0.0,0.0,0.0,-3.2215,-3.1921,-3.1465,-3.1446,-3.1368,-3.1172,-3.1161,-3.1088,-3.0912,-3.0903,-3.0899,-3.0903,-3.1071,-3.1074,-3.0898,-3.1012,-3.108,-3.1107,-3.2048,-3.2909,-3.3728,-3.4549,-3.501,-3.5222,-3.5866,-3.6235,-3.6419,-3.6462,-3.6426,-3.643,-3.7279,-3.7507,-3.7524,-3.8274,-3.8553,-3.8599,-3.8588,-3.8573,-3.8592,-3.8733,-3.8787,-3.8955,-3.9828,-4.0082,-4.0238,-4.092,-4.1091,-4.1081,-4.1065,-4.1051,-4.1053,-4.1066,-4.1066,-4.1066,-4.1069,-4.1069,-4.1051,-4.1053,-4.1074,-4.1073,-4.1051,-4.1066,-4.1041,-4.0999,-4.103,-4.1054,-4.1052,-4.1073,-4.1087,-4.1087,-4.1086,-4.1008,-4.0832,-4.0812,-4.0734,-4.0558,-3.9235,-3.8498,-3.8498,-3.8498,-3.85,-3.8502,-3.8504,-3.8504,-3.8498,-3.8498,-3.85,0.0,0.0,0.0,0.0,0.0,0.0,0.0,0.0,0.0,0.0,0.0,0.0,0.0,0.0,0.0,0.0,0.0,0.0,0.0,0.0,0.0,0.0,0.0,0.0,0.0,-3.1532,-3.1355,-3.0938,-3.0903,-3.0905,-3.0899,-3.0905,-3.0892,-3.0897,-3.0895,-3.0875,-3.0845,-3.0821,-3.0792,-3.0762,-3.0691,-3.0655,-3.0693,-3.1635,-3.2296,-3.2792,-3.3988,-3.453,-3.4609,-3.5383,-3.5708,-3.5763,-3.5788,-3.5756,-3.5764,-3.6328,-3.6498,-3.6495,-3.6988,-3.7189,-3.7214,-3.7209,-3.7215,-3.7274,-3.7663,-3.7792,-3.8093,-3.9394,-3.9784,-4.0001,-4.0879,-4.1094,-4.1094,-4.1094,-4.1108,-4.1101,-4.1107,-4.1107,-4.1107,-4.1101,-4.1101,-4.1099,-4.1091,-4.1101,-4.1089,-4.1051,-4.1054,-4.1035,-4.0996,-4.1054,-4.1108,-4.1105,-4.1097,-4.1108,-4.1108,-4.1108,-4.1108,-4.1108,-4.1108,-4.1108,-4.1108,-4.0231,-3.9746,-3.9746,-3.9746,-3.9746,-3.9746,-3.9746,-3.9746,-3.9744,-3.9744,-3.9722,0.0,0.0,0.0,0.0,0.0,0.0,0.0,0.0,0.0,0.0,0.0,0.0,0.0,0.0,0.0,0.0,0.0,0.0,0.0,0.0,0.0,0.0,0.0,0.0,-3.0795,-3.0895,-3.0894,-3.0905,-3.0909,-3.0891,-3.0905,-3.0897,-3.0882,-3.0876,-3.0875,-3.0833,-3.078,-3.0694,-3.0641,-3.0571,-3.0521,-3.0491,-3.0518,-3.1273,-3.1661,-3.1851,-3.3464,-3.4185,-3.4312,-3.5206,-3.5608,-3.5675,-3.5688,-3.5667,-3.5666,-3.5701,-3.5695,-3.5679,-3.5687,-3.5706,-3.5697,-3.5699,-3.5698,-3.5834,-3.6561,-3.6798,-3.7196,-3.8779,-3.9374,-3.9743,-4.0602,-4.0933,-4.1051,-4.1051,-4.1052,-4.1056,-4.1096,-4.11,-4.1096,-4.11,-4.1095,-4.1109,-4.1091,-4.1091,-4.1081,-4.103,-4.1029,-4.1014,-4.1025,-4.1066,-4.1101,-4.1101,-4.1104,-4.1108,-4.1108,-4.1108,-4.1108,-4.1108,-4.1108,-4.1108,-4.1108,-4.1108,-4.1108,-4.1108,-4.1108,-4.1108,-4.1108,-4.1108,-4.1101,-4.1093,-4.1093,-4.1074,0.0,0.0,0.0,0.0,0.0,0.0,0.0,0.0,0.0,0.0,0.0,0.0,0.0,0.0,0.0,0.0,0.0,0.0,0.0,0.0,0.0,0.0,0.0,0.0,-3.0745,-3.0895,-3.0898,-3.0898,-3.0891,-3.0909,-3.0898,-3.0849,-3.0813,-3.0802,-3.0759,-3.0717,-3.0715,-3.0586,-3.0515,-3.0509,-3.0489,-3.046,-3.0425,-3.0471,-3.0614,-3.0883,-3.2492,-3.3186,-3.333,-3.4872,-3.5515,-3.552,-3.5592,-3.5586,-3.5547,-3.5666,-3.5639,-3.5543,-3.5669,-3.5689,-3.5708,-3.5697,-3.5696,-3.5724,-3.584,-3.5877,-3.6079,-3.7086,-3.7911,-3.8696,-3.9571,-4.033,-4.0846,-4.0846,-4.0848,-4.0882,-4.107,-4.1097,-4.1105,-4.1096,-4.1089,-4.1091,-4.111,-4.1097,-4.1103,-4.1084,-4.1095,-4.1086,-4.1081,-4.1085,-4.1094,-4.1104,-4.1108,-4.1108,-4.1108,-4.1108,-4.1108,-4.1108,-4.1108,-4.1108,-4.1108,-4.1108,-4.1108,-4.1108,-4.1108,-4.1108,-4.1108,-4.1108,-4.1091,-4.1094,-4.1094,-4.1097,0.0,0.0,0.0,0.0,0.0,0.0,0.0,0.0,0.0,0.0,0.0,0.0,0.0,0.0,0.0,0.0,0.0,0.0,0.0,0.0,0.0,0.0,0.0,0.0,-3.0739,-3.0898,-3.0898,-3.0898,-3.086,-3.084,-3.0833,-3.0779,-3.0737,-3.0734,-3.0637,-3.0586,-3.0598,-3.0482,-3.042,-3.0327,-3.033,-3.0343,-3.0336,-3.0304,-3.0386,-3.0633,-3.2205,-3.2908,-3.3081,-3.4707,-3.5398,-3.5379,-3.5427,-3.5474,-3.5507,-3.5573,-3.5554,-3.5502,-3.5584,-3.5589,-3.5601,-3.5601,-3.5593,-3.5593,-3.5593,-3.5609,-3.5834,-3.6697,-3.7589,-3.8499,-3.9382,-4.0189,-4.081,-4.081,-4.0866,-4.0933,-4.1011,-4.1011,-4.1006,-4.1081,-4.1103,-4.111,-4.111,-4.111,-4.111,-4.111,-4.111,-4.1097,-4.11,-4.1111,-4.11,-4.1097,-4.1104,-4.1108,-4.1108,-4.1108,-4.1108,-4.1108,-4.1108,-4.1108,-4.1108,-4.1108,-4.1108,-4.1108,-4.1108,-4.1108,-4.1108,-4.1108,-4.1108,-4.1108,-4.1108,-4.1108,0.0,0.0,0.0,0.0,0.0,0.0,0.0,0.0,0.0,0.0,0.0,0.0,0.0,0.0,0.0,0.0,0.0,0.0,0.0,0.0,0.0,0.0,0.0,0.0,-3.0717,-3.0874,-3.0875,-3.0878,-3.0833,-3.0784,-3.0781,-3.0723,-3.0684,-3.0656,-3.052,-3.0449,-3.0439,-3.0387,-3.0308,-3.0221,-3.0221,-3.0247,-3.0305,-3.0292,-3.0352,-3.0543,-3.2115,-3.2837,-3.3004,-3.4634,-3.5304,-3.5296,-3.533,-3.5412,-3.5493,-3.5493,-3.5493,-3.5493,-3.5493,-3.5493,-3.5493,-3.5493,-3.5493,-3.5493,-3.5493,-3.5534,-3.5717,-3.6366,-3.7362,-3.8364,-3.9023,-3.9954,-4.0729,-4.0729,-4.0801,-4.0894,-4.0993,-4.0993,-4.0974,-4.1084,-4.1097,-4.111,-4.111,-4.111,-4.111,-4.111,-4.111,-4.1097,-4.11,-4.1106,-4.11,-4.1097,-4.1104,-4.1108,-4.1108,-4.1108,-4.1108,-4.1108,-4.1108,-4.1108,-4.1108,-4.1108,-4.1108,-4.1108,-4.1108,-4.1108,-4.1108,-4.1108,-4.1108,-4.1108,-4.1108,-4.1108,0.0,0.0,0.0,0.0,0.0,0.0,0.0,0.0,0.0,0.0,0.0,0.0,0.0,0.0,0.0,0.0,0.0,0.0,0.0,0.0,0.0,0.0,0.0,-2.8959,-3.0637,-3.0808,-3.0806,-3.0801,-3.0799,-3.0774,-3.0703,-3.0707,-3.0634,-3.0507,-3.0375,-3.0314,-3.0302,-3.0241,-3.0253,-3.0292,-3.0292,-3.0305,-3.0304,-3.0304,-3.0285,-3.0412,-3.207,-3.2804,-3.2938,-3.4611,-3.53,-3.5315,-3.5446,-3.5493,-3.5493,-3.5493,-3.5493,-3.5493,-3.5493,-3.5493,-3.5493,-3.5493,-3.5493,-3.5493,-3.5493,-3.5507,-3.5507,-3.5545,-3.6752,-3.8036,-3.8075,-3.9287,-4.0519,-4.0519,-4.0508,-4.0621,-4.1007,-4.1081,-4.1089,-4.1091,-4.111,-4.111,-4.111,-4.111,-4.111,-4.111,-4.111,-4.1103,-4.1111,-4.1091,-4.1105,-4.1108,-4.1108,-4.1108,-4.1108,-4.1108,-4.1108,-4.1108,-4.1108,-4.1108,-4.1108,-4.1108,-4.1108,-4.1108,-4.1108,-4.1108,-4.1108,-4.1108,-4.1108,-4.1108,-4.1108,-4.1108,0.0,0.0,0.0,0.0,0.0,0.0,0.0,0.0,0.0,0.0,0.0,0.0,0.0,0.0,0.0,0.0,0.0,0.0,0.0,0.0,0.0,0.0,0.0,-2.8957,-3.0645,-3.0798,-3.0778,-3.0743,-3.0743,-3.071,-3.0637,-3.054,-3.0491,-3.043,-3.0359,-3.0299,-3.0299,-3.0292,-3.0292,-3.0311,-3.0311,-3.0323,-3.0348,-3.0348,-3.0348,-3.0424,-3.1533,-3.2311,-3.2938,-3.4625,-3.533,-3.5364,-3.5412,-3.546,-3.5493,-3.5493,-3.5493,-3.5493,-3.5493,-3.5493,-3.5493,-3.5493,-3.5493,-3.5493,-3.5493,-3.5493,-3.5493,-3.5493,-3.6315,-3.7296,-3.7853,-3.8854,-3.9884,-4.0486,-4.0626,-4.0681,-4.0801,-4.0839,-4.083,-4.0849,-4.0849,-4.0849,-4.0849,-4.0917,-4.098,-4.098,-4.1038,-4.1103,-4.1091,-4.1091,-4.1105,-4.1108,-4.1108,-4.1108,-4.1108,-4.1108,-4.1108,-4.1108,-4.1108,-4.1108,-4.1108,-4.1108,-4.1108,-4.1108,-4.1108,-4.1108,-4.1108,-4.1108,-4.1108,-4.1108,-4.1108,-4.1108,0.0,0.0,0.0,0.0,0.0,0.0,0.0,0.0,0.0,0.0,0.0,0.0,0.0,0.0,0.0,0.0,0.0,0.0,0.0,0.0,0.0,0.0,0.0,-2.8953,-3.0645,-3.0779,-3.075,-3.0707,-3.0668,0.0,-3.0549,-3.0449,-3.0378,-3.0367,-3.0323,-3.0292,-3.0305,-3.0305,-3.0311,-3.0336,-3.0336,-3.0367,-3.0398,-3.0398,-3.0398,-3.0405,-3.1239,-3.1897,-3.2511,-3.3897,-3.4506,-3.4587,-3.4889,-3.5018,-3.5103,-3.5391,-3.5493,-3.5493,-3.5493,-3.5493,-3.5493,-3.5493,-3.5493,-3.5493,-3.5493,-3.5493,-3.5493,-3.5493,-3.6084,-3.6834,-3.7411,-3.843,-3.9518,-4.0409,-4.0621,-4.0621,-4.063,-4.0667,-4.0711,-4.0706,-4.0694,-4.0694,-4.0694,-4.0765,-4.0839,-4.0839,-4.0917,-4.0968,-4.0979,-4.096,-4.0974,-4.0967,-4.0972,-4.0972,-4.0972,-4.1013,-4.1027,-4.1027,-4.1081,-4.1108,-4.1108,-4.1108,-4.1108,-4.1108,-4.1108,-4.1108,-4.1108,-4.1108,-4.1108,-4.1108,-4.1108,-4.1108,0.0,0.0,0.0,0.0,0.0,0.0,0.0,0.0,0.0,0.0,0.0,0.0,0.0,0.0,0.0,0.0,0.0,0.0,0.0,0.0,0.0,0.0,0.0,-2.8958,-3.0619,-3.075,-3.0707,-3.0685,-3.056,-3.0462,-3.0402,-3.0402,-3.0367,-3.0312,-3.0292,-3.0305,-3.0285,-3.0285,-3.0336,-3.0398,-3.0398,-3.0379,-3.041,-3.041,-3.0348,-3.0343,-3.1194,-3.1559,-3.1636,-3.2453,-3.2837,-3.2974,-3.382,-3.416,-3.4257,-3.5122,-3.543,-3.543,-3.543,-3.543,-3.543,-3.543,-3.5449,-3.5468,-3.5468,-3.5488,-3.5493,-3.5493,-3.6051,-3.6647,-3.6685,-3.7969,-3.945,-4.0258,-4.045,-4.0469,-4.0499,-4.0607,-4.068,-4.0694,-4.0681,-4.0681,-4.0681,-4.0694,-4.0694,-4.0694,-4.0694,-4.0706,-4.0692,-4.0703,-4.0696,-4.071,-4.071,-4.071,-4.071,-4.0827,-4.0889,-4.0889,-4.1018,-4.1085,-4.1088,-4.1088,-4.1108,-4.1108,-4.1108,-4.1108,-4.1108,-4.1108,-4.1108,-4.1108,-4.1108,-4.1108,-1.9713,0.0,0.0,0.0,0.0,0.0,0.0,0.0,0.0,0.0,0.0,0.0,0.0,0.0,0.0,0.0,0.0,0.0,0.0,0.0,0.0,0.0,-2.8271,-2.8919,-3.0489,-3.0685,-3.0637,0.0,-3.0453,-3.0402,-3.0333,-3.0364,-3.039,-3.0374,-3.0374,-3.0299,-3.015,-3.0109,-3.0142,-3.0254,-3.0163,-3.0248,-3.0477,-3.0417,-3.0394,-3.0383,-3.0464,-3.0611,-3.0847,-3.2282,-3.2878,-3.2917,-3.3179,-3.3256,-3.3295,-3.3526,-3.3622,-3.3622,-3.3622,-3.3622,-3.3622,-3.3622,-3.4045,-3.4564,-3.4564,-3.5007,-3.5493,-3.5379,-3.5518,-3.581,-3.6396,-3.7424,-3.8489,-3.9295,-3.9554,-3.9796,-4.0383,-4.0531,-4.0523,-4.0441,-4.0411,-4.0413,-4.0413,-4.0492,-4.0564,-4.0564,-4.0629,-4.0706,-4.0692,-4.0703,-4.0696,-4.071,-4.071,-4.071,-4.071,-4.0722,-4.0772,-4.0772,-4.0781,-4.0859,-4.0941,-4.0967,-4.0989,-4.1108,-4.1108,-4.1108,-4.1108,-4.1108,-4.1108,-4.1108,-4.1108,-4.1108,0.0,0.0,0.0,0.0,0.0,0.0,-2.1015,-2.1847,-2.2571,0.0,0.0,0.0,0.0,0.0,0.0,0.0,0.0,0.0,0.0,0.0,0.0,0.0,-2.8499,-2.9214,-3.0474,-3.0579,-3.0535,-3.0442,-3.04,-3.0344,-3.0311,-3.0343,-3.0362,-3.0362,-3.033,-3.0241,-3.0061,-2.9992,-2.9962,-2.9992,-3.0003,-3.0117,-3.0328,-3.0383,-3.0406,-3.0386,-3.0279,-3.0286,-3.0475,-3.1333,-3.1763,-3.1891,-3.2256,-3.241,-3.2449,-3.2782,-3.2904,-3.2904,-3.2872,-3.2852,-3.2852,-3.2852,-3.3198,-3.3678,-3.4011,-3.4477,-3.4923,-3.5224,-3.5304,-3.548,-3.6291,-3.6916,-3.7539,-3.8396,-3.8674,-3.8954,-3.9804,-3.998,-4.0027,-4.0267,-4.0308,-4.0291,-4.031,-4.0363,-4.0413,-4.0413,-4.0492,-4.0534,-4.053,-4.054,-4.0535,-4.0535,-4.053,-4.0665,-4.0998,-4.1087,-4.1107,-4.1107,-4.1211,-4.1131,-4.0874,-4.0863,-4.0906,-4.0961,-4.0955,-4.0967,-4.1018,-4.1062,-4.1108,-4.1108,-4.1108,-4.1108,0.0,0.0,0.0,0.0,0.0,0.0,-2.1008,-2.1893,-2.2559,-2.1124,0.0,0.0,0.0,0.0,0.0,0.0,0.0,0.0,0.0,0.0,0.0,0.0,-2.8815,-2.9644,-3.0488,-3.0482,-3.0432,-3.0481,-3.0364,-3.0311,-3.0292,-3.0312,-3.0279,-3.0266,-3.0202,-3.0095,-2.992,-2.9883,-2.9784,-2.9678,-2.9848,-2.9973,-3.0095,-3.0337,-3.047,-3.0475,-3.0528,-3.0503,-3.042,-3.0189,-3.0209,-3.0463,-3.12,-3.152,-3.1616,-3.234,-3.2609,-3.2595,-3.2544,-3.253,-3.253,-3.253,-3.2588,-3.2823,-3.3604,-3.3915,-3.4182,-3.5047,-3.5261,-3.5433,-3.614,-3.6329,-3.6575,-3.7533,-3.774,-3.802,-3.895,-3.9169,-3.941,-4.0055,-4.0248,-4.0308,-4.031,-4.031,-4.031,-4.0291,-4.031,-4.031,-4.0291,-4.0308,-4.0308,-4.031,-4.0308,-4.0595,-4.1323,-4.1464,-4.154,-4.1559,-4.1725,-4.1505,-4.0819,-4.077,-4.078,-4.0801,-4.0731,-4.0752,-4.0875,-4.1022,-4.1108,-4.1108,-4.1108,-4.1108,0.0,0.0,0.0,0.0,0.0,0.0,-2.3311,-2.3696,-2.3858,0.0,0.0,0.0,0.0,0.0,0.0,0.0,0.0,0.0,0.0,0.0,0.0,0.0,-2.8776,-2.9608,-3.0351,-3.0462,-3.0452,-3.0414,-3.0348,-3.0279,-3.0221,-3.0266,-3.0207,-2.9973,-3.0022,-2.988,-2.9514,-2.9437,-2.9456,-2.9551,-2.9476,-2.9586,-2.9877,-3.0563,-3.0886,-3.0905,-3.128,-3.1167,-3.071,-3.0659,-3.0525,-3.0312,-3.0271,-3.0348,-3.0515,-3.0733,-3.0823,-3.0823,-3.0791,-3.0791,-3.0791,-3.0791,-3.1251,-3.196,-3.2742,-3.3436,-3.4167,-3.4914,-3.5056,-3.502,-3.5172,-3.5284,-3.5619,-3.6561,-3.6818,-3.711,-3.805,-3.8796,-3.9304,-3.941,-3.9936,-4.0362,-4.0326,-4.0344,-4.0363,-4.0308,-4.0363,-4.0363,-4.0308,-4.0344,-4.0379,-4.0381,-4.0381,-4.0456,-4.0591,-4.059,-4.0607,-4.066,-4.0639,-4.062,-4.063,-4.0597,-4.0629,-4.0791,-4.0731,-4.0701,-4.0732,-4.0978,-4.1108,-4.1108,-4.1108,-4.1108,0.0,0.0,0.0,-2.2072,0.0,0.0,0.0,-2.3941,-2.4158,-2.378,0.0,0.0,0.0,0.0,0.0,0.0,0.0,0.0,0.0,0.0,0.0,0.0,-2.8171,-2.9342,-2.9729,-3.0177,-3.0428,-3.0348,-3.026,-3.0194,-3.0213,-3.0104,-2.9996,-2.9899,-2.9799,-2.9643,-2.9397,-2.9312,-2.9249,-2.9251,-2.9277,-2.9624,-3.0226,-3.0714,-3.1184,-3.16,-3.1842,-3.1767,-3.145,-3.141,-3.1391,-3.1257,-3.038,-3.0114,-3.0188,-3.0234,-3.0247,-3.0253,-3.024,-3.024,-3.024,-3.024,-3.0546,-3.1044,-3.1775,-3.2889,-3.4058,-3.4791,-3.4983,-3.4945,-3.4945,-3.5001,-3.517,-3.5675,-3.6181,-3.6687,-3.7153,-3.7951,-3.8716,-3.9087,-3.9509,-3.9915,-4.0285,-4.0379,-4.0379,-4.0342,-4.0379,-4.0398,-4.0362,-4.0415,-4.0432,-4.0415,-4.0432,-4.0605,-4.101,-4.1031,-4.0994,-4.1013,-4.1011,-4.085,-4.0504,-4.05,-4.0545,-4.0596,-4.0597,-4.0604,-4.0597,-4.0799,-4.0889,-4.0889,-4.0889,-4.0889,0.0,0.0,0.0,0.0,0.0,-2.4096,0.0,0.0,0.0,-2.3722,0.0,0.0,0.0,0.0,0.0,0.0,0.0,0.0,0.0,0.0,0.0,0.0,-2.7643,-2.8986,-2.9271,-2.9951,-3.0266,-3.0037,-2.9923,-2.9794,-2.9651,-2.9444,-2.9387,-2.9523,-2.9326,-2.9267,-2.933,-2.9222,-2.9108,-2.9017,-2.9329,-2.9829,-3.0546,-3.101,-3.1615,-3.2274,-3.2443,-3.2385,-3.2175,-3.2214,-3.2258,-3.2183,-3.0883,-3.0395,-3.0404,-3.0251,-3.0207,-3.0194,-3.0199,-3.0204,-3.0204,-3.0185,-3.0285,-3.0524,-3.1115,-3.2454,-3.3901,-3.451,-3.4832,-3.4983,-3.4983,-3.4983,-3.5001,-3.5089,-3.5808,-3.6489,-3.6498,-3.7239,-3.8095,-3.8747,-3.9065,-3.9465,-4.0279,-4.0413,-4.0413,-4.0415,-4.0413,-4.0413,-4.0415,-4.0466,-4.0482,-4.0413,-4.0466,-4.0751,-4.1409,-4.1468,-4.1451,-4.1396,-4.143,-4.1157,-4.0452,-4.0466,-4.0485,-4.0415,-4.0457,-4.0496,-4.0487,-4.0591,-4.0665,-4.071,-4.071,-4.071,0.0,0.0,0.0,0.0,-2.4223,0.0,0.0,0.0,-2.551,-2.5428,0.0,0.0,0.0,0.0,0.0,0.0,0.0,0.0,0.0,0.0,0.0,-2.7351,-2.7832,-2.8568,-2.9928,-3.0169,-2.9893,-2.9126,-2.9055,-2.8608,-2.768,-2.7661,-2.7836,-2.82,-2.8256,-2.8505,-2.9044,-2.904,-2.9017,-2.8994,-2.9756,-3.0147,-3.0299,-3.1734,-3.2458,-3.2587,-3.3254,-3.3117,-3.2482,-3.2832,-3.2558,-3.1873,-3.1259,-3.1105,-3.1187,-3.0472,-3.0199,-3.0199,-3.0204,-3.0204,-3.0185,-3.0123,-3.0598,-3.1197,-3.1271,-3.2438,-3.3732,-3.3882,-3.4395,-3.4908,-3.4908,-3.4908,-3.4945,-3.5075,-3.5756,-3.6436,-3.6482,-3.7239,-3.7942,-3.8019,-3.8665,-3.9465,-4.0348,-4.0495,-4.0492,-4.0482,-4.0495,-4.0476,-4.0482,-4.0495,-4.0508,-4.0492,-4.0508,-4.0546,-4.0627,-4.0633,-4.0633,-4.0627,-4.0633,-4.0595,-4.0492,-4.0499,-4.0485,-4.0415,-4.0396,-4.0413,-4.0394,-4.0427,-4.0526,-4.071,-4.071,-4.071,0.0,0.0,0.0,0.0,0.0,0.0,-2.5492,0.0,-2.5702,0.0,0.0,0.0,0.0,0.0,0.0,0.0,-2.481,0.0,0.0,0.0,0.0,0.0,0.0,0.0,-2.9449,-2.902,-2.8512,-2.8056,-2.8002,-2.7759,-2.7266,-2.7131,-2.7139,-2.7361,-2.728,-2.7582,-2.8301,-2.8301,-2.8778,-2.9714,-3.0044,-3.0687,-3.1623,-3.2302,-3.2852,-3.3311,-3.3633,-3.3551,-3.3293,-3.3586,-3.3543,-3.3179,-3.2593,-3.2257,-3.2069,-3.1756,-3.1369,-3.0949,-3.0949,-3.0591,-3.0142,-3.0113,-3.03,-3.0633,-3.114,-3.177,-3.2534,-3.352,-3.4015,-3.4357,-3.4775,-3.4908,-3.504,-3.5647,-3.6463,-3.7108,-3.7179,-3.79,-3.8565,-3.8582,-3.8882,-3.926,-3.9695,-4.0169,-4.0508,-4.0511,-4.0508,-4.0508,-4.0511,-4.0508,-4.0489,-4.0489,-4.0489,-4.0489,-4.0489,-4.0492,-4.0495,-4.0495,-4.0499,-4.0499,-4.0489,-4.0515,-4.0482,-4.046,-4.0413,-4.0415,-4.0449,-4.0415,-4.0175,-3.9788,-4.0294,-4.0526,-2.6576,0.0,0.0,0.0,0.0,0.0,0.0,0.0,0.0,0.0,0.0,0.0,0.0,0.0,0.0,0.0,0.0,-2.547,0.0,0.0,0.0,0.0,0.0,0.0,0.0,-2.8275,-2.7728,-2.7403,-2.7056,-2.677,-2.6441,-2.6265,-2.6246,-2.6488,-2.6348,-2.6667,-2.7457,-2.7677,-2.8503,-2.9879,-3.032,-3.1256,-3.2614,-3.2834,-3.3256,-3.3807,-3.3807,-3.3807,-3.3815,-3.4099,-3.4197,-3.4165,-3.3761,-3.343,-3.3064,-3.2661,-3.1996,-3.1347,-3.1559,-3.1064,-3.0323,-3.0129,-3.0022,-3.0086,-3.0776,-3.114,-3.1545,-3.2794,-3.3462,-3.3919,-3.4471,-3.4756,-3.5135,-3.6084,-3.6977,-3.768,-3.7965,-3.8536,-3.901,-3.9065,-3.9097,-3.9051,-3.8857,-3.9765,-4.0431,-4.02,-4.0354,-4.0489,-4.0489,-4.0489,-4.0489,-4.0489,-4.0489,-4.0489,-4.0489,-4.0489,-4.0508,-4.0499,-4.0499,-4.0495,-4.0489,-4.0495,-4.0495,-4.0489,-4.0444,-4.0447,-4.0499,-4.0447,-4.0104,-3.949,-3.9859,-4.0051,0.0,0.0,0.0,-2.6534,0.0,0.0,0.0,0.0,-2.5707,0.0,0.0,0.0,0.0,0.0,0.0,0.0,0.0,0.0,0.0,0.0,0.0,0.0,0.0,0.0,0.0,-2.8588,-2.8234,-2.7368,-2.6397,-2.5442,-2.4541,-2.4486,-2.4783,-2.5441,-2.5439,-2.5805,-2.6631,-2.7402,-2.8227,-2.9049,-3.0613,-3.1806,-3.2632,-3.3421,-3.377,-3.3807,-3.3807,-3.3807,-3.3815,-3.4099,-3.4197,-3.4221,-3.4401,-3.4451,-3.4247,-3.2629,-3.1503,-3.0941,-3.1728,-3.1543,-3.0863,-3.0205,-2.9956,-2.994,-3.0091,-3.0681,-3.1314,-3.1451,-3.2599,-3.3805,-3.3824,-3.4357,-3.5135,-3.6084,-3.6977,-3.7833,-3.8689,-3.8917,-3.8992,-3.8992,-3.9063,-3.8843,-3.8076,-3.9365,-4.0239,-3.945,-3.9988,-4.0489,-4.0489,-4.0489,-4.0489,-4.0489,-4.0489,-4.0489,-4.0489,-4.0489,-4.0489,-4.0489,-4.0489,-4.0489,-4.0489,-4.0489,-4.0489,-4.0489,-4.0489,-4.0489,-4.0489,-4.0489,-4.0469,-4.0431,-3.9564,-3.9131,-2.4777,-2.3641,-2.2975,-2.4766,0.0,0.0,0.0,0.0,0.0,0.0,0.0,0.0,0.0,0.0,0.0,0.0,0.0,0.0,0.0,0.0,0.0,0.0,0.0,0.0,0.0,0.0,-2.6575,-2.6188,-2.5371,-2.4708,-2.4284,-2.4266,-2.4376,-2.4593,-2.4612,-2.5254,-2.6594,-2.6869,-2.7952,-2.9824,-3.0889,-3.1531,-3.1843,-3.3183,-3.3513,-3.3054,-3.3568,-3.3807,-3.3807,-3.3895,-3.3947,-3.3947,-3.4005,-3.4037,-3.4006,-3.3758,-3.3154,-3.2403,-3.2,-3.1738,-3.1405,-3.0753,-3.0545,-3.0505,-3.0193,-3.0293,-3.0617,-3.1238,-3.1794,-3.2466,-3.3519,-3.4412,-3.5399,-3.6825,-3.7833,-3.8709,-3.9624,-3.9833,-3.9871,-3.9871,-3.9887,-3.9463,-3.8065,-3.8786,-3.9503,-3.9335,-3.9492,-3.9858,-4.0431,-4.0489,-4.0489,-4.0489,-4.0489,-4.0489,-4.0489,-4.0489,-4.0489,-4.0489,-4.0489,-4.0489,-4.0489,-4.0489,-4.0489,-4.0489,-3.9969,-3.97,-3.97,-3.9123,-3.8546,-3.7988,-3.767,-3.8424,-2.5219,-2.3999,-2.3274,-2.4779,-2.4496,-2.4248,-2.5714,0.0,-2.6037,0.0,0.0,0.0,0.0,0.0,0.0,0.0,0.0,0.0,0.0,-2.9545,0.0,0.0,0.0,0.0,0.0,0.0,-2.634,-2.569,-2.5097,-2.4579,0.0,-2.419,-2.419,-2.419,-2.4483,-2.5107,-2.6153,-2.6741,-2.7952,-2.9787,-3.0595,-3.1109,-3.1439,-3.2779,-3.2926,-3.2228,-3.3018,-3.3366,-3.3366,-3.3366,-3.3532,-3.3807,-3.3807,-3.3807,-3.3842,-3.4136,-3.392,-3.3324,-3.2162,-3.1935,-3.2013,-3.1144,-3.0866,-3.0791,-3.0269,-3.0113,-3.0357,-3.1535,-3.1634,-3.179,-3.3418,-3.4464,-3.5435,-3.6842,-3.8061,-3.9166,-4.0101,-4.031,-4.031,-4.031,-4.0309,-3.9771,-3.8087,-3.8257,-3.8671,-3.8789,-3.9004,-3.9484,-4.0345,-4.0495,-4.0492,-4.0492,-4.0508,-4.0489,-4.0489,-4.0489,-4.0489,-4.0489,-4.0489,-4.0489,-4.0489,-4.0489,-4.0489,-4.0489,-3.9988,-3.9719,-3.9719,-3.8873,-3.8315,-3.8046,-3.745,-3.8219]}]]